[[{"header":{"parameterUnit":"m.s-1","parameterCategory":1,"la1":31.0,"la2":29.5877,"lo1":-88.7671,"lo2":-86.6584,"dx":0.0162,"dy":0.0185,"nx":115,"ny":88,"refTime":"2022-11-03T06:00:00:Z","depth":0,"parameterNumber":2,"parameterNumberName":"U-component_of_WINDS"},"data":[0.0,0.0,0.0,0.0,0.0,0.0,0.0,0.0,0.0,0.0,0.0,0.0,0.0,0.0,0.0,0.0,0.0,0.0,0.0,0.0,0.0,0.0,0.0,0.0,0.0,0.0,0.0,0.0,0.0,0.0,0.0,0.0,0.0,0.0,0.0,0.0,0.0,0.0,0.0,0.0,0.0,0.0,0.0,0.0,0.0,0.0,0.0,0.0,0.0,0.0,0.0,0.0,0.0,0.0,0.0,0.0,0.0,0.0,0.0,0.0,0.0,0.0,0.0,0.0,0.0,0.0,0.0,0.0,0.0,0.0,0.0,0.0,0.0,0.0,0.0,0.0,0.0,0.0,0.0,0.0,0.0,0.0,0.0,0.0,0.0,0.0,0.0,0.0,0.0,0.0,0.0,0.0,0.0,0.0,0.0,0.0,0.0,0.0,0.0,0.0,0.0,0.0,0.0,0.0,0.0,0.0,0.0,0.0,0.0,0.0,0.0,0.0,0.0,0.0,0.0,0.0,0.0,0.0,0.0,0.0,0.0,0.0,0.0,0.0,0.0,0.0,0.0,0.0,0.0,0.0,0.0,0.0,0.0,0.0,0.0,0.0,0.0,0.0,0.0,0.0,0.0,0.0,0.0,0.0,0.0,0.0,0.0,0.0,0.0,0.0,0.0,0.0,0.0,0.0,0.0,0.0,0.0,0.0,0.0,0.0,0.0,0.0,0.0,0.0,0.0,0.0,0.0,0.0,0.0,0.0,0.0,0.0,0.0,0.0,0.0,0.0,0.0,0.0,0.0,0.0,0.0,0.0,0.0,0.0,0.0,0.0,0.0,0.0,0.0,0.0,0.0,0.0,0.0,0.0,0.0,0.0,0.0,0.0,0.0,0.0,0.0,0.0,0.0,0.0,0.0,0.0,0.0,0.0,0.0,0.0,0.0,0.0,0.0,0.0,0.0,0.0,0.0,0.0,0.0,0.0,0.0,0.0,0.0,0.0,0.0,0.0,0.0,0.0,0.0,0.0,0.0,0.0,0.0,0.0,0.0,0.0,0.0,0.0,0.0,0.0,0.0,0.0,0.0,0.0,0.0,0.0,0.0,0.0,0.0,0.0,0.0,0.0,0.0,0.0,0.0,0.0,0.0,0.0,0.0,0.0,0.0,0.0,0.0,0.0,0.0,0.0,0.0,0.0,0.0,0.0,0.0,0.0,0.0,0.0,0.0,0.0,0.0,0.0,0.0,0.0,0.0,0.0,0.0,0.0,0.0,0.0,0.0,0.0,0.0,0.0,0.0,0.0,0.0,0.0,0.0,0.0,0.0,0.0,0.0,0.0,0.0,0.0,0.0,0.0,0.0,0.0,0.0,0.0,0.0,0.0,0.0,0.0,0.0,0.0,0.0,0.0,0.0,0.0,0.0,0.0,0.0,0.0,0.0,0.0,0.0,0.0,0.0,0.0,0.0,0.0,0.0,0.0,0.0,0.0,0.0,0.0,0.0,0.0,0.0,0.0,0.0,0.0,0.0,0.0,0.0,0.0,0.0,0.0,0.0,0.0,0.0,0.0,0.0,0.0,0.0,0.0,0.0,0.0,0.0,0.0,0.0,0.0,0.0,0.0,0.0,0.0,0.0,0.0,0.0,0.0,0.0,0.0,0.0,0.0,0.0,0.0,0.0,0.0,0.0,0.0,0.0,0.0,0.0,0.0,0.0,0.0,0.0,0.0,0.0,0.0,0.0,0.0,0.0,0.0,0.0,0.0,0.0,0.0,0.0,0.0,0.0,0.0,0.0,0.0,0.0,0.0,0.0,0.0,0.0,0.0,0.0,0.0,0.0,0.0,0.0,0.0,0.0,0.0,0.0,0.0,0.0,0.0,0.0,0.0,0.0,0.0,0.0,0.0,0.0,0.0,0.0,0.0,0.0,0.0,0.0,0.0,0.0,0.0,0.0,0.0,0.0,0.0,0.0,0.0,0.0,0.0,0.0,0.0,0.0,0.0,0.0,0.0,0.0,0.0,0.0,0.0,0.0,0.0,0.0,0.0,0.0,0.0,0.0,0.0,0.0,0.0,0.0,0.0,0.0,0.0,0.0,0.0,0.0,0.0,0.0,0.0,0.0,0.0,0.0,0.0,0.0,0.0,0.0,0.0,0.0,0.0,0.0,0.0,0.0,0.0,0.0,0.0,0.0,0.0,0.0,0.0,0.0,0.0,0.0,0.0,0.0,0.0,0.0,0.0,0.0,0.0,0.0,0.0,0.0,0.0,0.0,0.0,0.0,0.0,0.0,0.0,0.0,0.0,0.0,0.0,0.0,0.0,0.0,0.0,0.0,0.0,0.0,0.0,0.0,0.0,0.0,0.0,0.0,0.0,0.0,0.0,0.0,0.0,0.0,0.0,0.0,0.0,0.0,0.0,0.0,0.0,0.0,0.0,0.0,0.0,0.0,0.0,0.0,0.0,0.0,0.0,0.0,0.0,0.0,0.0,0.0,0.0,0.0,0.0,0.0,0.0,0.0,0.0,0.0,0.0,0.0,0.0,0.0,0.0,0.0,0.0,0.0,0.0,0.0,0.0,0.0,0.0,0.0,0.0,0.0,0.0,0.0,0.0,0.0,0.0,0.0,0.0,0.0,0.0,0.0,0.0,0.0,0.0,0.0,0.0,0.0,0.0,0.0,0.0,0.0,0.0,0.0,0.0,0.0,0.0,0.0,0.0,0.0,0.0,0.0,0.0,0.0,0.0,0.0,0.0,0.0,0.0,0.0,0.0,0.0,0.0,0.0,0.0,0.0,0.0,0.0,0.0,0.0,0.0,0.0,0.0,0.0,0.0,0.0,0.0,0.0,0.0,0.0,0.0,0.0,0.0,0.0,0.0,0.0,0.0,0.0,0.0,0.0,0.0,0.0,0.0,0.0,0.0,0.0,0.0,0.0,0.0,0.0,0.0,0.0,0.0,0.0,0.0,0.0,0.0,0.0,0.0,0.0,0.0,0.0,0.0,0.0,0.0,0.0,0.0,0.0,0.0,0.0,0.0,0.0,0.0,0.0,0.0,0.0,0.0,0.0,0.0,0.0,0.0,0.0,0.0,0.0,0.0,0.0,0.0,0.0,0.0,0.0,0.0,0.0,0.0,0.0,0.0,0.0,0.0,0.0,0.0,0.0,0.0,0.0,0.0,0.0,0.0,0.0,0.0,0.0,0.0,0.0,0.0,0.0,0.0,0.0,0.0,0.0,0.0,0.0,0.0,0.0,0.0,0.0,0.0,0.0,0.0,0.0,0.0,0.0,0.0,0.0,0.0,0.0,0.0,0.0,0.0,0.0,0.0,0.0,0.0,0.0,0.0,0.0,0.0,0.0,0.0,0.0,0.0,0.0,0.0,0.0,0.0,0.0,0.0,0.0,0.0,0.0,0.0,0.0,0.0,0.0,0.0,0.0,0.0,0.0,0.0,0.0,0.0,0.0,0.0,0.0,0.0,0.0,0.0,0.0,0.0,0.0,0.0,0.0,0.0,0.0,0.0,0.0,0.0,0.0,0.0,0.0,0.0,0.0,0.0,0.0,0.0,0.0,0.0,0.0,0.0,0.0,0.0,0.0,0.0,0.0,0.0,0.0,0.0,0.0,0.0,0.0,0.0,0.0,0.0,0.0,0.0,0.0,0.0,0.0,0.0,0.0,0.0,0.0,0.0,0.0,0.0,0.0,0.0,0.0,0.0,0.0,0.0,0.0,0.0,0.0,0.0,0.0,0.0,0.0,0.0,0.0,0.0,0.0,0.0,0.0,0.0,0.0,0.0,0.0,0.0,0.0,0.0,0.0,0.0,0.0,0.0,0.0,0.0,0.0,0.0,0.0,0.0,0.0,0.0,0.0,0.0,0.0,0.0,0.0,0.0,0.0,0.0,0.0,0.0,0.0,0.0,0.0,0.0,0.0,0.0,0.0,0.0,0.0,0.0,0.0,0.0,0.0,0.0,0.0,0.0,0.0,0.0,0.0,0.0,0.0,0.0,0.0,0.0,0.0,0.0,0.0,0.0,0.0,0.0,0.0,0.0,0.0,0.0,0.0,0.0,0.0,0.0,0.0,0.0,0.0,0.0,0.0,0.0,0.0,0.0,0.0,0.0,0.0,0.0,0.0,0.0,0.0,0.0,0.0,0.0,0.0,0.0,0.0,0.0,0.0,0.0,0.0,0.0,0.0,0.0,0.0,0.0,0.0,0.0,0.0,0.0,0.0,0.0,0.0,0.0,0.0,0.0,0.0,0.0,-1.3371,0.0,0.0,0.0,-1.3227,0.0,0.0,0.0,0.0,0.0,0.0,0.0,0.0,0.0,0.0,0.0,0.0,0.0,0.0,0.0,0.0,0.0,0.0,0.0,0.0,0.0,0.0,0.0,0.0,0.0,0.0,0.0,0.0,0.0,0.0,0.0,0.0,0.0,0.0,0.0,0.0,0.0,0.0,0.0,0.0,0.0,0.0,0.0,0.0,0.0,0.0,0.0,0.0,0.0,0.0,0.0,0.0,0.0,0.0,0.0,0.0,0.0,0.0,0.0,0.0,0.0,0.0,0.0,0.0,0.0,0.0,0.0,0.0,0.0,0.0,0.0,0.0,0.0,0.0,0.0,0.0,0.0,0.0,0.0,0.0,0.0,0.0,0.0,0.0,0.0,0.0,0.0,0.0,0.0,0.0,0.0,0.0,0.0,0.0,0.0,0.0,0.0,0.0,0.0,0.0,0.0,0.0,0.0,0.0,0.0,0.0,0.0,0.0,0.0,0.0,-1.3523,-1.3893,-1.347,-1.3401,-1.3701,0.0,0.0,0.0,0.0,0.0,0.0,0.0,0.0,0.0,0.0,0.0,0.0,0.0,0.0,0.0,0.0,0.0,0.0,0.0,0.0,0.0,0.0,0.0,0.0,0.0,0.0,0.0,0.0,0.0,0.0,0.0,0.0,0.0,0.0,0.0,0.0,0.0,0.0,0.0,0.0,0.0,0.0,0.0,0.0,0.0,0.0,0.0,0.0,0.0,0.0,0.0,0.0,0.0,0.0,0.0,0.0,0.0,0.0,0.0,0.0,0.0,0.0,0.0,0.0,0.0,0.0,0.0,0.0,0.0,0.0,0.0,0.0,0.0,0.0,0.0,0.0,0.0,0.0,0.0,0.0,0.0,0.0,0.0,0.0,0.0,0.0,0.0,0.0,0.0,0.0,0.0,0.0,0.0,0.0,0.0,0.0,0.0,0.0,0.0,0.0,0.0,0.0,0.0,0.0,0.0,0.0,0.0,0.0,0.0,0.0,0.0,0.0,-1.3972,-1.3783,-1.4039,0.0,0.0,0.0,0.0,0.0,0.0,0.0,0.0,0.0,0.0,0.0,0.0,0.0,0.0,0.0,0.0,0.0,0.0,0.0,0.0,0.0,0.0,0.0,0.0,0.0,0.0,0.0,0.0,0.0,0.0,0.0,0.0,0.0,0.0,0.0,0.0,0.0,0.0,0.0,0.0,0.0,0.0,0.0,0.0,0.0,0.0,0.0,0.0,0.0,0.0,0.0,0.0,0.0,0.0,0.0,0.0,0.0,0.0,0.0,0.0,0.0,0.0,0.0,0.0,0.0,0.0,0.0,0.0,0.0,0.0,0.0,0.0,0.0,0.0,0.0,0.0,0.0,0.0,0.0,0.0,0.0,0.0,0.0,0.0,0.0,0.0,0.0,0.0,0.0,0.0,0.0,0.0,0.0,0.0,0.0,0.0,0.0,0.0,0.0,0.0,0.0,0.0,0.0,0.0,0.0,0.0,0.0,0.0,0.0,0.0,-1.443,-1.5102,-1.5,0.0,-1.3857,0.0,0.0,0.0,0.0,0.0,0.0,0.0,0.0,0.0,0.0,0.0,0.0,0.0,0.0,0.0,0.0,0.0,0.0,0.0,0.0,0.0,0.0,0.0,0.0,0.0,0.0,0.0,0.0,0.0,0.0,0.0,0.0,0.0,0.0,0.0,0.0,0.0,0.0,0.0,0.0,0.0,0.0,0.0,0.0,0.0,0.0,0.0,0.0,0.0,0.0,0.0,0.0,0.0,0.0,0.0,0.0,0.0,0.0,0.0,0.0,0.0,0.0,0.0,0.0,0.0,0.0,0.0,0.0,0.0,0.0,0.0,0.0,0.0,0.0,0.0,0.0,0.0,0.0,0.0,0.0,0.0,0.0,0.0,0.0,0.0,0.0,0.0,0.0,0.0,0.0,0.0,0.0,0.0,0.0,0.0,0.0,0.0,0.0,0.0,0.0,0.0,0.0,0.0,0.0,0.0,0.0,0.0,0.0,0.0,0.0,-1.4603,-1.5703,-1.559,-1.4955,0.0,0.0,0.0,0.0,0.0,0.0,0.0,0.0,0.0,0.0,0.0,0.0,0.0,0.0,0.0,0.0,0.0,0.0,0.0,0.0,0.0,0.0,0.0,0.0,0.0,0.0,0.0,0.0,0.0,0.0,0.0,0.0,0.0,0.0,0.0,0.0,0.0,0.0,0.0,0.0,0.0,0.0,0.0,0.0,0.0,0.0,0.0,0.0,0.0,0.0,0.0,0.0,0.0,0.0,0.0,0.0,0.0,0.0,0.0,0.0,0.0,0.0,0.0,0.0,0.0,0.0,0.0,0.0,0.0,0.0,0.0,0.0,0.0,0.0,0.0,0.0,0.0,0.0,0.0,0.0,0.0,0.0,0.0,0.0,0.0,0.0,0.0,0.0,0.0,0.0,0.0,0.0,0.0,0.0,0.0,0.0,0.0,0.0,0.0,0.0,0.0,0.0,0.0,0.0,0.0,0.0,0.0,0.0,0.0,0.0,-1.4441,-1.5076,-1.616,-1.5899,-1.513,-1.3885,0.0,0.0,0.0,0.0,0.0,0.0,0.0,0.0,0.0,0.0,0.0,0.0,0.0,0.0,0.0,0.0,0.0,0.0,0.0,0.0,0.0,0.0,0.0,0.0,0.0,0.0,0.0,0.0,0.0,0.0,0.0,0.0,0.0,0.0,0.0,0.0,0.0,0.0,0.0,0.0,0.0,0.0,0.0,0.0,0.0,0.0,0.0,0.0,0.0,0.0,0.0,0.0,0.0,0.0,0.0,0.0,0.0,0.0,0.0,0.0,0.0,0.0,0.0,0.0,0.0,0.0,0.0,0.0,0.0,0.0,0.0,0.0,0.0,0.0,0.0,0.0,0.0,0.0,0.0,0.0,0.0,0.0,0.0,0.0,0.0,0.0,0.0,0.0,0.0,0.0,0.0,0.0,0.0,0.0,0.0,0.0,0.0,0.0,0.0,0.0,0.0,0.0,0.0,0.0,0.0,0.0,0.0,0.0,-1.4837,-1.548,-1.6088,-1.6642,-1.5918,-1.5182,0.0,0.0,0.0,0.0,0.0,0.0,0.0,0.0,0.0,0.0,0.0,0.0,0.0,0.0,0.0,0.0,0.0,0.0,0.0,0.0,0.0,0.0,0.0,0.0,0.0,0.0,0.0,0.0,0.0,0.0,0.0,0.0,0.0,0.0,0.0,0.0,0.0,0.0,0.0,0.0,0.0,0.0,0.0,0.0,0.0,0.0,0.0,0.0,0.0,0.0,0.0,0.0,0.0,0.0,0.0,0.0,0.0,0.0,0.0,0.0,0.0,0.0,0.0,0.0,0.0,0.0,0.0,0.0,0.0,0.0,0.0,0.0,0.0,0.0,0.0,0.0,0.0,0.0,0.0,0.0,0.0,0.0,0.0,0.0,0.0,0.0,0.0,0.0,0.0,0.0,0.0,0.0,0.0,0.0,0.0,0.0,0.0,0.0,0.0,0.0,0.0,0.0,0.0,0.0,0.0,0.0,0.0,0.0,0.0,-1.4745,-1.6114,-1.6941,-1.706,-1.6719,-1.5816,0.0,0.0,0.0,0.0,0.0,0.0,0.0,0.0,0.0,0.0,0.0,0.0,0.0,0.0,0.0,0.0,0.0,0.0,0.0,0.0,0.0,0.0,0.0,0.0,0.0,0.0,0.0,0.0,0.0,0.0,0.0,0.0,0.0,0.0,0.0,0.0,0.0,0.0,0.0,0.0,0.0,0.0,0.0,0.0,0.0,0.0,0.0,0.0,0.0,0.0,0.0,0.0,0.0,0.0,0.0,0.0,0.0,0.0,0.0,0.0,0.0,0.0,0.0,0.0,0.0,0.0,0.0,0.0,0.0,0.0,0.0,0.0,0.0,0.0,0.0,0.0,0.0,0.0,0.0,0.0,0.0,0.0,0.0,0.0,0.0,0.0,0.0,0.0,0.0,0.0,0.0,0.0,0.0,0.0,0.0,0.0,0.0,0.0,0.0,0.0,0.0,0.0,0.0,0.0,0.0,0.0,0.0,0.0,0.0,-1.5474,-1.687,-1.7497,-1.7236,-1.7134,-1.613,0.0,0.0,0.0,0.0,0.0,0.0,0.0,0.0,0.0,0.0,0.0,0.0,0.0,0.0,0.0,0.0,0.0,0.0,0.0,0.0,0.0,0.0,0.0,0.0,0.0,0.0,0.0,0.0,0.0,0.0,0.0,0.0,0.0,0.0,0.0,0.0,0.0,0.0,0.0,0.0,0.0,0.0,0.0,0.0,0.0,0.0,0.0,0.0,0.0,0.0,0.0,0.0,0.0,0.0,0.0,0.0,0.0,0.0,0.0,0.0,0.0,0.0,0.0,0.0,0.0,0.0,0.0,0.0,0.0,0.0,0.0,0.0,0.0,0.0,0.0,0.0,0.0,0.0,0.0,0.0,0.0,0.0,0.0,0.0,0.0,0.0,0.0,0.0,0.0,0.0,0.0,0.0,0.0,0.0,0.0,0.0,0.0,0.0,0.0,0.0,0.0,0.0,0.0,0.0,0.0,0.0,0.0,0.0,-1.5424,-1.7201,-1.7792,-1.7807,-1.715,-1.7061,-1.6075,0.0,0.0,0.0,0.0,0.0,0.0,0.0,0.0,0.0,0.0,0.0,0.0,0.0,0.0,0.0,0.0,0.0,0.0,0.0,0.0,0.0,0.0,0.0,0.0,0.0,0.0,0.0,0.0,0.0,0.0,0.0,0.0,0.0,0.0,0.0,0.0,0.0,0.0,0.0,0.0,0.0,0.0,0.0,0.0,0.0,0.0,0.0,0.0,0.0,0.0,0.0,0.0,0.0,0.0,0.0,0.0,0.0,0.0,0.0,0.0,0.0,0.0,0.0,0.0,0.0,0.0,0.0,0.0,0.0,0.0,0.0,0.0,0.0,0.0,0.0,0.0,0.0,0.0,0.0,0.0,0.0,0.0,0.0,0.0,0.0,0.0,0.0,0.0,0.0,0.0,0.0,0.0,0.0,0.0,0.0,0.0,0.0,0.0,0.0,0.0,0.0,0.0,0.0,0.0,0.0,0.0,0.0,0.0,0.0,-1.7607,-1.8141,-1.8313,-1.8135,-1.762,-1.6397,0.0,0.0,0.0,0.0,0.0,0.0,0.0,0.0,0.0,0.0,0.0,0.0,0.0,0.0,0.0,0.0,0.0,0.0,0.0,0.0,0.0,0.0,0.0,0.0,0.0,0.0,0.0,0.0,0.0,0.0,0.0,0.0,0.0,0.0,0.0,0.0,0.0,0.0,0.0,0.0,0.0,0.0,0.0,0.0,0.0,0.0,0.0,0.0,0.0,0.0,0.0,0.0,0.0,0.0,0.0,0.0,0.0,0.0,0.0,0.0,0.0,0.0,0.0,0.0,0.0,0.0,0.0,0.0,0.0,0.0,0.0,0.0,0.0,0.0,0.0,0.0,0.0,0.0,0.0,0.0,0.0,0.0,0.0,0.0,0.0,0.0,0.0,0.0,0.0,0.0,0.0,0.0,0.0,0.0,0.0,0.0,0.0,0.0,0.0,0.0,0.0,0.0,0.0,0.0,0.0,0.0,0.0,0.0,0.0,-1.8113,-1.8523,-1.8726,-1.8723,-1.7854,-1.6576,-1.4862,0.0,0.0,0.0,0.0,0.0,0.0,0.0,0.0,0.0,0.0,0.0,0.0,0.0,0.0,0.0,0.0,0.0,0.0,0.0,0.0,0.0,0.0,0.0,0.0,0.0,0.0,0.0,0.0,0.0,0.0,0.0,0.0,0.0,0.0,0.0,0.0,0.0,0.0,0.0,0.0,0.0,0.0,0.0,0.0,0.0,0.0,0.0,0.0,0.0,0.0,0.0,0.0,0.0,0.0,0.0,0.0,0.0,0.0,0.0,0.0,0.0,0.0,0.0,0.0,0.0,0.0,0.0,0.0,0.0,0.0,0.0,0.0,0.0,0.0,0.0,0.0,0.0,0.0,0.0,0.0,0.0,0.0,0.0,0.0,0.0,0.0,0.0,0.0,0.0,0.0,0.0,0.0,0.0,0.0,0.0,0.0,0.0,0.0,0.0,0.0,0.0,0.0,0.0,0.0,0.0,0.0,0.0,0.0,-1.8773,-1.9013,-1.9094,-1.9017,-1.7898,-1.6661,0.0,0.0,0.0,0.0,0.0,0.0,0.0,0.0,0.0,0.0,0.0,0.0,0.0,0.0,0.0,0.0,0.0,0.0,0.0,0.0,0.0,0.0,0.0,0.0,0.0,0.0,0.0,0.0,0.0,0.0,0.0,0.0,0.0,0.0,0.0,0.0,0.0,0.0,0.0,0.0,0.0,0.0,0.0,0.0,0.0,0.0,0.0,0.0,0.0,0.0,0.0,0.0,0.0,0.0,0.0,0.0,0.0,0.0,0.0,0.0,0.0,0.0,0.0,0.0,0.0,0.0,0.0,0.0,0.0,0.0,0.0,0.0,0.0,0.0,0.0,0.0,0.0,0.0,0.0,0.0,0.0,0.0,0.0,0.0,0.0,0.0,0.0,0.0,0.0,0.0,0.0,0.0,0.0,0.0,0.0,0.0,0.0,0.0,0.0,0.0,0.0,0.0,0.0,0.0,0.0,0.0,0.0,0.0,0.0,-1.9831,-1.9705,-1.9517,-1.9278,-1.8502,-1.7323,0.0,0.0,0.0,0.0,0.0,0.0,0.0,0.0,0.0,0.0,0.0,0.0,0.0,0.0,0.0,0.0,0.0,0.0,0.0,0.0,0.0,0.0,0.0,0.0,0.0,0.0,0.0,0.0,0.0,0.0,0.0,0.0,0.0,0.0,0.0,0.0,0.0,0.0,0.0,0.0,0.0,0.0,0.0,0.0,0.0,0.0,0.0,0.0,0.0,0.0,0.0,0.0,0.0,0.0,0.0,0.0,0.0,0.0,0.0,0.0,0.0,0.0,0.0,0.0,0.0,0.0,0.0,0.0,0.0,0.0,0.0,0.0,0.0,0.0,0.0,0.0,0.0,0.0,0.0,0.0,0.0,0.0,0.0,0.0,0.0,0.0,0.0,0.0,0.0,0.0,0.0,0.0,0.0,0.0,0.0,0.0,0.0,0.0,0.0,0.0,0.0,0.0,0.0,0.0,0.0,0.0,0.0,0.0,-1.937,-2.0357,-2.0407,-2.0175,-1.9729,-1.8755,-1.7682,0.0,0.0,0.0,0.0,0.0,0.0,0.0,0.0,0.0,0.0,0.0,0.0,0.0,0.0,0.0,0.0,0.0,0.0,0.0,0.0,0.0,0.0,0.0,0.0,0.0,0.0,0.0,0.0,0.0,0.0,0.0,0.0,0.0,0.0,0.0,0.0,0.0,0.0,0.0,0.0,0.0,0.0,0.0,0.0,0.0,0.0,0.0,0.0,0.0,0.0,0.0,0.0,0.0,0.0,0.0,0.0,0.0,0.0,0.0,0.0,0.0,0.0,0.0,0.0,0.0,0.0,0.0,0.0,0.0,0.0,0.0,0.0,0.0,0.0,0.0,0.0,0.0,0.0,0.0,0.0,0.0,0.0,0.0,0.0,0.0,0.0,0.0,0.0,0.0,0.0,0.0,0.0,0.0,0.0,0.0,0.0,0.0,0.0,0.0,0.0,0.0,0.0,0.0,0.0,0.0,0.0,0.0,0.0,-1.9663,-2.0491,-2.0919,-2.0877,-2.027,-1.8903,-1.7892,0.0,0.0,0.0,0.0,0.0,0.0,0.0,0.0,0.0,0.0,0.0,0.0,0.0,0.0,0.0,0.0,0.0,0.0,0.0,0.0,0.0,0.0,0.0,0.0,0.0,0.0,0.0,0.0,0.0,0.0,0.0,0.0,0.0,0.0,0.0,0.0,0.0,0.0,0.0,0.0,0.0,0.0,0.0,0.0,0.0,0.0,0.0,0.0,0.0,0.0,0.0,0.0,0.0,0.0,0.0,0.0,0.0,0.0,0.0,0.0,0.0,0.0,0.0,0.0,0.0,0.0,0.0,0.0,0.0,0.0,0.0,0.0,0.0,0.0,0.0,0.0,0.0,0.0,0.0,0.0,0.0,0.0,0.0,0.0,0.0,0.0,0.0,0.0,0.0,0.0,0.0,0.0,0.0,0.0,0.0,0.0,0.0,0.0,0.0,0.0,0.0,0.0,0.0,0.0,0.0,0.0,0.0,0.0,-1.9942,-2.0481,-2.0815,-2.0921,-2.0822,-1.9653,-1.8371,0.0,0.0,0.0,0.0,0.0,0.0,0.0,0.0,0.0,0.0,0.0,0.0,0.0,0.0,0.0,0.0,0.0,0.0,0.0,0.0,0.0,0.0,0.0,0.0,0.0,0.0,0.0,0.0,0.0,0.0,0.0,0.0,0.0,0.0,0.0,0.0,0.0,0.0,0.0,0.0,0.0,0.0,0.0,0.0,0.0,0.0,0.0,0.0,-1.2938,0.0,0.0,0.0,0.0,0.0,0.0,0.0,0.0,0.0,0.0,0.0,0.0,0.0,0.0,0.0,0.0,0.0,0.0,0.0,0.0,0.0,0.0,0.0,0.0,0.0,0.0,0.0,0.0,0.0,0.0,0.0,0.0,0.0,0.0,0.0,0.0,0.0,0.0,0.0,0.0,0.0,0.0,0.0,0.0,0.0,0.0,0.0,0.0,0.0,0.0,0.0,0.0,0.0,0.0,0.0,0.0,0.0,0.0,0.0,-2.0156,-2.111,-2.1224,-2.1245,-2.1231,-2.0424,-1.9078,0.0,0.0,0.0,0.0,0.0,0.0,0.0,0.0,0.0,0.0,0.0,0.0,0.0,0.0,0.0,0.0,0.0,0.0,0.0,0.0,0.0,0.0,0.0,0.0,0.0,0.0,0.0,0.0,0.0,0.0,0.0,0.0,0.0,0.0,0.0,0.0,0.0,0.0,0.0,0.0,0.0,0.0,0.0,0.0,0.0,0.0,0.0,0.0,0.0,0.0,0.0,0.0,0.0,0.0,0.0,0.0,0.0,0.0,0.0,0.0,0.0,0.0,0.0,0.0,0.0,0.0,0.0,0.0,0.0,0.0,0.0,0.0,0.0,0.0,0.0,0.0,0.0,0.0,0.0,0.0,0.0,0.0,0.0,0.0,0.0,0.0,0.0,0.0,0.0,0.0,0.0,0.0,0.0,0.0,0.0,0.0,0.0,0.0,0.0,0.0,0.0,0.0,0.0,0.0,0.0,0.0,0.0,-1.9193,-2.0399,-2.1806,-2.1824,-2.1707,-2.1511,-2.0988,-1.9722,-1.768,0.0,0.0,0.0,0.0,0.0,0.0,0.0,0.0,0.0,0.0,0.0,0.0,0.0,0.0,0.0,0.0,0.0,0.0,0.0,0.0,0.0,0.0,0.0,0.0,0.0,0.0,0.0,0.0,0.0,0.0,0.0,0.0,0.0,0.0,0.0,0.0,0.0,0.0,-1.0862,-1.2575,0.0,0.0,0.0,0.0,0.0,0.0,0.0,0.0,-1.4325,0.0,0.0,0.0,0.0,0.0,0.0,0.0,0.0,0.0,0.0,0.0,0.0,0.0,0.0,0.0,0.0,0.0,0.0,0.0,0.0,0.0,0.0,0.0,0.0,0.0,0.0,0.0,0.0,0.0,0.0,0.0,0.0,0.0,0.0,0.0,0.0,0.0,0.0,0.0,0.0,0.0,0.0,0.0,0.0,0.0,0.0,0.0,0.0,0.0,0.0,0.0,0.0,0.0,0.0,0.0,0.0,-1.8601,-1.9548,-2.0561,-2.1705,-2.2115,-2.2048,-2.1525,-2.0975,-1.986,-1.8053,0.0,0.0,0.0,0.0,0.0,0.0,0.0,0.0,0.0,0.0,0.0,0.0,0.0,0.0,0.0,0.0,0.0,0.0,0.0,0.0,0.0,0.0,0.0,0.0,0.0,0.0,0.0,0.0,0.0,0.0,0.0,0.0,0.0,0.0,0.0,0.0,0.0,0.0,0.0,-1.4122,-1.4979,0.0,0.0,0.0,0.0,0.0,0.0,0.0,0.0,-1.5296,0.0,0.0,0.0,0.0,0.0,0.0,0.0,0.0,0.0,0.0,0.0,0.0,0.0,0.0,0.0,0.0,0.0,0.0,0.0,0.0,0.0,0.0,0.0,0.0,0.0,0.0,0.0,0.0,0.0,0.0,0.0,0.0,0.0,0.0,0.0,0.0,0.0,0.0,0.0,0.0,0.0,0.0,0.0,0.0,0.0,0.0,0.0,0.0,0.0,0.0,0.0,0.0,0.0,0.0,0.0,-1.87,-1.9874,-2.1007,-2.2115,-2.2598,-2.253,-2.1995,-2.1721,-2.0608,0.0,0.0,0.0,0.0,0.0,0.0,0.0,0.0,0.0,0.0,0.0,0.0,0.0,0.0,0.0,0.0,0.0,0.0,0.0,0.0,0.0,0.0,0.0,0.0,0.0,0.0,0.0,0.0,0.0,0.0,0.0,0.0,0.0,0.0,0.0,0.0,0.0,0.0,0.0,0.0,-1.5152,-1.5844,-1.6175,0.0,0.0,0.0,0.0,0.0,0.0,-1.6162,-1.5772,0.0,0.0,0.0,0.0,0.0,0.0,0.0,0.0,0.0,0.0,0.0,0.0,0.0,0.0,0.0,0.0,0.0,0.0,0.0,0.0,0.0,0.0,0.0,0.0,0.0,0.0,0.0,0.0,0.0,0.0,0.0,0.0,0.0,0.0,0.0,0.0,0.0,0.0,0.0,0.0,0.0,0.0,0.0,0.0,0.0,0.0,0.0,0.0,0.0,0.0,0.0,0.0,0.0,0.0,0.0,-1.8943,-2.0298,-2.1549,-2.2681,-2.3147,-2.3104,-2.2569,-2.2467,-2.1354,0.0,0.0,0.0,0.0,0.0,0.0,0.0,0.0,0.0,0.0,0.0,0.0,0.0,0.0,0.0,0.0,0.0,0.0,0.0,0.0,0.0,0.0,0.0,0.0,0.0,0.0,0.0,0.0,0.0,0.0,0.0,0.0,0.0,0.0,0.0,0.0,0.0,0.0,0.0,0.0,0.0,-1.6512,-1.7107,-1.7206,0.0,0.0,0.0,0.0,-1.7069,-1.6812,0.0,0.0,0.0,0.0,0.0,0.0,0.0,0.0,0.0,0.0,0.0,0.0,0.0,0.0,0.0,0.0,0.0,0.0,0.0,0.0,0.0,0.0,0.0,0.0,0.0,0.0,0.0,0.0,0.0,0.0,0.0,0.0,0.0,0.0,0.0,0.0,0.0,0.0,0.0,0.0,0.0,0.0,0.0,0.0,0.0,0.0,0.0,0.0,0.0,0.0,0.0,0.0,0.0,0.0,0.0,0.0,-1.9797,-2.1018,-2.2102,-2.308,-2.3707,-2.372,-2.3104,-2.2663,-2.1551,0.0,0.0,0.0,0.0,0.0,0.0,0.0,0.0,0.0,0.0,0.0,0.0,0.0,0.0,0.0,0.0,0.0,0.0,0.0,0.0,0.0,0.0,0.0,0.0,0.0,0.0,0.0,0.0,0.0,0.0,0.0,0.0,0.0,0.0,0.0,0.0,0.0,0.0,0.0,0.0,0.0,-1.7136,-1.7507,-1.7998,-1.824,0.0,0.0,-1.87,-1.8659,-1.818,0.0,0.0,0.0,0.0,0.0,0.0,0.0,0.0,0.0,0.0,0.0,0.0,0.0,0.0,0.0,0.0,0.0,0.0,0.0,0.0,0.0,0.0,0.0,0.0,0.0,0.0,0.0,0.0,0.0,0.0,0.0,0.0,0.0,0.0,0.0,0.0,0.0,0.0,0.0,0.0,0.0,0.0,0.0,0.0,0.0,0.0,0.0,0.0,0.0,0.0,0.0,0.0,0.0,0.0,0.0,-1.8078,-1.9975,-2.1378,-2.2428,-2.3169,-2.3812,-2.3809,-2.3237,-2.2689,-2.159,0.0,0.0,0.0,0.0,0.0,0.0,0.0,0.0,0.0,0.0,0.0,0.0,0.0,0.0,0.0,0.0,0.0,0.0,0.0,0.0,0.0,0.0,0.0,0.0,0.0,0.0,0.0,0.0,0.0,0.0,0.0,0.0,0.0,0.0,0.0,0.0,0.0,0.0,0.0,0.0,0.0,0.0,-1.8551,-1.8967,0.0,0.0,0.0,-1.9231,-1.9179,0.0,0.0,0.0,0.0,0.0,0.0,0.0,0.0,0.0,0.0,0.0,0.0,0.0,0.0,0.0,0.0,0.0,0.0,0.0,0.0,0.0,0.0,0.0,0.0,0.0,0.0,0.0,0.0,0.0,0.0,0.0,0.0,0.0,0.0,0.0,0.0,0.0,0.0,0.0,0.0,0.0,0.0,0.0,0.0,0.0,0.0,0.0,0.0,0.0,0.0,0.0,0.0,0.0,0.0,0.0,0.0,0.0,-2.0164,-2.1655,-2.2792,-2.3629,-2.3926,-2.3968,-2.3668,-2.2962,0.0,0.0,0.0,0.0,0.0,0.0,0.0,0.0,0.0,0.0,0.0,0.0,0.0,0.0,0.0,0.0,0.0,0.0,0.0,0.0,0.0,0.0,0.0,0.0,0.0,0.0,0.0,-1.0091,0.0,0.0,0.0,0.0,0.0,0.0,0.0,0.0,0.0,0.0,0.0,0.0,0.0,0.0,-1.8673,-1.9565,-1.9834,-1.9976,0.0,0.0,-1.975,-1.9704,-1.9515,-1.9063,0.0,0.0,0.0,0.0,0.0,0.0,0.0,0.0,0.0,0.0,0.0,0.0,0.0,0.0,0.0,0.0,0.0,0.0,0.0,0.0,0.0,0.0,0.0,0.0,0.0,0.0,0.0,0.0,0.0,0.0,0.0,0.0,0.0,0.0,0.0,0.0,0.0,0.0,0.0,0.0,0.0,0.0,0.0,0.0,0.0,0.0,0.0,0.0,0.0,0.0,0.0,0.0,0.0,0.0,-1.8411,-2.0594,-2.1786,-2.321,-2.4796,-2.436,-2.4347,-2.4848,-2.3746,-2.2609,0.0,0.0,0.0,0.0,0.0,0.0,0.0,0.0,0.0,0.0,0.0,0.0,0.0,0.0,0.0,0.0,0.0,0.0,0.0,0.0,0.0,0.0,0.0,0.0,0.0,0.0,0.0,0.0,0.0,0.0,0.0,0.0,0.0,0.0,0.0,0.0,0.0,0.0,0.0,0.0,0.0,-1.8755,-2.022,-2.0344,-2.0418,0.0,-2.0815,-2.0665,-2.0555,-1.9989,-1.9529,-1.9306,0.0,0.0,0.0,0.0,0.0,0.0,0.0,0.0,0.0,0.0,0.0,0.0,0.0,0.0,0.0,0.0,0.0,0.0,0.0,0.0,0.0,0.0,0.0,0.0,0.0,0.0,0.0,0.0,0.0,0.0,0.0,0.0,0.0,0.0,0.0,0.0,0.0,0.0,0.0,0.0,0.0,0.0,0.0,0.0,0.0,0.0,0.0,0.0,0.0,0.0,0.0,0.0,0.0,-1.9101,-2.1695,-2.2871,-2.4112,-2.5419,-2.5275,-2.5275,-2.5484,-2.436,-2.3365,0.0,0.0,0.0,0.0,0.0,0.0,0.0,0.0,0.0,0.0,0.0,0.0,0.0,0.0,0.0,0.0,0.0,0.0,0.0,0.0,0.0,0.0,0.0,0.0,0.0,0.0,0.0,0.0,-1.2966,-1.3358,-1.3473,0.0,0.0,0.0,0.0,0.0,0.0,0.0,0.0,0.0,0.0,-2.0347,-2.0846,-2.1389,0.0,0.0,-2.1694,-2.1536,-2.1417,-2.09,-2.0386,-1.9964,-1.8959,0.0,0.0,0.0,0.0,0.0,0.0,0.0,0.0,0.0,0.0,0.0,0.0,0.0,0.0,0.0,0.0,0.0,0.0,0.0,0.0,0.0,0.0,0.0,0.0,0.0,0.0,0.0,0.0,0.0,0.0,0.0,0.0,0.0,0.0,0.0,0.0,0.0,0.0,0.0,0.0,0.0,0.0,0.0,0.0,0.0,0.0,0.0,0.0,0.0,0.0,0.0,0.0,-1.9693,-2.2389,-2.3524,-2.4736,-2.6059,-2.5884,-2.5871,-2.6033,-2.5101,-2.424,0.0,0.0,0.0,0.0,0.0,0.0,0.0,0.0,0.0,0.0,0.0,0.0,0.0,0.0,0.0,0.0,0.0,0.0,0.0,0.0,0.0,0.0,0.0,0.0,0.0,0.0,0.0,0.0,-1.3979,-1.4037,-1.3953,0.0,0.0,0.0,0.0,0.0,0.0,0.0,0.0,0.0,0.0,-2.1415,-2.1601,-2.2128,-2.2455,-2.2265,-2.2116,-2.1992,-2.1854,-2.1508,-2.1086,-2.0652,0.0,0.0,0.0,0.0,0.0,0.0,0.0,0.0,0.0,0.0,0.0,0.0,0.0,0.0,0.0,0.0,0.0,0.0,0.0,0.0,0.0,0.0,0.0,0.0,0.0,0.0,0.0,-1.4722,0.0,0.0,-1.3532,0.0,0.0,0.0,0.0,0.0,0.0,0.0,0.0,0.0,0.0,0.0,0.0,0.0,0.0,0.0,0.0,0.0,0.0,0.0,0.0,0.0,0.0,-2.0061,-2.2402,-2.3616,-2.4988,-2.6627,-2.6125,-2.6125,-2.6667,-2.6086,-2.5219,-2.4125,0.0,0.0,0.0,0.0,0.0,0.0,0.0,0.0,0.0,0.0,0.0,0.0,0.0,0.0,0.0,0.0,0.0,0.0,0.0,0.0,0.0,0.0,0.0,0.0,0.0,0.0,-1.4772,-1.5017,-1.4921,0.0,0.0,0.0,0.0,0.0,0.0,0.0,0.0,0.0,-2.0174,-2.0852,-2.1547,-2.2432,-2.2482,-2.2399,-2.2168,-2.2005,-2.1882,-2.1769,-2.1605,-2.1509,0.0,0.0,0.0,0.0,0.0,0.0,0.0,0.0,0.0,0.0,0.0,0.0,0.0,0.0,0.0,0.0,0.0,0.0,0.0,0.0,0.0,0.0,0.0,0.0,0.0,0.0,0.0,-1.7356,-1.6712,0.0,0.0,0.0,0.0,0.0,0.0,0.0,0.0,0.0,0.0,0.0,-2.1327,-2.2074,0.0,0.0,0.0,0.0,0.0,0.0,0.0,0.0,0.0,0.0,0.0,0.0,-2.1773,-2.4076,-2.5602,-2.6857,-2.7805,-2.7648,-2.7615,-2.7831,-2.6928,-2.585,-2.4743,0.0,0.0,0.0,0.0,0.0,0.0,0.0,0.0,0.0,0.0,0.0,0.0,0.0,0.0,0.0,0.0,0.0,0.0,0.0,0.0,0.0,0.0,0.0,0.0,0.0,-1.4623,0.0,0.0,0.0,0.0,0.0,0.0,0.0,0.0,0.0,0.0,0.0,-2.0175,-2.1363,-2.2191,-2.2736,-2.2967,-2.3304,-2.3438,0.0,0.0,0.0,0.0,0.0,0.0,0.0,0.0,0.0,0.0,0.0,0.0,0.0,0.0,-1.9868,-1.8573,-1.8215,-1.8116,-1.8066,0.0,0.0,0.0,0.0,0.0,0.0,0.0,0.0,0.0,0.0,0.0,0.0,0.0,0.0,-2.0049,-1.9388,-1.8644,0.0,0.0,0.0,0.0,0.0,0.0,0.0,0.0,-2.2498,-2.348,-2.3745,-2.4586,-2.4909,0.0,-2.4517,-2.3171,0.0,0.0,0.0,0.0,0.0,0.0,0.0,0.0,-2.3237,-2.5528,-2.6857,-2.7902,-2.866,-2.8699,-2.8721,-2.8708,-2.7792,-2.6817,-2.5921,-2.4709,-2.3328,0.0,0.0,0.0,0.0,0.0,0.0,0.0,0.0,0.0,0.0,0.0,0.0,0.0,0.0,0.0,0.0,0.0,0.0,0.0,0.0,0.0,0.0,0.0,-1.6073,0.0,0.0,0.0,0.0,0.0,0.0,0.0,0.0,0.0,-1.9592,-2.0406,-2.1459,-2.2698,-2.3372,-2.3798,-2.406,0.0,0.0,0.0,0.0,0.0,0.0,0.0,-2.3188,-2.3158,-2.2887,-2.2585,-2.2397,-2.251,-2.2585,-2.2397,0.0,0.0,-2.0729,-2.0431,-2.0471,-2.0372,-2.0261,-2.0125,-1.9963,-2.0185,-2.0338,0.0,0.0,0.0,0.0,-2.3729,0.0,0.0,0.0,-2.3714,-2.3355,0.0,-2.1977,0.0,0.0,0.0,0.0,-2.0224,-2.1548,0.0,0.0,-2.4609,-2.5603,-2.6184,-2.6574,-2.704,-2.7503,-2.7033,-2.6425,-2.5649,-2.2532,0.0,0.0,0.0,0.0,0.0,0.0,-2.4452,-2.6693,-2.7353,-2.8177,-2.9261,-2.9336,-2.9323,-2.9248,-2.8712,-2.8137,-2.7542,-2.6472,-2.5075,-2.3365,-2.1721,0.0,0.0,0.0,0.0,0.0,0.0,0.0,0.0,0.0,0.0,0.0,0.0,0.0,0.0,0.0,0.0,0.0,0.0,0.0,0.0,-1.7996,0.0,0.0,0.0,0.0,0.0,0.0,0.0,0.0,0.0,-2.0313,-2.061,-2.1524,-2.271,-2.4147,0.0,0.0,0.0,0.0,-2.5749,-2.5579,-2.5421,-2.525,-2.5103,-2.4924,-2.4782,-2.4763,0.0,0.0,-2.4104,-2.4443,-2.455,-2.4117,-2.4418,-2.428,-2.2558,-2.2586,-2.2787,-2.258,-2.2396,-2.2428,-2.2362,-2.2052,-2.1932,-2.8936,0.0,0.0,0.0,0.0,-2.6462,-2.6462,-2.6462,-2.6447,-2.6031,-2.5301,-2.4991,0.0,0.0,0.0,0.0,0.0,0.0,-2.4647,-2.5598,-2.6738,-2.7497,-2.796,-2.8528,-2.8781,-2.8778,-2.8608,-2.8263,-2.7628,-2.6648,-2.4874,-2.2269,0.0,0.0,0.0,0.0,-2.6457,-2.7884,-2.8847,-2.9513,-2.9839,-2.9889,-2.968,-2.9323,-2.9153,-2.8948,-2.8778,-2.8046,-2.704,-2.572,-2.4047,0.0,0.0,0.0,0.0,0.0,0.0,0.0,0.0,0.0,0.0,0.0,0.0,0.0,0.0,0.0,0.0,0.0,0.0,0.0,-1.9389,-1.9889,-1.9889,0.0,0.0,0.0,0.0,0.0,0.0,0.0,0.0,0.0,-2.3733,-2.3731,-2.4125,0.0,0.0,-2.5476,-2.5785,-2.578,-2.5762,-2.5604,-2.5554,0.0,-2.5148,-2.5052,-2.4968,-2.482,-2.48,-2.4725,-2.4619,-2.4687,-2.4738,-2.4587,-2.5021,-2.5197,-2.473,-2.4322,-2.405,-2.3813,-2.3672,-2.3405,-2.3055,-2.3037,-2.3075,-3.1734,-2.9864,-2.937,-2.9131,-2.9146,-2.9131,-2.9146,-2.9146,-2.9146,-2.8707,-2.7925,-2.7528,-2.6824,-2.5959,-2.584,0.0,0.0,0.0,-2.7268,-2.7908,-2.8563,-2.9159,-2.9629,-2.9848,-2.9983,-3.0086,-2.999,-2.964,-2.9078,-2.9065,-2.7915,-2.5667,0.0,-2.5393,-2.6353,-2.7033,-2.7962,-2.9052,-2.9771,-3.0205,-3.0427,-3.044,-3.0307,-2.9967,-2.9954,-2.9899,-2.9627,-2.9274,-2.8543,-2.7426,-2.5942,-2.4452,0.0,0.0,0.0,0.0,0.0,0.0,0.0,0.0,0.0,0.0,0.0,-1.4363,-1.5408,0.0,0.0,0.0,-1.9081,-2.0767,-2.1943,-2.2061,0.0,0.0,0.0,0.0,0.0,0.0,0.0,-2.339,-2.3907,-2.4582,-2.5612,-2.5494,-2.5516,-2.6199,-2.6196,-2.6242,-2.6432,0.0,-2.644,-2.6375,-2.6311,-2.6214,-2.6019,-2.5921,-2.579,-2.5593,-2.5506,-2.5473,-2.546,-2.5473,-2.5473,-2.5523,-2.59,-2.6264,-2.6264,-2.6052,-2.5623,-2.5059,-2.4759,-2.4442,-2.3929,-2.3933,-2.3859,-3.3649,-3.3544,-3.2318,-3.1765,-3.166,-3.166,-3.166,-3.166,-3.1645,-3.1215,-3.0492,-2.9729,-2.8917,-2.8045,-2.8081,0.0,-2.7861,-2.9274,-2.9901,-2.9964,-3.0181,-3.0594,-3.1137,-3.0831,-3.0926,-3.1492,-3.1268,-3.0893,-3.0372,-3.0346,-3.0072,-2.9536,-2.8464,-2.8137,-2.8525,-2.8516,-2.9065,-3.014,-3.0166,-3.0427,-3.0973,-3.1024,-3.1024,-3.1011,-3.1024,-3.0738,-3.0192,-3.0166,-2.968,-2.8556,-2.7504,-2.6405,-2.5227,0.0,0.0,0.0,0.0,0.0,0.0,0.0,0.0,0.0,0.0,0.0,0.0,0.0,0.0,-1.9997,-2.1616,0.0,-2.4122,-2.4256,0.0,0.0,0.0,-2.3404,-2.3391,-2.3391,-2.3877,-2.5057,0.0,0.0,-2.6771,-2.6915,-2.6915,-2.6915,-2.6824,-2.6948,-2.749,-2.7575,-2.7581,-2.762,-2.7546,-2.7444,-2.7411,-2.7241,-2.7003,-2.6853,-2.6728,-2.6625,-2.6625,-2.6625,-2.6625,-2.6625,-2.704,-2.7354,-2.7331,-2.749,-2.7396,-2.6241,-2.5857,-2.5563,-2.5051,-2.4786,-2.4507,-3.5026,-3.5011,-3.4665,-3.3932,-3.3051,-3.3021,-3.3036,-3.3021,-3.3021,-3.2764,-3.2372,-3.2149,-3.1651,-3.0979,-3.0835,-3.059,-3.0346,-3.0726,-3.1037,-3.1337,-3.1684,-3.2105,-3.2543,-3.2791,-3.2909,-3.2876,-3.2631,-3.2435,-3.2304,-3.2162,-3.2006,-3.1875,-3.1588,-3.0882,-2.9758,-2.9706,-3.0035,-3.0777,-3.0777,-3.0856,-3.1011,-3.1024,-3.1024,-3.1024,-3.1024,-3.0921,-3.079,-3.0777,-3.0451,-2.9709,-2.9052,-2.8137,-2.6974,-2.5707,0.0,0.0,0.0,0.0,0.0,0.0,0.0,0.0,0.0,-1.8832,-2.057,0.0,-2.1812,0.0,-2.3589,-2.4648,-2.5341,-2.5388,0.0,0.0,-2.5179,-2.5179,-2.5166,-2.5166,-2.561,-2.6791,-2.6922,-2.7353,-2.8564,-2.8695,-2.8682,-2.8682,-2.7876,-2.749,-2.8085,-2.8211,-2.8347,-2.8739,-2.8782,-2.8799,-2.8559,-2.828,-2.8015,-2.8018,-2.7839,-2.772,-2.7708,-2.772,-2.772,-2.772,-2.7808,-2.7896,-2.7908,-2.7741,-2.7484,-2.7152,-2.6944,-2.6637,-2.6054,-2.5892,-2.5617,-3.5489,-3.5489,-3.5489,-3.5085,-3.4397,-3.4397,-3.4397,-3.4397,-3.4382,-3.4029,-3.3416,-3.2964,-3.253,-3.2127,-3.2202,-3.2098,-3.1921,-3.2241,-3.2521,-3.2741,-3.3156,-3.3477,-3.3707,-3.3783,-3.3754,-3.3638,-3.3327,-3.3119,-3.2988,-3.2883,-3.2751,-3.2685,-3.2672,-3.2228,-3.1288,-3.1261,-3.1431,-3.1744,-3.1744,-3.1731,-3.1744,-3.1744,-3.1744,-3.1744,-3.1744,-3.1627,-3.1365,-3.1365,-3.1066,-3.0542,-2.9967,-2.9366,-2.8678,-2.7589,-2.6308,0.0,0.0,0.0,0.0,0.0,0.0,0.0,0.0,0.0,0.0,0.0,-2.3893,-2.4687,-2.5576,-2.6334,-2.6909,-2.7196,-2.7366,-2.7353,-2.7353,-2.7366,-2.7353,-2.7366,-2.7602,-2.8242,-2.8307,-2.8556,-2.9196,-2.931,-2.931,-2.9274,-2.8726,-2.8425,-2.8699,-2.8813,-2.8908,-2.9222,-2.931,-2.9274,-2.9155,-2.8856,-2.8641,-2.8533,-2.8352,-2.8206,-2.8097,-2.8109,-2.8109,-2.8122,-2.831,-2.8436,-2.8362,-2.8312,-2.8183,-2.8069,-2.7928,-2.744,-2.6514,-2.6306,-2.6077,-3.5489,-3.5489,-3.5489,-3.5489,-3.5489,-3.5489,-3.5489,-3.5489,-3.5489,-3.4981,-3.4065,-3.32,-3.2695,-3.2562,-3.2968,-3.31,-3.2996,-3.3718,-3.4091,-3.4097,-3.4538,-3.474,-3.4754,-3.4457,-3.4279,-3.4254,-3.388,-3.3554,-3.3291,-3.3265,-3.3146,-3.2947,-3.2947,-3.2908,-3.2908,-3.2908,-3.2842,-3.2685,-3.2672,-3.2672,-3.2672,-3.2672,-3.2672,-3.2672,-3.2672,-3.2463,-3.1941,-3.1915,-3.1692,-3.1117,-3.062,-3.0257,-3.0087,-2.9157,-2.8098,0.0,-2.6425,0.0,0.0,0.0,0.0,0.0,0.0,0.0,0.0,-2.5463,-2.596,-2.6955,-2.7458,-2.7954,-2.8486,-2.8961,-2.931,-2.9274,-2.931,-2.931,-2.931,-2.931,-2.9336,-2.9379,-2.9405,-2.9392,-2.9523,-2.9532,-2.9532,-2.9598,-2.9585,-2.9545,-2.9497,-2.9444,-2.9431,-2.947,-2.9532,-2.9676,-2.9614,-2.9405,-2.9176,-2.8969,-2.8839,-2.8567,-2.8422,-2.8373,-2.836,-2.8398,-2.875,-2.8938,-2.8761,-2.8915,-2.9003,-2.8758,-2.8573,-2.8044,-2.6928,-2.6611,-2.6236,-3.5489,-3.5489,-3.5489,-3.5489,-3.5489,-3.5489,-3.5489,-3.5489,-3.5489,-3.5219,-3.471,-3.4409,-3.4099,-3.3825,-3.4396,-3.4474,-3.4229,-3.4901,-3.5131,-3.4947,-3.5404,-3.5596,-3.5586,-3.5825,-3.5849,-3.569,-3.5398,-3.5144,-3.4942,-3.463,-3.4426,-3.4398,-3.4166,-3.4071,-3.4071,0.0,0.0,0.0,-3.2672,-3.2672,-3.2672,-3.2672,-3.2672,-3.2672,-3.2672,0.0,-3.2542,-3.2529,-3.2267,-3.168,-3.1536,0.0,0.0,0.0,0.0,0.0,0.0,0.0,0.0,0.0,0.0,0.0,-2.7465,-2.7196,-2.7079,-2.7915,-2.859,-2.8765,-2.8917,-2.9022,-2.9127,-2.9209,-2.931,-2.931,-2.9323,-2.931,-2.931,-2.9323,-2.9444,-2.9892,-2.9944,-3.015,-3.0542,-3.066,-3.0684,-3.0594,-3.066,-3.066,-3.0671,-3.0228,-3.0163,-3.0555,-3.0605,-3.0634,-3.066,-3.0472,-3.0221,-3.0123,-2.9897,-2.9694,-2.9491,-2.9415,-2.9453,-2.9428,-2.9553,-2.9526,-2.9296,-2.9174,-2.904,-2.8831,-2.8657,-2.8331,-2.7702,-2.7575,-2.7347,-3.6178,-3.6447,-3.6447,-3.6447,0.0,-3.6447,-3.6447,-3.6402,-3.5774,-3.5294,-3.4916,-3.5058,-3.5015,-3.477,-3.5286,-3.5432,-3.526,-3.5815,-3.5975,-3.5831,-3.63,-3.6504,-3.6389,-3.6489,-3.6431,-3.6246,-3.6018,-3.5737,-3.5399,-3.5195,-3.5003,-3.4797,-3.4673,-3.4535,-3.4397,-3.4397,-3.411,-3.3535,-3.3535,-3.3535,-3.3535,-3.3535,-3.3535,-3.3535,-3.3535,0.0,0.0,0.0,0.0,0.0,0.0,0.0,0.0,0.0,0.0,-2.934,-2.9248,-2.9,-2.8451,-2.8399,-2.8516,-2.8839,-2.9091,-2.9,-2.8438,-2.8935,-2.931,-2.9323,-2.9536,-2.9693,-2.9719,-2.9941,-3.0124,-3.0124,-3.0124,-3.0124,-3.016,-3.0147,-3.0228,-3.049,-3.0518,-3.0673,-3.0947,-3.1024,-3.1024,-3.1024,-3.1024,-3.1024,-3.1011,-3.0751,-3.0686,-3.0934,-3.1024,-3.1024,-3.0986,-3.0911,-3.0723,-3.0482,-3.033,-3.0152,-2.9869,-2.9779,-2.9779,-2.9779,-2.9779,-2.9663,-2.9326,-2.9157,-2.9013,-2.8736,-2.859,-2.8351,-2.8002,-2.7881,-2.7638,-3.6956,-3.7404,-3.7404,-3.7404,-3.7404,-3.7404,-3.7404,-3.733,-3.6282,0.0,0.0,-3.5698,-3.5775,-3.563,-3.6057,-3.6223,-3.623,-3.6665,-3.6816,-3.6656,-3.71,-3.7226,-3.7056,-3.685,-3.6628,-3.6445,-3.6232,-3.5952,-3.5521,-3.544,-3.5236,-3.4921,-3.4839,-3.4673,-3.4397,-3.4397,-3.4397,-3.4397,-3.4397,-3.4397,-3.4397,-3.4397,-3.4397,-3.4397,-3.4397,-3.4188,-3.3744,-3.3731,-3.3456,-3.2881,-3.2842,-3.2581,-3.2006,-3.1954,-3.1549,-3.0636,-3.0544,-3.0385,-2.9915,-2.9797,-2.9693,-2.9588,-3.0019,-3.0085,-2.965,-2.9588,-2.9575,-2.9575,-3.0006,-3.0257,-3.0257,-3.0699,-3.1024,-3.1024,-3.1024,-3.1011,-3.1011,-3.1024,-3.0934,-3.1024,-3.0998,-3.1024,-3.1024,-3.1024,-3.1024,-3.1024,-3.1024,-3.1024,-3.1024,-3.096,-3.0934,-3.0973,-3.1024,-3.1024,-3.1024,-3.0986,-3.0836,-3.0482,-3.0406,-3.0267,-2.9946,-2.988,-2.993,-2.998,-3.0005,-2.9909,-2.9529,-2.9499,-2.9267,-2.8867,-2.8787,-2.863,-2.8167,-2.8074,-2.7755,-3.7345,-3.7404,-3.7404,-3.7404,-3.7404,-3.7404,-3.7404,-3.7389,-3.721,-3.7063,-3.6857,-3.6753,-3.6623,-3.6476,-3.6903,-3.7011,-3.6893,-3.7474,-3.761,-3.742,-3.7337,-3.7303,-3.7264,-3.7031,-3.685,-3.6668,-3.6445,-3.6246,-3.5992,-3.5575,-3.5358,-3.5277,-3.4962,-3.4673,-3.4397,-3.4397,-3.4397,-3.4397,-3.4397,-3.4397,-3.4397,-3.4397,-3.4397,-3.4397,-3.4397,-3.4371,-3.428,-3.428,-3.4031,-3.3496,-3.347,-3.3195,-3.262,-3.2568,-3.2489,-3.2359,-3.2319,-3.2293,-3.2202,-3.1719,-3.1261,-3.0803,-3.0817,-3.083,-3.0751,-3.0751,-3.0751,-3.0738,-3.0828,-3.0869,-3.0869,-3.0934,-3.1024,-3.1024,-3.1024,-3.1024,-3.1024,-3.1024,-3.1024,-3.1024,-3.1024,-3.1024,-3.1024,-3.1024,-3.1024,-3.1024,-3.1052,-3.1063,-3.1129,-3.1024,-3.1024,-3.1024,-3.1024,-3.1024,-3.1052,-3.1037,-3.094,-3.0482,-3.0483,-3.0394,-3.0007,-3.0244,-3.0482,-3.0495,-3.0796,-3.0885,-3.0552,-3.0556,-3.0281,-2.9861,-2.9737,-2.9487,-2.8757,-2.8551,-2.8121,-3.8237,-3.8482,-3.8512,-3.8497,-3.8461,-3.8497,-3.8461,-3.8497,-3.8512,-3.7988,-3.7268,-3.732,-3.7304,-3.7184,-3.7579,-3.7759,-3.7684,-3.7936,-3.7953,-3.7739,-3.7572,-3.7433,-3.7303,-3.7095,-3.6875,-3.6682,-3.647,-3.6272,-3.6086,-3.5737,-3.5521,-3.5399,-3.5003,-3.4756,-3.4618,-3.4494,-3.4397,-3.4397,-3.4397,-3.4397,-3.4397,-3.4397,-3.4397,-3.4397,-3.4397,-3.4397,-3.4397,-3.4397,-3.428,-3.4045,-3.4031,-3.377,-3.3208,-3.3182,-3.3038,-3.2712,-3.2672,-3.2672,-3.2672,-3.245,-3.2189,-3.1927,-3.1627,-3.1457,-3.1457,-3.1169,-3.1024,-3.1024,-3.1024,-3.1024,-3.1024,-3.1024,-3.1024,-3.1024,-3.1024,-3.1024,-3.1024,-3.1024,-3.1024,-3.1024,-3.1024,-3.1024,-3.1024,-3.1024,-3.1024,-3.1037,-3.1209,-3.1535,-3.1823,-3.1888,-3.1666,-3.1143,-3.1235,-3.1431,-3.1457,-3.1731,-3.172,-3.1408,-3.133,-3.1134,-3.079,-3.0909,-3.0997,-3.1035,-3.126,-3.121,-3.0873,-3.0778,-3.0599,-3.0224,-2.9959,-2.966,-2.9188,-2.8719,-2.7923,-3.9194,-3.9445,-3.9445,-3.9445,-3.9388,-3.9388,-3.9388,-3.9388,-3.9373,-3.877,-3.7823,-3.7982,-3.8009,-3.7901,-3.8148,-3.824,-3.8202,-3.8202,-3.8104,-3.7967,-3.7701,-3.7534,-3.7356,-3.7109,-3.6929,-3.6747,-3.6524,-3.6312,-3.6152,-3.5858,-3.5602,-3.5399,-3.5044,-3.4839,-3.4797,-3.4535,-3.4397,-3.4397,-3.4397,-3.4397,-3.4397,-3.4397,-3.4397,-3.4397,-3.4397,-3.4397,-3.4397,-3.4397,-3.4397,-3.4397,-3.4397,-3.4201,-3.3809,-3.3783,-3.3561,-3.313,-3.3064,-3.3012,-3.2908,-3.2894,-3.2829,-3.2698,-3.228,-3.1993,-3.1967,-3.164,-3.1235,-3.1039,-3.1024,-3.1024,-3.1024,-3.1024,-3.1024,-3.1024,-3.1024,-3.1065,-3.1156,-3.1182,-3.1261,-3.1313,-3.1378,-3.1392,-3.1416,-3.1378,-3.1431,-3.1509,-3.1757,-3.2202,-3.2594,-3.2672,-3.2267,-3.1784,-3.1719,-3.1967,-3.2019,-3.2359,-3.2449,-3.2166,-3.2047,-3.1809,-3.1498,-3.1436,-3.1574,-3.1599,-3.1725,-3.1697,-3.1297,-3.1183,-3.1039,-3.0694,-3.0396,-3.0031,-2.9566,-2.8703,-2.7892,-3.9778,-3.9681,-3.9661,-3.9589,-3.9388,-3.9388,-3.9388,-3.9388,-3.9388,-3.9343,-3.9113,-3.9037,-3.884,-3.8672,-3.8523,-3.8366,-3.8202,-3.8202,-3.8202,-3.8142,-3.7763,-3.7572,-3.7534,-3.7187,-3.6978,-3.6915,-3.6589,-3.6405,-3.6325,-3.5938,-3.5588,-3.5399,-3.5195,-3.4962,-3.481,-3.4535,-3.4397,-3.4397,-3.4397,-3.4397,-3.4397,-3.4397,-3.4397,-3.4397,-3.4397,-3.4397,-3.4397,-3.4397,-3.4397,-3.4397,-3.4397,-3.4371,-3.4319,-3.4319,-3.4293,-3.4214,-3.4214,-3.4045,-3.3574,-3.3496,-3.3287,-3.2751,-3.2672,-3.262,-3.262,-3.2555,-3.2071,-3.1351,-3.1063,-3.1078,-3.1024,-3.1076,-3.1104,-3.1143,-3.1104,-3.1182,-3.1653,-3.1732,-3.1954,-3.2489,-3.2398,-3.2529,-3.2398,-3.2385,-3.2463,-3.245,-3.2529,-3.2685,-3.2842,-3.2868,-3.2842,-3.2607,-3.262,-3.262,-3.2646,-3.2633,-3.2656,-3.2309,-3.2124,-3.1998,-3.1827,-3.1901,-3.2152,-3.219,-3.2491,-3.2559,-3.229,-3.224,-3.1981,-3.1431,-3.1069,-3.0797,-2.9922,-2.8916,-2.8139,-3.998,-3.9717,-3.9717,-3.9589,-3.9424,-3.9388,-3.9388,-3.9388,-3.9388,-3.9388,-3.9388,-3.9316,-3.9104,-3.8797,-3.859,-3.8404,-3.8202,-3.8202,-3.8202,-3.8165,-3.7787,-3.761,-3.7572,-3.7187,-3.6978,-3.694,-3.6575,-3.6405,-3.6325,-3.5924,-3.5669,-3.5548,-3.5249,-3.5031,-3.4962,-3.4605,-3.4397,-3.4397,-3.4397,-3.4397,-3.4397,-3.4397,-3.4397,-3.4397,-3.4397,-3.4397,-3.4397,-3.4397,-3.4397,-3.4397,-3.4397,-3.4397,-3.4397,-3.4397,-3.4397,-3.4397,-3.4397,-3.4306,-3.4097,-3.4071,-3.3953,-3.3705,-3.3404,-3.3221,-3.3208,-3.2908,-3.2476,-3.211,-3.1993,-3.1993,-3.1993,-3.1993,-3.2006,-3.2006,-3.1993,-3.2084,-3.2293,-3.2359,-3.2463,-3.2659,-3.2672,-3.2698,-3.2672,-3.2672,-3.2842,-3.3117,-3.3221,-3.3313,-3.36,-3.3705,-3.3692,-3.3692,-3.3692,-3.3548,-3.3339,-3.3522,-3.3435,-3.3158,-3.3059,-3.288,-3.2546,-3.2528,-3.2729,-3.2704,-3.2819,-3.2754,-3.2426,-3.2257,-3.2038,-3.1717,-3.1362,-3.0878,-3.0165,-2.942,-2.8993,-4.0156,-3.9859,-3.9753,-3.9589,-3.9388,-3.9388,-3.9388,-3.9388,-3.9388,-3.9388,-3.9388,-3.9388,-3.9228,-3.8907,-3.8701,-3.8478,-3.8292,-3.824,-3.8202,-3.8165,-3.7763,-3.761,-3.7534,-3.7187,-3.6978,-3.6915,-3.6589,-3.6351,-3.6178,-3.5884,-3.571,-3.5629,-3.5358,-3.5154,-3.5044,-3.4701,-3.4481,-3.4397,-3.4397,-3.4397,-3.4397,-3.4397,-3.4397,-3.4397,-3.4397,-3.4397,-3.4397,-3.4397,-3.4397,-3.4397,-3.4397,-3.4397,-3.4397,-3.4397,-3.4397,-3.4397,-3.4397,-3.4397,-3.4397,-3.4397,-3.4397,-3.4371,-3.4005,-3.3822,-3.3744,-3.3404,-3.3182,-3.3169,-3.3169,-3.3077,-3.2698,-3.2672,-3.2672,-3.2672,-3.2672,-3.2725,-3.2894,-3.2934,-3.2999,-3.313,-3.326,-3.3156,-3.3169,-3.3221,-3.3391,-3.3731,-3.3822,-3.3914,-3.4293,-3.4358,-3.4358,-3.4397,-3.4384,-3.4228,-3.3914,-3.3962,-3.4121,-3.3852,-3.3606,-3.3382,-3.321,-3.3124,-3.3068,-3.2918,-3.2803,-3.2624,-3.2431,-3.2169,-3.1862,-3.154,-3.1229,-3.0826,-3.0294,-2.9818,-2.9543,-4.0401,-4.0226,-3.9859,-3.9574,-3.9388,-3.9388,-3.9388,-3.9388,-3.9388,-3.9388,-3.9388,-3.9388,-3.9301,-3.9053,-3.887,-3.8686,-3.8478,-3.8277,-3.8202,-3.8165,-3.7801,-3.761,-3.7572,-3.7187,-3.7021,-3.7147,-3.677,-3.6316,-3.5885,-3.5778,-3.571,-3.571,-3.5588,-3.533,-3.5207,-3.4959,-3.4632,-3.4504,-3.4424,-3.4397,-3.4397,-3.4397,-3.4397,-3.4397,-3.4397,-3.4397,-3.4397,-3.4397,-3.4397,-3.4397,-3.4397,-3.4397,-3.4397,-3.4397,-3.4397,-3.4397,-3.4397,-3.4397,-3.4397,-3.4397,-3.4397,-3.4397,-3.4345,-3.4332,-3.428,-3.4214,-3.4162,-3.428,-3.4175,-3.3809,-3.2999,-3.2894,-3.2842,-3.2816,-3.2751,-3.3025,-3.3496,-3.3548,-3.3796,-3.411,-3.4162,-3.4123,-3.4241,-3.4332,-3.4214,-3.428,-3.4332,-3.4345,-3.4358,-3.4397,-3.4397,-3.4397,-3.4397,-3.4384,-3.4358,-3.4233,-3.4008,-3.3768,-3.3556,-3.3356,-3.324,-3.3124,-3.3124,-3.3038,-3.281,-3.2581,-3.2419,-3.2081,-3.1685,-3.1374,-3.1107,-3.0736,-3.0227,-2.9806,-2.9531,-4.0436,-4.0277,-3.9874,-3.9646,-3.9589,-3.9445,-3.9388,-3.9388,-3.9388,-3.9388,-3.9388,-3.9388,-3.9352,-3.925,-3.8943,-3.8686,-3.8478,-3.8277,-3.8202,-3.8165,-3.7763,-3.7786,-3.8118,-3.7766,-3.7807,-3.8118,-3.7755,-3.7291,-3.6877,-3.6835,-3.6835,-3.6835,-3.6639,-3.6416,-3.6138,-3.5595,-3.52,-3.4976,-3.462,-3.4397,-3.441,-3.4397,-3.4397,-3.4397,-3.4397,-3.4397,-3.4397,-3.4397,-3.4397,-3.4397,-3.4397,-3.4397,-3.4397,-3.4397,-3.4397,-3.4397,-3.4397,-3.4397,-3.4397,-3.4397,-3.4397,-3.4397,-3.4397,-3.4397,-3.4397,-3.4397,-3.4397,-3.4397,-3.4397,-3.4149,-3.394,-3.3783,-3.377,-3.3783,-3.3783,-3.3809,-3.4031,-3.411,-3.4201,-3.4345,-3.4397,-3.4397,-3.4397,-3.4397,-3.4397,-3.4397,-3.4397,-3.4397,-3.4397,-3.4397,-3.4397,-3.4397,-3.4397,-3.4356,-3.4202,-3.416,-3.3992,-3.3768,-3.3526,-3.3368,-3.3167,-3.3124,-3.3124,-3.2909,-3.268,-3.2419,-3.2213,-3.1837,-3.1451,-3.1196,-3.0927,-3.0601,-3.0102,-2.9726,-2.9485,-4.0436,-4.0261,-3.9945,-3.9783,-3.9696,-3.9481,-3.9388,-3.9388,-3.9388,-3.9388,-3.9418,-3.9634,-3.9723,-3.971,-3.9528,-3.9393,-3.9176,-3.8766,-3.8638,-3.8774,-3.8404,-3.8439,-3.8703,-3.8416,-3.8426,-3.8764,-3.8422,-3.7949,-3.7528,-3.7499,-3.7499,-3.7485,-3.7371,-3.7131,-3.6737,-3.6234,-3.5835,-3.5529,-3.4986,-3.4685,-3.4672,-3.4502,-3.4397,-3.4397,-3.4397,-3.4397,-3.4397,-3.4397,-3.4397,-3.4397,-3.4397,-3.4397,-3.4397,-3.4397,-3.4397,-3.4397,-3.4397,-3.4397,-3.4397,-3.4397,-3.4397,-3.4397,-3.4397,-3.4397,-3.4397,-3.4397,-3.4397,-3.4397,-3.4397,-3.4397,-3.4397,-3.4384,-3.4397,-3.4397,-3.4397,-3.4397,-3.4397,-3.4397,-3.4384,-3.4384,-3.4397,-3.4397,-3.4397,-3.4397,-3.4397,-3.4397,-3.4397,-3.4397,-3.4397,-3.4397,-3.4397,-3.4397,-3.4397,-3.4314,-3.416,-3.4034,-3.3865,-3.3611,-3.3441,-3.324,-3.3154,-3.3124,-3.2995,-3.2779,-3.2519,-3.2257,-3.1937,-3.1572,-3.1261,-3.1017,-3.0781,-3.0544,-3.0091,-2.9726,-2.9439,-4.042,-4.0261,-4.0101,-3.9889,-3.9696,-3.9481,-3.9403,-3.9499,-3.9463,-3.9538,-3.9738,-4.0142,-4.0412,-4.0442,-4.0491,-4.0707,-4.0518,-3.9731,-3.9509,-3.9847,-3.9524,-3.9382,-3.9456,-3.9106,-3.8917,-3.9017,-3.8491,-3.8032,-3.7704,-3.7689,-3.7675,-3.7594,-3.7662,-3.7459,-3.6884,-3.6841,-3.6558,-3.6079,-3.5574,-3.5299,-3.5234,-3.4816,-3.4541,-3.4476,-3.4476,-3.445,-3.441,-3.4397,-3.4397,-3.4397,-3.4397,-3.4397,-3.4397,-3.4397,-3.4397,-3.4397,-3.4397,-3.4397,-3.4397,-3.4397,-3.4397,-3.4397,-3.4397,-3.4397,-3.4397,-3.4397,-3.4397,-3.4397,-3.4397,-3.4397,-3.4397,-3.4397,-3.4397,-3.4397,-3.4397,-3.4397,-3.4397,-3.4397,-3.4397,-3.4397,-3.4397,-3.4397,-3.4397,-3.4397,-3.4397,-3.4397,-3.4397,-3.4397,-3.4397,-3.4397,-3.4397,-3.4397,-3.4356,-3.4243,-3.4076,-3.3865,-3.3654,-3.3441,-3.3283,-3.3124,-3.3111,-3.3081,-3.2909,-3.2636,-3.2332,-3.2069,-3.1761,-3.1395,-3.1172,-3.0916,-3.0679,-3.0363,-2.9943,-2.9588,-2.9359,-4.047,-4.0401,-4.0137,-3.996,-3.9839,-3.9532,-3.9664,-4.0083,-4.0098,-4.0352,-4.0756,-4.1018,-4.107,-4.1025,-4.0914,-4.1008,-4.1352,-4.0767,-4.0379,-4.0097,-3.9696,-3.9753,-3.9986,-3.9728,-3.955,-3.9631,-3.9515,-3.9214,-3.8809,-3.8722,-3.8762,-3.8749,-3.8722,-3.8485,-3.7963,-3.7643,-3.7197,-3.6703,-3.6149,-3.5861,-3.5848,-3.5665,-3.5391,-3.5064,-3.5012,-3.4842,-3.4424,-3.4397,-3.4397,-3.4397,-3.4397,-3.4397,-3.4397,-3.4397,-3.4397,-3.4397,-3.4397,-3.4397,-3.4397,-3.4397,-3.4397,-3.4397,-3.4397,-3.4397,-3.4397,-3.4397,-3.4397,-3.4397,-3.4397,-3.4397,-3.4397,-3.4397,-3.4397,-3.4397,-3.4397,-3.4397,-3.4397,-3.4397,-3.4397,-3.4397,-3.4397,-3.4397,-3.4397,-3.4397,-3.4397,-3.4397,-3.4397,-3.4397,-3.4397,-3.4397,-3.4397,-3.4397,-3.4285,-3.4182,-3.4007,-3.3952,-3.3814,-3.3553,-3.3348,-3.305,-3.3025,-3.2939,-3.2766,-3.2463,-3.2201,-3.1893,-3.154,-3.1229,-3.1005,-3.0736,-3.0408,-3.0091,-2.9715,-2.9439,-2.922,-4.0489,-4.0455,-4.0137,-4.0163,-4.0324,-3.9944,-4.0157,-4.0711,-4.0771,-4.101,-4.1354,-4.1677,-4.1782,-4.1727,-4.1572,-4.174,-4.2029,-4.1671,-4.1236,-4.0807,-4.04,-4.0424,-4.067,-4.0322,-4.0025,-4.0014,-4.0009,-3.9777,-3.9305,-3.9305,-3.9305,-3.9305,-3.9203,-3.8966,-3.8575,-3.8153,-3.7717,-3.7292,-3.675,-3.6436,-3.6397,-3.6214,-3.594,-3.5639,-3.5587,-3.5299,-3.4789,-3.4737,-3.4633,-3.445,-3.4397,-3.4397,-3.4397,-3.4397,-3.4397,-3.4397,-3.4397,-3.4397,-3.4397,-3.4397,-3.4397,-3.4397,-3.4397,-3.4397,-3.4397,-3.4397,-3.4397,-3.4397,-3.4397,-3.4397,-3.4397,-3.4397,-3.4397,-3.4397,-3.4397,-3.4397,-3.4397,-3.4397,-3.4397,-3.4397,-3.4397,-3.4397,-3.4397,-3.4397,-3.4397,-3.4397,-3.4397,-3.4397,-3.4397,-3.4397,-3.4382,-3.4444,-3.4474,-3.4285,-3.3999,-3.3967,-3.3983,-3.3714,-3.3463,-3.3133,-3.2896,-3.2853,-3.2667,-3.2245,-3.1893,-3.1673,-3.1362,-3.1038,-3.0769,-3.0454,-3.0228,-2.9909,-2.9588,-2.9312,-2.9082,-4.0551,-4.0497,-4.0243,-4.0527,-4.0955,-4.0604,-4.0831,-4.1369,-4.1482,-4.1542,-4.1698,-4.2231,-4.2455,-4.2473,-4.2475,-4.2526,-4.2592,-4.2196,-4.1961,-4.1794,-4.1489,-4.1225,-4.1099,-4.0717,-4.0331,-4.0039,-3.9966,-3.9747,-3.9305,-3.9305,-3.9305,-3.9305,-3.9056,-3.8787,-3.8575,-3.8349,-3.8069,-3.7776,-3.7312,-3.705,-3.7024,-3.658,-3.6227,-3.6175,-3.6149,-3.59,-3.5417,-3.5247,-3.4959,-3.4489,-3.4397,-3.4397,-3.4397,-3.4397,-3.4397,-3.4397,-3.4397,-3.4397,-3.4397,-3.4397,-3.4397,-3.4397,-3.4397,-3.4397,-3.4397,-3.4397,-3.4397,-3.4397,-3.4397,-3.4397,-3.4397,-3.4397,-3.4397,-3.4397,-3.4397,-3.4397,-3.4397,-3.4397,-3.4397,-3.4397,-3.4397,-3.4397,-3.4397,-3.4397,-3.4397,-3.4424,-3.4463,-3.4567,-3.4523,-3.4533,-3.4412,-3.4536,-3.4727,-3.4602,-3.4386,-3.4344,-3.4331,-3.4041,-3.3777,-3.3489,-3.3121,-3.3008,-3.2845,-3.2354,-3.1889,-3.1606,-3.1338,-3.1186,-3.0822,-3.0571,-3.0262,-2.9874,-2.9497,-2.9174,-2.8896,-4.1172,-4.1046,-4.1349,-4.1501,-4.1467,-4.1243,-4.1527,-4.2096,-4.2156,-4.2342,-4.2746,-4.3,-4.303,-4.3011,-4.2786,-4.2688,-4.2622,-4.2284,-4.2092,-4.2009,-4.1606,-4.117,-4.0873,-4.0587,-4.0328,-3.9996,-3.9834,-3.9628,-3.9319,-3.9305,-3.9305,-3.9305,-3.9011,-3.8787,-3.8602,-3.8317,-3.8089,-3.7946,-3.7769,-3.7639,-3.7612,-3.7495,-3.7194,-3.6789,-3.6763,-3.6475,-3.5926,-3.5508,-3.5025,-3.4463,-3.4397,-3.4397,-3.4397,-3.4397,-3.4397,-3.4397,-3.4397,-3.4397,-3.4397,-3.4397,-3.4397,-3.4397,-3.4397,-3.4397,-3.4397,-3.4397,-3.4397,-3.4397,-3.4397,-3.4397,-3.4397,-3.4356,-3.4397,-3.4397,-3.4356,-3.4356,-3.4397,-3.4397,-3.4397,-3.4397,-3.441,-3.445,-3.445,-3.446,-3.446,-3.4512,-3.4747,-3.4966,-3.4877,-3.5025,-3.5059,-3.5005,-3.5085,-3.4978,-3.4895,-3.4792,-3.4638,-3.4362,-3.4197,-3.4115,-3.3773,-3.3543,-3.332,-3.2991,-3.2476,-3.214,-3.1922,-3.1704,-3.1298,-3.0721,-3.0147,-2.97,-2.9322,-2.9,-2.8768,-4.1894,-4.1698,-4.1906,-4.2039,-4.2055,-4.1903,-4.2201,-4.2686,-4.2791,-4.2955,-4.3245,-4.3305,-4.3305,-4.3265,-4.289,-4.2688,-4.2662,-4.2284,-4.2051,-4.1856,-4.1465,-4.1029,-4.0744,-4.0471,-4.0255,-4.0009,-3.9804,-3.954,-3.9363,-3.9305,-3.9305,-3.9216,-3.8935,-3.8711,-3.8602,-3.8239,-3.8011,-3.7946,-3.79,-3.79,-3.79,-3.79,-3.7756,-3.7429,-3.7364,-3.7103,-3.6515,-3.594,-3.5365,-3.4868,-3.4554,-3.4397,-3.4397,-3.4397,-3.4397,-3.4397,-3.4397,-3.4397,-3.4397,-3.4397,-3.4397,-3.4397,-3.4397,-3.4397,-3.4397,-3.4397,-3.4397,-3.4285,-3.4285,-3.423,-3.4147,-3.4092,-3.4092,-3.4092,-3.4105,-3.4189,-3.4369,-3.4397,-3.4397,-3.445,-3.4607,-3.4776,-3.4789,-3.4888,-3.4975,-3.5037,-3.5154,-3.5197,-3.5144,-3.5478,-3.5608,-3.5462,-3.548,-3.5395,-3.5327,-3.5257,-3.5194,-3.4888,-3.4524,-3.4487,-3.4115,-3.3823,-3.3518,-3.3227,-3.2911,-3.2665,-3.2371,-3.2007,-3.1433,-3.0782,-3.0103,-2.968,-2.946,-2.8924,-2.8668,-4.2548,-4.2349,-4.2241,-4.238,-4.2649,-4.2554,-4.2761,-4.32,-4.3245,-4.326,-4.3305,-4.3305,-4.329,-4.3235,-4.285,-4.2688,-4.2648,-4.2284,-4.1939,-4.1619,-4.1226,-4.093,-4.0702,-4.0414,-4.0198,-3.9966,-3.9774,-3.954,-3.9349,-3.9305,-3.9305,-3.9216,-3.8827,-3.8647,-3.8525,-3.8161,-3.7946,-3.79,-3.79,-3.79,-3.79,-3.79,-3.7848,-3.7821,-3.7782,-3.7586,-3.7077,-3.6528,-3.5979,-3.5508,-3.4894,-3.4724,-3.4646,-3.4593,-3.4528,-3.4502,-3.4476,-3.4397,-3.4397,-3.4397,-3.4356,-3.4356,-3.4356,-3.4356,-3.4272,-3.4272,-3.4189,-3.4076,-3.4063,-3.4001,-3.4003,-3.3892,-3.4076,-3.414,-3.405,-3.413,-3.4344,-3.4444,-3.4431,-3.451,-3.5018,-3.524,-3.5379,-3.5522,-3.5714,-3.527,-3.5453,-3.557,-3.5609,-3.5762,-3.5774,-3.5593,-3.5691,-3.5827,-3.5805,-3.5759,-3.5705,-3.5553,-3.5014,-3.4737,-3.4134,-3.38,-3.3515,-3.3267,-3.3267,-3.3028,-3.2637,-3.2174,-3.157,-3.1089,-3.0569,-3.0211,-2.9829,-2.9157,-2.8722,-4.317,-4.2894,-4.3373,-4.3391,-4.3159,-4.312,-4.317,-4.329,-4.3305,-4.3305,-4.3305,-4.3305,-4.3195,-4.3036,-4.2795,-4.2622,-4.2459,-4.2201,-4.1885,-4.1465,-4.1142,-4.0887,-4.0645,-4.0314,-4.0053,-3.9922,-3.9571,-3.9349,-3.9305,-3.9305,-3.9305,-3.923,-3.8872,-3.8615,-3.8525,-3.8161,-3.79,-3.79,-3.79,-3.79,-3.79,-3.79,-3.79,-3.79,-3.79,-3.7848,-3.7639,-3.7142,-3.6776,-3.6528,-3.6096,-3.573,-3.5574,-3.5286,-3.5103,-3.5012,-3.4672,-3.445,-3.4424,-3.446,-3.434,-3.4276,-3.4302,-3.4063,-3.3839,-3.3959,-3.3891,-3.381,-3.381,-3.4063,-3.4323,-3.4758,-3.4817,-3.4817,-3.4855,-3.4937,-3.5082,-3.4804,-3.477,-3.5079,-3.5298,-3.5383,-3.5396,-3.5524,-3.5602,-3.5564,-3.5705,-3.5954,-3.6055,-3.6083,-3.597,-3.5806,-3.5839,-3.5994,-3.5774,-3.5687,-3.557,-3.5476,-3.5126,-3.4823,-3.4234,-3.3947,-3.3719,-3.3668,-3.3781,-3.342,-3.2908,-3.2429,-3.1841,-3.1416,-3.0994,-3.054,-3.0044,-2.9336,-2.8715,-4.3746,-4.3487,-4.3773,-4.366,-4.3344,-4.3305,-4.3305,-4.3305,-4.3305,-4.3305,-4.3305,-4.3305,-4.3195,-4.2981,-4.2795,-4.2581,-4.231,-4.1953,-4.1662,-4.1354,-4.1029,-4.0802,-4.0645,-4.0257,-4.0009,-3.9908,-3.9513,-3.9305,-3.9305,-3.9305,-3.9305,-3.9261,-3.8814,-3.8615,-3.8525,-3.8116,-3.7946,-3.79,-3.79,-3.79,-3.79,-3.79,-3.79,-3.79,-3.79,-3.79,-3.7835,-3.7625,-3.7456,-3.7351,-3.7103,-3.6645,-3.6175,-3.5861,-3.5691,-3.56,-3.543,-3.5135,-3.5106,-3.505,-3.496,-3.4723,-3.4693,-3.4663,-3.452,-3.4477,-3.4446,-3.4403,-3.441,-3.4494,-3.466,-3.4832,-3.5073,-3.5085,-3.5098,-3.5174,-3.5314,-3.5162,-3.5027,-3.5385,-3.5635,-3.5776,-3.5853,-3.5794,-3.5965,-3.6144,-3.6011,-3.6172,-3.621,-3.6269,-3.6191,-3.6075,-3.6103,-3.6036,-3.5798,-3.5584,-3.5223,-3.503,-3.4726,-3.4494,-3.4193,-3.4058,-3.397,-3.388,-3.377,-3.3545,-3.3028,-3.2555,-3.2144,-3.1745,-3.1268,-3.0778,-3.0258,-2.965,-2.8993,-4.4181,-4.3949,-4.3769,-4.3542,-4.3329,-4.3305,-4.3305,-4.3305,-4.3305,-4.3305,-4.3305,-4.3305,-4.3155,-4.2955,-4.2809,-4.2581,-4.2228,-4.1787,-4.1438,-4.1354,-4.0958,-4.0702,-4.053,-4.0227,-3.9966,-3.9922,-3.9526,-3.9305,-3.9305,-3.9305,-3.9247,-3.9172,-3.8827,-3.8557,-3.8421,-3.8161,-3.79,-3.79,-3.79,-3.79,-3.79,-3.79,-3.79,-3.79,-3.79,-3.79,-3.79,-3.7848,-3.7861,-3.79,-3.79,-3.7351,-3.6698,-3.6266,-3.624,-3.6227,-3.604,-3.5778,-3.5634,-3.5636,-3.5517,-3.5398,-3.5315,-3.5258,-3.5175,-3.5054,-3.4997,-3.5009,-3.4945,-3.5014,-3.4851,-3.5123,-3.511,-3.5052,-3.5014,-3.5111,-3.5395,-3.5514,-3.5479,-3.5659,-3.5945,-3.6149,-3.623,-3.6286,-3.6519,-3.6615,-3.6452,-3.637,-3.637,-3.6275,-3.6133,-3.6038,-3.5955,-3.58,-3.556,-3.5223,-3.492,-3.4726,-3.4433,-3.4249,-3.4075,-3.3965,-3.3866,-3.3717,-3.3568,-3.3331,-3.3031,-3.2543,-3.2174,-3.1927,-3.1552,-3.1004,-3.0443,-2.9946,-2.9345,-4.4104,-4.3769,-4.3714,-4.3557,-4.3329,-4.3305,-4.3305,-4.3305,-4.3305,-4.3305,-4.3305,-4.3305,-4.309,-4.2809,-4.2729,-4.2514,-4.2119,-4.1662,-4.141,-4.1326,-4.093,-4.0616,-4.0428,-4.014,-3.9922,-3.973,-3.9452,-3.9305,-3.9305,-3.9305,-3.9203,-3.8966,-3.8724,-3.8498,-3.8272,-3.8011,-3.79,-3.79,-3.79,-3.79,-3.79,-3.79,-3.79,-3.79,-3.79,-3.79,-3.79,-3.79,-3.79,-3.79,-3.79,-3.7769,-3.741,-3.7032,-3.6836,-3.6687,-3.6293,-3.6017,-3.5915,-3.5679,-3.5436,-3.5232,-3.5257,-3.5129,-3.4969,-3.4879,-3.5017,-3.5022,-3.5203,-3.537,-3.537,-3.5599,-3.5994,-3.5997,-3.5806,-3.5715,-3.5754,-3.5727,-3.5697,-3.5927,-3.6209,-3.631,-3.6276,-3.6241,-3.6282,-3.6263,-3.6181,-3.6098,-3.6098,-3.5955,-3.5752,-3.5716,-3.5668,-3.5512,-3.532,-3.4872,-3.4482,-3.4433,-3.42,-3.3965,-3.3828,-3.3779,-3.3679,-3.3419,-3.3281,-3.3042,-3.2729,-3.2403,-3.2128,-3.1779,-3.148,-3.113,-3.0649,-3.0149,-2.9756,-4.3988,-4.3675,-4.3557,-4.3423,-4.3305,-4.3305,-4.3305,-4.3305,-4.3305,-4.3305,-4.3305,-4.329,-4.3076,-4.2769,-4.2688,-4.2459,-4.2078,-4.162,-4.1452,-4.1326,-4.0915,-4.0587,-4.0399,-4.0097,-3.9892,-3.9686,-3.9452,-3.9305,-3.9305,-3.9305,-3.9158,-3.8922,-3.8724,-3.8453,-3.8213,-3.8011,-3.7946,-3.79,-3.79,-3.79,-3.79,-3.79,-3.79,-3.79,-3.79,-3.79,-3.79,-3.79,-3.79,-3.79,-3.79,-3.7808,-3.7658,-3.7423,-3.7215,-3.715,-3.6748,-3.6366,-3.6288,-3.6106,-3.6019,-3.5823,-3.5751,-3.5718,-3.5567,-3.5524,-3.5251,-3.5258,-3.5298,-3.5546,-3.5511,-3.5854,-3.5953,-3.5978,-3.586,-3.5824,-3.5764,-3.5668,-3.5764,-3.5943,-3.5893,-3.5904,-3.5941,-3.5953,-3.5978,-3.5943,-3.586,-3.5812,-3.5824,-3.5668,-3.5476,-3.5332,-3.5235,-3.503,-3.4835,-3.4543,-3.42,-3.4101,-3.3904,-3.3717,-3.3481,-3.3381,-3.317,-3.2958,-3.2818,-3.2729,-3.2454,-3.2128,-3.1874,-3.1669,-3.133,-3.1041,-3.0721,-3.0398,-2.9982,-4.3793,-4.3611,-4.3384,-4.3305,-4.3305,-4.3305,-4.3305,-4.3305,-4.3305,-4.3305,-4.3305,-4.325,-4.305,-4.2729,-4.2581,-4.2351,-4.1995,-4.1564,-4.1396,-4.1213,-4.0873,-4.0587,-4.0284,-4.011,-3.9878,-3.954,-3.9407,-3.9305,-3.9305,-3.9305,-3.91,-3.889,-3.8647,-3.8421,-3.8135,-3.7979,-3.79,-3.79,-3.79,-3.79,-3.79,-3.79,-3.79,-3.79,-3.79,-3.79,-3.79,-3.79,-3.79,-3.79,-3.7808,-3.7703,-3.7505,-3.7413,-3.7353,-3.7294,-3.7108,-3.6909,-3.673,-3.6599,-3.6404,-3.6263,-3.6307,-3.6285,-3.6166,-3.5864,-3.5773,-3.5681,-3.5596,-3.5619,-3.5582,-3.5608,-3.562,-3.562,-3.5572,-3.5524,-3.5464,-3.5416,-3.532,-3.5416,-3.5416,-3.5512,-3.5608,-3.5716,-3.5812,-3.5704,-3.5668,-3.556,-3.5524,-3.538,-3.5175,-3.4932,-3.4738,-3.4494,-3.4347,-3.4211,-3.3965,-3.3866,-3.3618,-3.3331,-3.3131,-3.293,-3.2718,-3.2594,-3.2544,-3.2454,-3.2128,-3.1863,-3.1618,-3.1373,-3.1167,-3.0899,-3.0619,-3.0338,-3.0057,-4.3596,-4.3344,-4.329,-4.3305,-4.3305,-4.3305,-4.3305,-4.3305,-4.3305,-4.3305,-4.329,-4.3115,-4.2915,-4.2662,-4.2325,-4.2022,-4.1758,-4.1522,-4.1297,-4.1071,-4.0816,-4.0487,-4.0097,-4.0053,-3.9747,-3.9482,-3.9349,-3.9305,-3.9305,-3.9305,-3.9096,-3.8737,-3.8602,-3.8376,-3.7979,-3.7946,-3.79,-3.79,-3.79,-3.79,-3.79,-3.79,-3.79,-3.79,-3.79,-3.79,-3.79,-3.79,-3.79,-3.7841,-3.7657,-3.7564,-3.7459,-3.7015,-3.6862,-3.6815,-3.6769,-3.6722,-3.6662,-3.6487,-3.6405,-3.631,-3.6181,-3.6051,-3.5955,-3.5812,-3.562,-3.5633,-3.5585,-3.5524,-3.5524,-3.5572,-3.5572,-3.5476,-3.5271,-3.5235,-3.5175,-3.4981,-3.4932,-3.4884,-3.4932,-3.5175,-3.538,-3.5524,-3.562,-3.5524,-3.5416,-3.5271,-3.5175,-3.4981,-3.4896,-3.4652,-3.4408,-3.4162,-3.3953,-3.3817,-3.3703,-3.3603,-3.3342,-3.2992,-3.2768,-3.2555,-3.2342,-3.2229,-3.219,-3.2139,-3.1874,-3.1629,-3.1384,-3.1127,-3.0858,-3.0651,-3.0443,-3.0224,-3.0047,-4.3423,-4.3305,-4.3305,-4.3305,-4.3305,-4.3305,-4.3305,-4.3305,-4.3305,-4.3305,-4.325,-4.3076,-4.2835,-4.25,-4.2201,-4.1939,-4.1717,-4.1522,-4.1255,-4.1015,-4.0773,-4.043,-4.0097,-3.9966,-3.9747,-3.9394,-3.9305,-3.9305,-3.9305,-3.9261,-3.9083,-3.8647,-3.857,-3.833,-3.7946,-3.79,-3.79,-3.79,-3.79,-3.79,-3.79,-3.79,-3.79,-3.79,-3.79,-3.79,-3.79,-3.79,-3.7795,-3.7703,-3.7564,-3.7353,-3.7108,-3.6815,-3.6662,-3.6534,-3.6546,-3.6546,-3.6487,-3.6323,-3.6228,-3.6086,-3.5908,-3.5716,-3.5572,-3.5416,-3.5271,-3.5126,-3.5126,-3.5126,-3.5126,-3.5175,-3.5066,-3.492,-3.4884,-3.4738,-3.4652,-3.4506,-3.4408,-3.4408,-3.4457,-3.4701,-3.4945,-3.5042,-3.509,-3.4932,-3.4884,-3.4738,-3.4592,-3.4457,-3.4359,-3.4321,-3.4075,-3.3878,-3.3668,-3.353,-3.3361,-3.3211,-3.2987,-3.2724,-3.2454,-3.2229,-3.2132,-3.1856,-3.168,-3.1629,-3.1578,-3.1373,-3.1116,-3.0858,-3.0547,-3.0391,-3.0245,-3.0141,-2.9911,-4.3305,-4.3305,-4.3305,-4.3305,-4.3305,-4.3305,-4.3305,-4.3305,-4.3305,-4.3305,-4.321,-4.3036,-4.2688,-4.2351,-4.2133,-4.1912,-4.1619,-4.148,-4.1213,-4.0944,-4.0688,-4.04,-4.0097,-3.9922,-3.9703,-3.9305,-3.9305,-3.9305,-3.9261,-3.9158,-3.898,-3.8602,-3.8498,-3.8285,-3.8024,-3.79,-3.79,-3.79,-3.79,-3.79,-3.79,-3.79,-3.79,-3.79,-3.79,-3.79,-3.7913,-3.7808,-3.7657,-3.7551,-3.732,-3.7062,-3.6803,-3.6675,-3.6487,-3.6358,-3.6275,-3.6228,-3.6181,-3.6038,-3.5955,-3.5812,-3.5668,-3.5428,-3.5175,-3.5078,-3.4981,-3.4726,-3.464,-3.464,-3.464,-3.464,-3.4592,-3.4445,-3.4347,-3.4249,-3.4162,-3.4162,-3.4162,-3.4211,-3.4211,-3.4162,-3.4408,-3.4506,-3.4506,-3.4396,-3.4298,-3.4272,-3.4172,-3.4132,-3.4152,-3.4161,-3.392,-3.38,-3.3837,-3.3565,-3.3243,-3.3011,-3.2796,-3.265,-3.249,-3.2218,-3.2053,-3.1742,-3.1408,-3.1116,-3.1064,-3.1013,-3.0909,-3.0651,-3.0391,-3.0245,-3.0099,-2.9994,-2.9722,-4.3305,-4.3305,-4.3305,-4.3305,-4.3305,-4.3305,-4.3305,-4.3305,-4.3305,-4.3305,-4.317,-4.289,-4.2541,-4.2216,-4.2092,-4.187,-4.1438,-4.141,-4.1128,-4.0787,-4.0501,-4.0298,-4.0023,-3.9804,-3.9584,-3.9363,-3.9305,-3.9305,-3.9216,-3.9011,-3.8845,-3.8589,-3.8408,-3.8148,-3.7992,-3.79,-3.79,-3.79,-3.79,-3.79,-3.79,-3.79,-3.79,-3.79,-3.79,-3.79,-3.7854,-3.7703,-3.7459,-3.7413,-3.7062,-3.6815,-3.6675,-3.6499,-3.6275,-3.6133,-3.6051,-3.5955,-3.58,-3.5812,-3.58,-3.562,-3.538,-3.5078,-3.4884,-3.4592,-3.4494,-3.4445,-3.4359,-3.4261,-3.4211,-3.4174,-3.4211,-3.4113,-3.4064,-3.4014,-3.3977,-3.3977,-3.3977,-3.4075,-3.4026,-3.3927,-3.3971,-3.4143,-3.4209,-3.4099,-3.4199,-3.4173,-3.4217,-3.4175,-3.4179,-3.4109,-3.3856,-3.3856,-3.4128,-3.3926,-3.3492,-3.3343,-3.3187,-3.2982,-3.2801,-3.2493,-3.2156,-3.1752,-3.1427,-3.1007,-3.0661,-3.063,-3.0527,-3.0401,-3.0245,-3.0088,-2.9837,-2.9669,-2.9353,-4.3305,-4.3305,-4.3305,-4.3305,-4.3305,-4.3305,-4.3305,-4.3305,-4.3305,-4.313,-4.293,-4.2729,-4.2474,-4.2175,-4.2051,-4.1829,-4.1452,-4.141,-4.1086,-4.0744,-4.0457,-4.0255,-4.0023,-3.9774,-3.9554,-3.9363,-3.9305,-3.9305,-3.9261,-3.8935,-3.8724,-3.8544,-3.8317,-3.8103,-3.7979,-3.79,-3.79,-3.79,-3.79,-3.79,-3.79,-3.79,-3.79,-3.79,-3.79,-3.7795,-3.7657,-3.7564,-3.7307,-3.7062,-3.6815,-3.6675,-3.6487,-3.6275,-3.6098,-3.5955,-3.5824,-3.562,-3.5416,-3.5428,-3.5368,-3.5114,-3.4872,-3.4677,-3.4543,-3.4359,-3.4261,-3.4223,-3.4125,-3.4026,-3.4075,-3.4075,-3.4075,-3.3927,-3.3828,-3.3779,-3.3729,-3.3679,-3.363,-3.3568,-3.358,-3.353,-3.3669,-3.3858,-3.3904,-3.3872,-3.3993,-3.4101,-3.4127,-3.4203,-3.4176,-3.4211,-3.3962,-3.3941,-3.4185,-3.4003,-3.3712,-3.3597,-3.3523,-3.3294,-3.3045,-3.2703,-3.2382,-3.1922,-3.1497,-3.1138,-3.079,-3.0444,-3.0255,-3.0214,-3.0099,-2.9984,-2.9722,-2.9353,-2.9036,-4.3305,-4.3305,-4.3305,-4.3305,-4.3305,-4.3305,-4.3305,-4.3305,-4.3305,-4.305,-4.2688,-4.2607,-4.2433,-4.216,-4.1995,-4.1787,-4.1438,-4.1297,-4.1043,-4.0702,-4.0414,-4.0184,-3.998,-3.9716,-3.9452,-3.9305,-3.9305,-3.9305,-3.9261,-3.8814,-3.8647,-3.8512,-3.8272,-3.8011,-3.7933,-3.79,-3.79,-3.79,-3.79,-3.79,-3.79,-3.79,-3.79,-3.79,-3.79,-3.7762,-3.7551,-3.7413,-3.7168,-3.6875,-3.6628,-3.6487,-3.6323,-3.6098,-3.5908,-3.5764,-3.5572,-3.5368,-3.5175,-3.4969,-3.4872,-3.4726,-3.4494,-3.4347,-3.4249,-3.4125,-3.3977,-3.3965,-3.3927,-3.3878,-3.3878,-3.3779,-3.3729,-3.358,-3.358,-3.353,-3.3331,-3.3231,-3.317,-3.3058,-3.3161,-3.3366,-3.3498,-3.3754,-3.3994,-3.3965,-3.3965,-3.4045,-3.4084,-3.4168,-3.4211,-3.4189,-3.4176,-3.4193,-3.422,-3.4138,-3.4042,-3.4021,-3.3825,-3.3486,-3.3193,-3.289,-3.2491,-3.1987,-3.1581,-3.1262,-3.0913,-3.0578,-3.0317,-3.0078,-2.99,-2.9722,-2.9311,-2.8993,-2.8824,-4.3305,-4.3305,-4.3305,-4.3305,-4.3305,-4.3305,-4.3305,-4.329,-4.3305,-4.305,-4.2688,-4.25,-4.231,-4.2092,-4.197,-4.1791,-4.1581,-4.1327,-4.1156,-4.0953,-4.0632,-4.0205,-4.0002,-3.9792,-3.954,-3.9346,-3.9305,-3.9305,-3.9261,-3.8814,-3.8647,-3.8434,-3.8161,-3.7933,-3.79,-3.79,-3.79,-3.79,-3.79,-3.79,-3.79,-3.79,-3.79,-3.79,-3.7854,-3.7716,-3.7459,-3.7201,-3.6968,-3.6687,-3.6534,-3.631,-3.6111,-3.6015,-3.5764,-3.5368,-3.5271,-3.5078,-3.4835,-3.458,-3.4433,-3.4384,-3.4211,-3.4125,-3.4064,-3.3878,-3.3729,-3.3668,-3.353,-3.3381,-3.3331,-3.3331,-3.3331,-3.3269,-3.3231,-3.3181,-3.3031,-3.3101,-3.3033,-3.3062,-3.3146,-3.3268,-3.3436,-3.3638,-3.4024,-3.4144,-3.4027,-3.4042,-3.4207,-3.4311,-3.4426,-3.4397,-3.4379,-3.436,-3.4394,-3.4427,-3.4403,-3.438,-3.4138,-3.3756,-3.3384,-3.3099,-3.2645,-3.2108,-3.1808,-3.1571,-3.116,-3.0688,-3.0292,-2.9835,-2.9637,-2.9406,-2.8993,-2.8674,-2.8568,-4.3305,-4.3305,-4.3305,-4.3305,-4.3305,-4.3305,-4.3305,-4.3305,-4.317,-4.2955,-4.2688,-4.2459,-4.2284,-4.2165,-4.2262,-4.2152,-4.2067,-4.2321,-4.213,-4.1852,-4.1338,-4.1256,-4.0952,-4.0322,-3.9902,-3.978,-3.959,-3.9243,-3.8997,-3.8724,-3.8498,-3.8272,-3.807,-3.7946,-3.79,-3.79,-3.79,-3.79,-3.79,-3.79,-3.79,-3.79,-3.79,-3.7913,-3.7762,-3.7505,-3.7248,-3.7002,-3.6769,-3.6546,-3.6405,-3.6228,-3.5968,-3.5872,-3.5572,-3.5223,-3.5078,-3.4835,-3.4482,-3.4237,-3.4052,-3.4064,-3.3977,-3.3828,-3.3828,-3.3592,-3.3481,-3.3431,-3.3331,-3.3181,-3.3081,-3.3042,-3.298,-3.2807,-3.2757,-3.2757,-3.2724,-3.2999,-3.3128,-3.3263,-3.335,-3.3768,-3.4006,-3.3924,-3.42,-3.4376,-3.4311,-3.4564,-3.4741,-3.4723,-3.4824,-3.4725,-3.4637,-3.4582,-3.4525,-3.4446,-3.43,-3.4155,-3.4089,-3.3901,-3.358,-3.3205,-3.2983,-3.2584,-3.2218,-3.1854,-3.1357,-3.0877,-3.0118,-2.9599,-2.9338,-2.9109,-2.8834,-2.8568,-2.8408,-4.3305,-4.3305,-4.3305,-4.3305,-4.3305,-4.3305,-4.3305,-4.325,-4.305,-4.2795,-4.2692,-4.2623,-4.2578,-4.2558,-4.2695,-4.2797,-4.2652,-4.2672,-4.2751,-4.2525,-4.2032,-4.1754,-4.1448,-4.1019,-4.0613,-4.035,-3.9911,-3.9483,-3.9258,-3.8818,-3.8421,-3.8148,-3.7979,-3.79,-3.79,-3.79,-3.79,-3.79,-3.79,-3.79,-3.79,-3.79,-3.7854,-3.7749,-3.7551,-3.7353,-3.7015,-3.6769,-3.6593,-3.6465,-3.6275,-3.6133,-3.586,-3.562,-3.5368,-3.5078,-3.4835,-3.4543,-3.415,-3.3953,-3.3817,-3.3779,-3.363,-3.358,-3.353,-3.3442,-3.3292,-3.3231,-3.3181,-3.298,-3.2818,-3.2779,-3.2679,-3.2454,-3.2633,-3.2644,-3.2744,-3.3068,-3.3253,-3.3376,-3.3612,-3.409,-3.4436,-3.4438,-3.4384,-3.456,-3.4681,-3.4869,-3.5068,-3.4947,-3.488,-3.4747,-3.4624,-3.4502,-3.439,-3.4345,-3.4142,-3.3974,-3.3861,-3.3749,-3.3512,-3.3103,-3.3084,-3.3012,-3.255,-3.2081,-3.1593,-3.1007,-3.0113,-2.943,-2.8963,-2.8743,-2.8578,-2.8461,-2.8291,-4.3305,-4.3305,-4.3305,-4.3305,-4.3305,-4.3305,-4.3305,-4.3265,-4.2934,-4.2747,-4.2751,-4.2984,-4.3063,-4.3081,-4.3271,-4.3311,-4.3308,-4.2994,-4.2868,-4.2674,-4.2389,-4.2141,-4.187,-4.145,-4.1197,-4.0933,-4.0535,-4.0032,-3.975,-3.8969,-3.8411,-3.8037,-3.7946,-3.79,-3.79,-3.79,-3.79,-3.79,-3.79,-3.79,-3.79,-3.7854,-3.7749,-3.7598,-3.7413,-3.7121,-3.6862,-3.6662,-3.6546,-3.637,-3.6133,-3.5908,-3.562,-3.5368,-3.5066,-3.4775,-3.4531,-3.4162,-3.3878,-3.3729,-3.358,-3.3481,-3.3331,-3.3281,-3.3281,-3.3242,-3.3131,-3.298,-3.288,-3.2706,-3.2555,-3.2516,-3.2488,-3.2576,-3.2833,-3.2875,-3.2908,-3.308,-3.3272,-3.3471,-3.3736,-3.4109,-3.4406,-3.447,-3.4415,-3.4504,-3.4515,-3.4481,-3.4602,-3.4725,-3.4579,-3.4524,-3.4412,-3.4356,-3.4255,-3.4076,-3.3918,-3.3692,-3.3466,-3.3353,-3.3136,-3.2965,-3.2898,-3.2841,-3.2727,-3.2318,-3.1733,-3.0888,-3.0013,-2.9347,-2.8937,-2.8579,-2.8466,-2.8301,-2.8184,-4.3305,-4.3305,-4.3305,-4.3305,-4.3305,-4.3305,-4.3305,-4.331,-4.3364,-4.341,-4.3413,-4.3625,-4.3689,-4.3733,-4.386,-4.3911,-4.3901,-4.3885,-4.3742,-4.3496,-4.3036,-4.2987,-4.2608,-4.2126,-4.1849,-4.1544,-4.1158,-4.0593,-4.0007,-3.9217,-3.8444,-3.8011,-3.7991,-3.7952,-3.7913,-3.79,-3.79,-3.79,-3.79,-3.79,-3.7795,-3.7749,-3.7598,-3.7413,-3.7108,-3.6862,-3.6722,-3.6534,-3.6358,-3.6146,-3.6051,-3.5812,-3.532,-3.5223,-3.503,-3.4531,-3.415,-3.3817,-3.3679,-3.353,-3.3392,-3.3292,-3.3131,-3.3042,-3.2992,-3.298,-3.2869,-3.2718,-3.2617,-3.2465,-3.2341,-3.2334,-3.2387,-3.2624,-3.2878,-3.2994,-3.3109,-3.3407,-3.3627,-3.3737,-3.3999,-3.413,-3.4435,-3.4457,-3.4402,-3.4401,-3.4367,-3.4255,-3.4244,-3.43,-3.43,-3.4244,-3.4132,-3.4076,-3.3907,-3.3738,-3.3568,-3.3353,-3.3182,-3.3069,-3.2898,-3.2784,-3.2727,-3.2612,-3.2555,-3.2194,-3.1692,-3.0909,-3.0123,-2.954,-2.9046,-2.8702,-2.8408,-2.8242,-2.8023,-4.3305,-4.3305,-4.3305,-4.3305,-4.3334,-4.3574,-4.3638,-4.3607,-4.3652,-4.3767,-4.3965,-4.4224,-4.4356,-4.4356,-4.4463,-4.4567,-4.4564,-4.4333,-4.4158,-4.3895,-4.3709,-4.345,-4.3054,-4.2678,-4.2398,-4.2141,-4.1673,-4.1059,-4.0425,-3.9623,-3.8815,-3.8292,-3.8227,-3.8083,-3.7965,-3.79,-3.79,-3.79,-3.79,-3.7841,-3.7703,-3.7551,-3.7459,-3.7155,-3.6803,-3.6722,-3.6546,-3.6358,-3.6146,-3.5968,-3.586,-3.5572,-3.5126,-3.503,-3.464,-3.415,-3.3915,-3.3679,-3.3542,-3.3392,-3.3292,-3.3131,-3.298,-3.2779,-3.2667,-3.2606,-3.2505,-3.2392,-3.2313,-3.2256,-3.2225,-3.2185,-3.2452,-3.2654,-3.2895,-3.3135,-3.3431,-3.3814,-3.3988,-3.4109,-3.4217,-3.4314,-3.4412,-3.4356,-3.4244,-3.4076,-3.3963,-3.3918,-3.3907,-3.3963,-3.3963,-3.3907,-3.3851,-3.3805,-3.3568,-3.3399,-3.3239,-3.3126,-3.2965,-3.2851,-3.2727,-3.2669,-3.2612,-3.2545,-3.243,-3.2023,-3.1546,-3.1061,-3.0413,-2.982,-2.9221,-2.8818,-2.8431,-2.8139,-2.792,-4.3305,-4.3305,-4.3305,-4.3305,-4.3394,-4.3962,-4.4154,-4.4068,-4.3995,-4.4066,-4.444,-4.4778,-4.4966,-4.4935,-4.4948,-4.4935,-4.4812,-4.4555,-4.4223,-4.3988,-4.3709,-4.3471,-4.3211,-4.2991,-4.2724,-4.2519,-4.2145,-4.1488,-4.093,-4.0162,-3.9364,-3.8815,-3.8789,-3.8593,-3.8174,-3.8096,-3.8057,-3.79,-3.7808,-3.7749,-3.7551,-3.74,-3.7214,-3.6815,-3.6675,-3.6593,-3.6358,-3.6181,-3.5955,-3.5764,-3.5572,-3.5284,-3.4981,-3.4592,-3.4162,-3.3866,-3.3679,-3.3542,-3.3392,-3.3292,-3.3142,-3.298,-3.2818,-3.2594,-3.2487,-3.2375,-3.224,-3.2299,-3.2274,-3.2421,-3.2482,-3.252,-3.2731,-3.3005,-3.33,-3.3551,-3.3868,-3.4152,-3.4217,-3.4248,-3.4225,-3.4255,-3.4076,-3.4019,-3.4019,-3.3738,-3.3636,-3.3579,-3.3579,-3.3568,-3.3568,-3.3568,-3.3579,-3.3466,-3.3239,-3.3069,-3.3022,-3.2851,-3.2794,-3.2737,-3.2669,-3.2612,-3.2545,-3.2373,-3.219,-3.1845,-3.1416,-3.0997,-3.0608,-3.0094,-2.9551,-2.8946,-2.8491,-2.8122,-2.7714,-4.3305,-4.3305,-4.3305,-4.3305,-4.3394,-4.4032,-4.437,-4.4512,-4.4973,-4.5052,-4.5098,-4.5403,-4.5515,-4.529,-4.5147,-4.5032,-4.483,-4.4551,-4.4101,-4.3865,-4.36,-4.3375,-4.3067,-4.2935,-4.29,-4.2763,-4.238,-4.1772,-4.1042,-4.0398,-3.9965,-3.9455,-3.9377,-3.9102,-3.8566,-3.8514,-3.8383,-3.8102,-3.7774,-3.7668,-3.7503,-3.7087,-3.6769,-3.6615,-3.6581,-3.6358,-3.6181,-3.6003,-3.5716,-3.5428,-3.532,-3.503,-3.4628,-3.4162,-3.3878,-3.3679,-3.353,-3.3381,-3.3292,-3.3142,-3.2964,-3.2774,-3.2656,-3.253,-3.2387,-3.225,-3.2181,-3.2262,-3.24,-3.2588,-3.2807,-3.2949,-3.3082,-3.3431,-3.3737,-3.401,-3.4228,-3.4281,-3.4345,-3.4311,-3.4199,-3.403,-3.3794,-3.3681,-3.3681,-3.3579,-3.3363,-3.3306,-3.3193,-3.3182,-3.3229,-3.3239,-3.3306,-3.3193,-3.2965,-3.2851,-3.2851,-3.2794,-3.2727,-3.2727,-3.2669,-3.2555,-3.243,-3.219,-3.1903,-3.1614,-3.1334,-3.1063,-3.0711,-3.0245,-2.9742,-2.9119,-2.838,-2.792,-2.7484,-4.3305,-4.3305,-4.3305,-4.3469,-4.3813,-4.4466,-4.4861,-4.5148,-4.5769,-4.583,-4.555,-4.5751,-4.573,-4.5504,-4.5216,-4.5,-4.4797,-4.4504,-4.4101,-4.3757,-4.3566,-4.3293,-4.3067,-4.29,-4.29,-4.2838,-4.2422,-4.183,-4.1061,-4.0874,-4.0553,-4.0069,-3.9926,-3.969,-3.9194,-3.9076,-3.8864,-3.8496,-3.7976,-3.7719,-3.7535,-3.704,-3.6653,-3.6534,-3.6358,-3.6146,-3.5955,-3.5812,-3.5476,-3.5175,-3.4969,-3.4543,-3.42,-3.3878,-3.3679,-3.353,-3.3381,-3.3231,-3.3142,-3.3049,-3.2938,-3.2774,-3.2637,-3.2624,-3.2831,-3.2699,-3.2688,-3.272,-3.2731,-3.2938,-3.3278,-3.342,-3.3672,-3.3988,-3.4075,-3.425,-3.4247,-3.4201,-3.4086,-3.3918,-3.3805,-3.3749,-3.3523,-3.3409,-3.3353,-3.3126,-3.3022,-3.3022,-3.2908,-3.2908,-3.2898,-3.2898,-3.3022,-3.2965,-3.2851,-3.2727,-3.2727,-3.2669,-3.2669,-3.2612,-3.2555,-3.2373,-3.2258,-3.1903,-3.1614,-3.1392,-3.1112,-3.0937,-3.0791,-3.0374,-2.9805,-2.9258,-2.8518,-2.7732,-2.7269,-4.3305,-4.3305,-4.3394,-4.3723,-4.4351,-4.5083,-4.5459,-4.5651,-4.6241,-4.6254,-4.5912,-4.5896,-4.573,-4.5444,-4.5216,-4.4954,-4.4737,-4.4504,-4.4101,-4.3757,-4.3614,-4.3293,-4.3067,-4.29,-4.2838,-4.2631,-4.2275,-4.1845,-4.1256,-4.1154,-4.0958,-4.0592,-4.0409,-4.0252,-3.9886,-3.9594,-3.9394,-3.8942,-3.8457,-3.7977,-3.754,-3.7004,-3.6635,-3.6358,-3.6146,-3.6003,-3.5812,-3.5572,-3.5271,-3.4981,-3.4677,-3.4249,-3.3915,-3.3679,-3.353,-3.3404,-3.3391,-3.3252,-3.3112,-3.3107,-3.3003,-3.2912,-3.2886,-3.2961,-3.3112,-3.3201,-3.319,-3.3267,-3.3235,-3.3322,-3.3672,-3.3923,-3.4185,-3.4293,-3.4325,-3.4267,-3.4177,-3.403,-3.3805,-3.3579,-3.3466,-3.3409,-3.3239,-3.3136,-3.3022,-3.2784,-3.2669,-3.2669,-3.2727,-3.2784,-3.2784,-3.2784,-3.2841,-3.2727,-3.2669,-3.2669,-3.2669,-3.2669,-3.2669,-3.2498,-3.2315,-3.2076,-3.1845,-3.1566,-3.1276,-3.1112,-3.0995,-3.082,-3.0606,-3.0392,-2.9689,-2.9013,-2.839,-2.7688,-2.7013,-4.3305,-4.3334,-4.3898,-4.4212,-4.4485,-4.5394,-4.5763,-4.5681,-4.6079,-4.6135,-4.5925,-4.585,-4.5654,-4.517,-4.5124,-4.4908,-4.4551,-4.4411,-4.4068,-4.3662,-4.3566,-4.3293,-4.3032,-4.2852,-4.2582,-4.2373,-4.2128,-4.1796,-4.1361,-4.1311,-4.1285,-4.1089,-4.1089,-4.0778,-4.0308,-4.0067,-3.9767,-3.9326,-3.8815,-3.8318,-3.7916,-3.7352,-3.6553,-3.631,-3.6133,-3.5908,-3.5668,-3.5368,-3.5126,-3.4787,-3.4528,-3.4143,-3.3892,-3.3677,-3.3588,-3.3552,-3.3537,-3.3487,-3.3361,-3.3305,-3.3249,-3.3309,-3.325,-3.3308,-3.3507,-3.365,-3.3737,-3.3977,-3.3977,-3.3912,-3.4141,-3.4261,-3.4402,-3.4291,-3.4289,-3.4009,-3.3794,-3.3692,-3.3579,-3.3409,-3.325,-3.3069,-3.2898,-3.2841,-3.2841,-3.2669,-3.2669,-3.2669,-3.2669,-3.2669,-3.2669,-3.2669,-3.2669,-3.2669,-3.2669,-3.2669,-3.2669,-3.2669,-3.2612,-3.2315,-3.2028,-3.1672,-3.1441,-3.1218,-3.1112,-3.0937,-3.083,-3.0704,-3.0509,-3.0198,-2.9398,-2.8734,-2.8142,-2.763,-2.6955]},{"header":{"parameterUnit":"m.s-1","parameterCategory":1,"la1":31.0,"la2":29.5877,"lo1":-88.7671,"lo2":-86.6584,"dx":0.0162,"dy":0.0185,"nx":115,"ny":88,"refTime":"2022-11-03T06:00:00:Z","depth":0,"parameterNumber":3,"parameterNumberName":"V-component_of_WINDS"},"data":[0.0,0.0,0.0,0.0,0.0,0.0,0.0,0.0,0.0,0.0,0.0,0.0,0.0,0.0,0.0,0.0,0.0,0.0,0.0,0.0,0.0,0.0,0.0,0.0,0.0,0.0,0.0,0.0,0.0,0.0,0.0,0.0,0.0,0.0,0.0,0.0,0.0,0.0,0.0,0.0,0.0,0.0,0.0,0.0,0.0,0.0,0.0,0.0,0.0,0.0,0.0,0.0,0.0,0.0,0.0,0.0,0.0,0.0,0.0,0.0,0.0,0.0,0.0,0.0,0.0,0.0,0.0,0.0,0.0,0.0,0.0,0.0,0.0,0.0,0.0,0.0,0.0,0.0,0.0,0.0,0.0,0.0,0.0,0.0,0.0,0.0,0.0,0.0,0.0,0.0,0.0,0.0,0.0,0.0,0.0,0.0,0.0,0.0,0.0,0.0,0.0,0.0,0.0,0.0,0.0,0.0,0.0,0.0,0.0,0.0,0.0,0.0,0.0,0.0,0.0,0.0,0.0,0.0,0.0,0.0,0.0,0.0,0.0,0.0,0.0,0.0,0.0,0.0,0.0,0.0,0.0,0.0,0.0,0.0,0.0,0.0,0.0,0.0,0.0,0.0,0.0,0.0,0.0,0.0,0.0,0.0,0.0,0.0,0.0,0.0,0.0,0.0,0.0,0.0,0.0,0.0,0.0,0.0,0.0,0.0,0.0,0.0,0.0,0.0,0.0,0.0,0.0,0.0,0.0,0.0,0.0,0.0,0.0,0.0,0.0,0.0,0.0,0.0,0.0,0.0,0.0,0.0,0.0,0.0,0.0,0.0,0.0,0.0,0.0,0.0,0.0,0.0,0.0,0.0,0.0,0.0,0.0,0.0,0.0,0.0,0.0,0.0,0.0,0.0,0.0,0.0,0.0,0.0,0.0,0.0,0.0,0.0,0.0,0.0,0.0,0.0,0.0,0.0,0.0,0.0,0.0,0.0,0.0,0.0,0.0,0.0,0.0,0.0,0.0,0.0,0.0,0.0,0.0,0.0,0.0,0.0,0.0,0.0,0.0,0.0,0.0,0.0,0.0,0.0,0.0,0.0,0.0,0.0,0.0,0.0,0.0,0.0,0.0,0.0,0.0,0.0,0.0,0.0,0.0,0.0,0.0,0.0,0.0,0.0,0.0,0.0,0.0,0.0,0.0,0.0,0.0,0.0,0.0,0.0,0.0,0.0,0.0,0.0,0.0,0.0,0.0,0.0,0.0,0.0,0.0,0.0,0.0,0.0,0.0,0.0,0.0,0.0,0.0,0.0,0.0,0.0,0.0,0.0,0.0,0.0,0.0,0.0,0.0,0.0,0.0,0.0,0.0,0.0,0.0,0.0,0.0,0.0,0.0,0.0,0.0,0.0,0.0,0.0,0.0,0.0,0.0,0.0,0.0,0.0,0.0,0.0,0.0,0.0,0.0,0.0,0.0,0.0,0.0,0.0,0.0,0.0,0.0,0.0,0.0,0.0,0.0,0.0,0.0,0.0,0.0,0.0,0.0,0.0,0.0,0.0,0.0,0.0,0.0,0.0,0.0,0.0,0.0,0.0,0.0,0.0,0.0,0.0,0.0,0.0,0.0,0.0,0.0,0.0,0.0,0.0,0.0,0.0,0.0,0.0,0.0,0.0,0.0,0.0,0.0,0.0,0.0,0.0,0.0,0.0,0.0,0.0,0.0,0.0,0.0,0.0,0.0,0.0,0.0,0.0,0.0,0.0,0.0,0.0,0.0,0.0,0.0,0.0,0.0,0.0,0.0,0.0,0.0,0.0,0.0,0.0,0.0,0.0,0.0,0.0,0.0,0.0,0.0,0.0,0.0,0.0,0.0,0.0,0.0,0.0,0.0,0.0,0.0,0.0,0.0,0.0,0.0,0.0,0.0,0.0,0.0,0.0,0.0,0.0,0.0,0.0,0.0,0.0,0.0,0.0,0.0,0.0,0.0,0.0,0.0,0.0,0.0,0.0,0.0,0.0,0.0,0.0,0.0,0.0,0.0,0.0,0.0,0.0,0.0,0.0,0.0,0.0,0.0,0.0,0.0,0.0,0.0,0.0,0.0,0.0,0.0,0.0,0.0,0.0,0.0,0.0,0.0,0.0,0.0,0.0,0.0,0.0,0.0,0.0,0.0,0.0,0.0,0.0,0.0,0.0,0.0,0.0,0.0,0.0,0.0,0.0,0.0,0.0,0.0,0.0,0.0,0.0,0.0,0.0,0.0,0.0,0.0,0.0,0.0,0.0,0.0,0.0,0.0,0.0,0.0,0.0,0.0,0.0,0.0,0.0,0.0,0.0,0.0,0.0,0.0,0.0,0.0,0.0,0.0,0.0,0.0,0.0,0.0,0.0,0.0,0.0,0.0,0.0,0.0,0.0,0.0,0.0,0.0,0.0,0.0,0.0,0.0,0.0,0.0,0.0,0.0,0.0,0.0,0.0,0.0,0.0,0.0,0.0,0.0,0.0,0.0,0.0,0.0,0.0,0.0,0.0,0.0,0.0,0.0,0.0,0.0,0.0,0.0,0.0,0.0,0.0,0.0,0.0,0.0,0.0,0.0,0.0,0.0,0.0,0.0,0.0,0.0,0.0,0.0,0.0,0.0,0.0,0.0,0.0,0.0,0.0,0.0,0.0,0.0,0.0,0.0,0.0,0.0,0.0,0.0,0.0,0.0,0.0,0.0,0.0,0.0,0.0,0.0,0.0,0.0,0.0,0.0,0.0,0.0,0.0,0.0,0.0,0.0,0.0,0.0,0.0,0.0,0.0,0.0,0.0,0.0,0.0,0.0,0.0,0.0,0.0,0.0,0.0,0.0,0.0,0.0,0.0,0.0,0.0,0.0,0.0,0.0,0.0,0.0,0.0,0.0,0.0,0.0,0.0,0.0,0.0,0.0,0.0,0.0,0.0,0.0,0.0,0.0,0.0,0.0,0.0,0.0,0.0,0.0,0.0,0.0,0.0,0.0,0.0,0.0,0.0,0.0,0.0,0.0,0.0,0.0,0.0,0.0,0.0,0.0,0.0,0.0,0.0,0.0,0.0,0.0,0.0,0.0,0.0,0.0,0.0,0.0,0.0,0.0,0.0,0.0,0.0,0.0,0.0,0.0,0.0,0.0,0.0,0.0,0.0,0.0,0.0,0.0,0.0,0.0,0.0,0.0,0.0,0.0,0.0,0.0,0.0,0.0,0.0,0.0,0.0,0.0,0.0,0.0,0.0,0.0,0.0,0.0,0.0,0.0,0.0,0.0,0.0,0.0,0.0,0.0,0.0,0.0,0.0,0.0,0.0,0.0,0.0,0.0,0.0,0.0,0.0,0.0,0.0,0.0,0.0,0.0,0.0,0.0,0.0,0.0,0.0,0.0,0.0,0.0,0.0,0.0,0.0,0.0,0.0,0.0,0.0,0.0,0.0,0.0,0.0,0.0,0.0,0.0,0.0,0.0,0.0,0.0,0.0,0.0,0.0,0.0,0.0,0.0,0.0,0.0,0.0,0.0,0.0,0.0,0.0,0.0,0.0,0.0,0.0,0.0,0.0,0.0,0.0,0.0,0.0,0.0,0.0,0.0,0.0,0.0,0.0,0.0,0.0,0.0,0.0,0.0,0.0,0.0,0.0,0.0,0.0,0.0,0.0,0.0,0.0,0.0,0.0,0.0,0.0,0.0,0.0,0.0,0.0,0.0,0.0,0.0,0.0,0.0,0.0,0.0,0.0,0.0,0.0,0.0,0.0,0.0,0.0,0.0,0.0,0.0,0.0,0.0,0.0,0.0,0.0,0.0,0.0,0.0,0.0,0.0,0.0,0.0,0.0,0.0,0.0,0.0,0.0,0.0,0.0,0.0,0.0,0.0,0.0,0.0,0.0,0.0,0.0,0.0,0.0,0.0,0.0,0.0,0.0,0.0,0.0,0.0,0.0,0.0,0.0,0.0,0.0,0.0,0.0,0.0,0.0,0.0,0.0,0.0,0.0,0.0,0.0,0.0,0.0,0.0,0.0,0.0,0.0,0.0,0.0,0.0,0.0,0.0,0.0,0.0,0.0,0.0,0.0,0.0,0.0,0.0,0.0,0.0,0.0,0.0,0.0,0.0,0.0,0.0,0.0,0.0,0.0,0.0,0.0,0.0,0.0,0.0,0.0,0.0,0.0,0.0,0.0,0.0,0.0,0.0,0.0,0.0,0.0,0.0,0.0,0.0,0.0,0.0,0.0,0.0,0.0,0.0,0.0,0.7661,0.0,0.0,0.0,0.7869,0.0,0.0,0.0,0.0,0.0,0.0,0.0,0.0,0.0,0.0,0.0,0.0,0.0,0.0,0.0,0.0,0.0,0.0,0.0,0.0,0.0,0.0,0.0,0.0,0.0,0.0,0.0,0.0,0.0,0.0,0.0,0.0,0.0,0.0,0.0,0.0,0.0,0.0,0.0,0.0,0.0,0.0,0.0,0.0,0.0,0.0,0.0,0.0,0.0,0.0,0.0,0.0,0.0,0.0,0.0,0.0,0.0,0.0,0.0,0.0,0.0,0.0,0.0,0.0,0.0,0.0,0.0,0.0,0.0,0.0,0.0,0.0,0.0,0.0,0.0,0.0,0.0,0.0,0.0,0.0,0.0,0.0,0.0,0.0,0.0,0.0,0.0,0.0,0.0,0.0,0.0,0.0,0.0,0.0,0.0,0.0,0.0,0.0,0.0,0.0,0.0,0.0,0.0,0.0,0.0,0.0,0.0,0.0,0.0,0.0,0.7867,0.8163,0.8034,0.8072,0.8294,0.0,0.0,0.0,0.0,0.0,0.0,0.0,0.0,0.0,0.0,0.0,0.0,0.0,0.0,0.0,0.0,0.0,0.0,0.0,0.0,0.0,0.0,0.0,0.0,0.0,0.0,0.0,0.0,0.0,0.0,0.0,0.0,0.0,0.0,0.0,0.0,0.0,0.0,0.0,0.0,0.0,0.0,0.0,0.0,0.0,0.0,0.0,0.0,0.0,0.0,0.0,0.0,0.0,0.0,0.0,0.0,0.0,0.0,0.0,0.0,0.0,0.0,0.0,0.0,0.0,0.0,0.0,0.0,0.0,0.0,0.0,0.0,0.0,0.0,0.0,0.0,0.0,0.0,0.0,0.0,0.0,0.0,0.0,0.0,0.0,0.0,0.0,0.0,0.0,0.0,0.0,0.0,0.0,0.0,0.0,0.0,0.0,0.0,0.0,0.0,0.0,0.0,0.0,0.0,0.0,0.0,0.0,0.0,0.0,0.0,0.0,0.0,0.8562,0.8571,0.8751,0.0,0.0,0.0,0.0,0.0,0.0,0.0,0.0,0.0,0.0,0.0,0.0,0.0,0.0,0.0,0.0,0.0,0.0,0.0,0.0,0.0,0.0,0.0,0.0,0.0,0.0,0.0,0.0,0.0,0.0,0.0,0.0,0.0,0.0,0.0,0.0,0.0,0.0,0.0,0.0,0.0,0.0,0.0,0.0,0.0,0.0,0.0,0.0,0.0,0.0,0.0,0.0,0.0,0.0,0.0,0.0,0.0,0.0,0.0,0.0,0.0,0.0,0.0,0.0,0.0,0.0,0.0,0.0,0.0,0.0,0.0,0.0,0.0,0.0,0.0,0.0,0.0,0.0,0.0,0.0,0.0,0.0,0.0,0.0,0.0,0.0,0.0,0.0,0.0,0.0,0.0,0.0,0.0,0.0,0.0,0.0,0.0,0.0,0.0,0.0,0.0,0.0,0.0,0.0,0.0,0.0,0.0,0.0,0.0,0.0,0.8973,0.9482,0.9533,0.0,0.9107,0.0,0.0,0.0,0.0,0.0,0.0,0.0,0.0,0.0,0.0,0.0,0.0,0.0,0.0,0.0,0.0,0.0,0.0,0.0,0.0,0.0,0.0,0.0,0.0,0.0,0.0,0.0,0.0,0.0,0.0,0.0,0.0,0.0,0.0,0.0,0.0,0.0,0.0,0.0,0.0,0.0,0.0,0.0,0.0,0.0,0.0,0.0,0.0,0.0,0.0,0.0,0.0,0.0,0.0,0.0,0.0,0.0,0.0,0.0,0.0,0.0,0.0,0.0,0.0,0.0,0.0,0.0,0.0,0.0,0.0,0.0,0.0,0.0,0.0,0.0,0.0,0.0,0.0,0.0,0.0,0.0,0.0,0.0,0.0,0.0,0.0,0.0,0.0,0.0,0.0,0.0,0.0,0.0,0.0,0.0,0.0,0.0,0.0,0.0,0.0,0.0,0.0,0.0,0.0,0.0,0.0,0.0,0.0,0.0,0.0,0.9393,1.0174,1.0417,1.0206,0.0,0.0,0.0,0.0,0.0,0.0,0.0,0.0,0.0,0.0,0.0,0.0,0.0,0.0,0.0,0.0,0.0,0.0,0.0,0.0,0.0,0.0,0.0,0.0,0.0,0.0,0.0,0.0,0.0,0.0,0.0,0.0,0.0,0.0,0.0,0.0,0.0,0.0,0.0,0.0,0.0,0.0,0.0,0.0,0.0,0.0,0.0,0.0,0.0,0.0,0.0,0.0,0.0,0.0,0.0,0.0,0.0,0.0,0.0,0.0,0.0,0.0,0.0,0.0,0.0,0.0,0.0,0.0,0.0,0.0,0.0,0.0,0.0,0.0,0.0,0.0,0.0,0.0,0.0,0.0,0.0,0.0,0.0,0.0,0.0,0.0,0.0,0.0,0.0,0.0,0.0,0.0,0.0,0.0,0.0,0.0,0.0,0.0,0.0,0.0,0.0,0.0,0.0,0.0,0.0,0.0,0.0,0.0,0.0,0.0,0.9535,1.0097,1.09,1.1107,1.0842,0.9996,0.0,0.0,0.0,0.0,0.0,0.0,0.0,0.0,0.0,0.0,0.0,0.0,0.0,0.0,0.0,0.0,0.0,0.0,0.0,0.0,0.0,0.0,0.0,0.0,0.0,0.0,0.0,0.0,0.0,0.0,0.0,0.0,0.0,0.0,0.0,0.0,0.0,0.0,0.0,0.0,0.0,0.0,0.0,0.0,0.0,0.0,0.0,0.0,0.0,0.0,0.0,0.0,0.0,0.0,0.0,0.0,0.0,0.0,0.0,0.0,0.0,0.0,0.0,0.0,0.0,0.0,0.0,0.0,0.0,0.0,0.0,0.0,0.0,0.0,0.0,0.0,0.0,0.0,0.0,0.0,0.0,0.0,0.0,0.0,0.0,0.0,0.0,0.0,0.0,0.0,0.0,0.0,0.0,0.0,0.0,0.0,0.0,0.0,0.0,0.0,0.0,0.0,0.0,0.0,0.0,0.0,0.0,0.0,1.0031,1.0614,1.1212,1.1816,1.1618,1.1234,0.0,0.0,0.0,0.0,0.0,0.0,0.0,0.0,0.0,0.0,0.0,0.0,0.0,0.0,0.0,0.0,0.0,0.0,0.0,0.0,0.0,0.0,0.0,0.0,0.0,0.0,0.0,0.0,0.0,0.0,0.0,0.0,0.0,0.0,0.0,0.0,0.0,0.0,0.0,0.0,0.0,0.0,0.0,0.0,0.0,0.0,0.0,0.0,0.0,0.0,0.0,0.0,0.0,0.0,0.0,0.0,0.0,0.0,0.0,0.0,0.0,0.0,0.0,0.0,0.0,0.0,0.0,0.0,0.0,0.0,0.0,0.0,0.0,0.0,0.0,0.0,0.0,0.0,0.0,0.0,0.0,0.0,0.0,0.0,0.0,0.0,0.0,0.0,0.0,0.0,0.0,0.0,0.0,0.0,0.0,0.0,0.0,0.0,0.0,0.0,0.0,0.0,0.0,0.0,0.0,0.0,0.0,0.0,0.0,1.0372,1.1681,1.2535,1.2768,1.2829,1.2274,0.0,0.0,0.0,0.0,0.0,0.0,0.0,0.0,0.0,0.0,0.0,0.0,0.0,0.0,0.0,0.0,0.0,0.0,0.0,0.0,0.0,0.0,0.0,0.0,0.0,0.0,0.0,0.0,0.0,0.0,0.0,0.0,0.0,0.0,0.0,0.0,0.0,0.0,0.0,0.0,0.0,0.0,0.0,0.0,0.0,0.0,0.0,0.0,0.0,0.0,0.0,0.0,0.0,0.0,0.0,0.0,0.0,0.0,0.0,0.0,0.0,0.0,0.0,0.0,0.0,0.0,0.0,0.0,0.0,0.0,0.0,0.0,0.0,0.0,0.0,0.0,0.0,0.0,0.0,0.0,0.0,0.0,0.0,0.0,0.0,0.0,0.0,0.0,0.0,0.0,0.0,0.0,0.0,0.0,0.0,0.0,0.0,0.0,0.0,0.0,0.0,0.0,0.0,0.0,0.0,0.0,0.0,0.0,0.0,1.1398,1.2857,1.3548,1.3406,1.3568,1.2917,0.0,0.0,0.0,0.0,0.0,0.0,0.0,0.0,0.0,0.0,0.0,0.0,0.0,0.0,0.0,0.0,0.0,0.0,0.0,0.0,0.0,0.0,0.0,0.0,0.0,0.0,0.0,0.0,0.0,0.0,0.0,0.0,0.0,0.0,0.0,0.0,0.0,0.0,0.0,0.0,0.0,0.0,0.0,0.0,0.0,0.0,0.0,0.0,0.0,0.0,0.0,0.0,0.0,0.0,0.0,0.0,0.0,0.0,0.0,0.0,0.0,0.0,0.0,0.0,0.0,0.0,0.0,0.0,0.0,0.0,0.0,0.0,0.0,0.0,0.0,0.0,0.0,0.0,0.0,0.0,0.0,0.0,0.0,0.0,0.0,0.0,0.0,0.0,0.0,0.0,0.0,0.0,0.0,0.0,0.0,0.0,0.0,0.0,0.0,0.0,0.0,0.0,0.0,0.0,0.0,0.0,0.0,0.0,1.1596,1.3228,1.4089,1.4259,1.3673,1.3785,1.3046,0.0,0.0,0.0,0.0,0.0,0.0,0.0,0.0,0.0,0.0,0.0,0.0,0.0,0.0,0.0,0.0,0.0,0.0,0.0,0.0,0.0,0.0,0.0,0.0,0.0,0.0,0.0,0.0,0.0,0.0,0.0,0.0,0.0,0.0,0.0,0.0,0.0,0.0,0.0,0.0,0.0,0.0,0.0,0.0,0.0,0.0,0.0,0.0,0.0,0.0,0.0,0.0,0.0,0.0,0.0,0.0,0.0,0.0,0.0,0.0,0.0,0.0,0.0,0.0,0.0,0.0,0.0,0.0,0.0,0.0,0.0,0.0,0.0,0.0,0.0,0.0,0.0,0.0,0.0,0.0,0.0,0.0,0.0,0.0,0.0,0.0,0.0,0.0,0.0,0.0,0.0,0.0,0.0,0.0,0.0,0.0,0.0,0.0,0.0,0.0,0.0,0.0,0.0,0.0,0.0,0.0,0.0,0.0,0.0,1.4258,1.5054,1.5367,1.5184,1.4916,1.3973,0.0,0.0,0.0,0.0,0.0,0.0,0.0,0.0,0.0,0.0,0.0,0.0,0.0,0.0,0.0,0.0,0.0,0.0,0.0,0.0,0.0,0.0,0.0,0.0,0.0,0.0,0.0,0.0,0.0,0.0,0.0,0.0,0.0,0.0,0.0,0.0,0.0,0.0,0.0,0.0,0.0,0.0,0.0,0.0,0.0,0.0,0.0,0.0,0.0,0.0,0.0,0.0,0.0,0.0,0.0,0.0,0.0,0.0,0.0,0.0,0.0,0.0,0.0,0.0,0.0,0.0,0.0,0.0,0.0,0.0,0.0,0.0,0.0,0.0,0.0,0.0,0.0,0.0,0.0,0.0,0.0,0.0,0.0,0.0,0.0,0.0,0.0,0.0,0.0,0.0,0.0,0.0,0.0,0.0,0.0,0.0,0.0,0.0,0.0,0.0,0.0,0.0,0.0,0.0,0.0,0.0,0.0,0.0,0.0,1.5781,1.6173,1.6386,1.6419,1.5692,1.4601,1.312,0.0,0.0,0.0,0.0,0.0,0.0,0.0,0.0,0.0,0.0,0.0,0.0,0.0,0.0,0.0,0.0,0.0,0.0,0.0,0.0,0.0,0.0,0.0,0.0,0.0,0.0,0.0,0.0,0.0,0.0,0.0,0.0,0.0,0.0,0.0,0.0,0.0,0.0,0.0,0.0,0.0,0.0,0.0,0.0,0.0,0.0,0.0,0.0,0.0,0.0,0.0,0.0,0.0,0.0,0.0,0.0,0.0,0.0,0.0,0.0,0.0,0.0,0.0,0.0,0.0,0.0,0.0,0.0,0.0,0.0,0.0,0.0,0.0,0.0,0.0,0.0,0.0,0.0,0.0,0.0,0.0,0.0,0.0,0.0,0.0,0.0,0.0,0.0,0.0,0.0,0.0,0.0,0.0,0.0,0.0,0.0,0.0,0.0,0.0,0.0,0.0,0.0,0.0,0.0,0.0,0.0,0.0,0.0,1.7699,1.7499,1.7382,1.735,1.6258,1.5034,0.0,0.0,0.0,0.0,0.0,0.0,0.0,0.0,0.0,0.0,0.0,0.0,0.0,0.0,0.0,0.0,0.0,0.0,0.0,0.0,0.0,0.0,0.0,0.0,0.0,0.0,0.0,0.0,0.0,0.0,0.0,0.0,0.0,0.0,0.0,0.0,0.0,0.0,0.0,0.0,0.0,0.0,0.0,0.0,0.0,0.0,0.0,0.0,0.0,0.0,0.0,0.0,0.0,0.0,0.0,0.0,0.0,0.0,0.0,0.0,0.0,0.0,0.0,0.0,0.0,0.0,0.0,0.0,0.0,0.0,0.0,0.0,0.0,0.0,0.0,0.0,0.0,0.0,0.0,0.0,0.0,0.0,0.0,0.0,0.0,0.0,0.0,0.0,0.0,0.0,0.0,0.0,0.0,0.0,0.0,0.0,0.0,0.0,0.0,0.0,0.0,0.0,0.0,0.0,0.0,0.0,0.0,0.0,0.0,1.9109,1.9322,1.9096,1.8415,1.7673,1.6475,0.0,0.0,0.0,0.0,0.0,0.0,0.0,0.0,0.0,0.0,0.0,0.0,0.0,0.0,0.0,0.0,0.0,0.0,0.0,0.0,0.0,0.0,0.0,0.0,0.0,0.0,0.0,0.0,0.0,0.0,0.0,0.0,0.0,0.0,0.0,0.0,0.0,0.0,0.0,0.0,0.0,0.0,0.0,0.0,0.0,0.0,0.0,0.0,0.0,0.0,0.0,0.0,0.0,0.0,0.0,0.0,0.0,0.0,0.0,0.0,0.0,0.0,0.0,0.0,0.0,0.0,0.0,0.0,0.0,0.0,0.0,0.0,0.0,0.0,0.0,0.0,0.0,0.0,0.0,0.0,0.0,0.0,0.0,0.0,0.0,0.0,0.0,0.0,0.0,0.0,0.0,0.0,0.0,0.0,0.0,0.0,0.0,0.0,0.0,0.0,0.0,0.0,0.0,0.0,0.0,0.0,0.0,0.0,1.8911,2.0357,2.0857,2.0756,1.9989,1.8755,1.7452,0.0,0.0,0.0,0.0,0.0,0.0,0.0,0.0,0.0,0.0,0.0,0.0,0.0,0.0,0.0,0.0,0.0,0.0,0.0,0.0,0.0,0.0,0.0,0.0,0.0,0.0,0.0,0.0,0.0,0.0,0.0,0.0,0.0,0.0,0.0,0.0,0.0,0.0,0.0,0.0,0.0,0.0,0.0,0.0,0.0,0.0,0.0,0.0,0.0,0.0,0.0,0.0,0.0,0.0,0.0,0.0,0.0,0.0,0.0,0.0,0.0,0.0,0.0,0.0,0.0,0.0,0.0,0.0,0.0,0.0,0.0,0.0,0.0,0.0,0.0,0.0,0.0,0.0,0.0,0.0,0.0,0.0,0.0,0.0,0.0,0.0,0.0,0.0,0.0,0.0,0.0,0.0,0.0,0.0,0.0,0.0,0.0,0.0,0.0,0.0,0.0,0.0,0.0,0.0,0.0,0.0,0.0,0.0,1.9835,2.1265,2.2045,2.2193,2.169,1.9703,1.8207,0.0,0.0,0.0,0.0,0.0,0.0,0.0,0.0,0.0,0.0,0.0,0.0,0.0,0.0,0.0,0.0,0.0,0.0,0.0,0.0,0.0,0.0,0.0,0.0,0.0,0.0,0.0,0.0,0.0,0.0,0.0,0.0,0.0,0.0,0.0,0.0,0.0,0.0,0.0,0.0,0.0,0.0,0.0,0.0,0.0,0.0,0.0,0.0,0.0,0.0,0.0,0.0,0.0,0.0,0.0,0.0,0.0,0.0,0.0,0.0,0.0,0.0,0.0,0.0,0.0,0.0,0.0,0.0,0.0,0.0,0.0,0.0,0.0,0.0,0.0,0.0,0.0,0.0,0.0,0.0,0.0,0.0,0.0,0.0,0.0,0.0,0.0,0.0,0.0,0.0,0.0,0.0,0.0,0.0,0.0,0.0,0.0,0.0,0.0,0.0,0.0,0.0,0.0,0.0,0.0,0.0,0.0,0.0,2.0382,2.1302,2.2224,2.2632,2.2378,2.0984,1.9401,0.0,0.0,0.0,0.0,0.0,0.0,0.0,0.0,0.0,0.0,0.0,0.0,0.0,0.0,0.0,0.0,0.0,0.0,0.0,0.0,0.0,0.0,0.0,0.0,0.0,0.0,0.0,0.0,0.0,0.0,0.0,0.0,0.0,0.0,0.0,0.0,0.0,0.0,0.0,0.0,0.0,0.0,0.0,0.0,0.0,0.0,0.0,0.0,1.1986,0.0,0.0,0.0,0.0,0.0,0.0,0.0,0.0,0.0,0.0,0.0,0.0,0.0,0.0,0.0,0.0,0.0,0.0,0.0,0.0,0.0,0.0,0.0,0.0,0.0,0.0,0.0,0.0,0.0,0.0,0.0,0.0,0.0,0.0,0.0,0.0,0.0,0.0,0.0,0.0,0.0,0.0,0.0,0.0,0.0,0.0,0.0,0.0,0.0,0.0,0.0,0.0,0.0,0.0,0.0,0.0,0.0,0.0,0.0,2.0964,2.2294,2.291,2.3236,2.3169,2.224,2.0638,0.0,0.0,0.0,0.0,0.0,0.0,0.0,0.0,0.0,0.0,0.0,0.0,0.0,0.0,0.0,0.0,0.0,0.0,0.0,0.0,0.0,0.0,0.0,0.0,0.0,0.0,0.0,0.0,0.0,0.0,0.0,0.0,0.0,0.0,0.0,0.0,0.0,0.0,0.0,0.0,0.0,0.0,0.0,0.0,0.0,0.0,0.0,0.0,0.0,0.0,0.0,0.0,0.0,0.0,0.0,0.0,0.0,0.0,0.0,0.0,0.0,0.0,0.0,0.0,0.0,0.0,0.0,0.0,0.0,0.0,0.0,0.0,0.0,0.0,0.0,0.0,0.0,0.0,0.0,0.0,0.0,0.0,0.0,0.0,0.0,0.0,0.0,0.0,0.0,0.0,0.0,0.0,0.0,0.0,0.0,0.0,0.0,0.0,0.0,0.0,0.0,0.0,0.0,0.0,0.0,0.0,0.0,1.9831,2.1543,2.3436,2.3765,2.3898,2.3891,2.3258,2.1665,1.9085,0.0,0.0,0.0,0.0,0.0,0.0,0.0,0.0,0.0,0.0,0.0,0.0,0.0,0.0,0.0,0.0,0.0,0.0,0.0,0.0,0.0,0.0,0.0,0.0,0.0,0.0,0.0,0.0,0.0,0.0,0.0,0.0,0.0,0.0,0.0,0.0,0.0,0.0,0.9652,1.1224,0.0,0.0,0.0,0.0,0.0,0.0,0.0,0.0,1.3534,0.0,0.0,0.0,0.0,0.0,0.0,0.0,0.0,0.0,0.0,0.0,0.0,0.0,0.0,0.0,0.0,0.0,0.0,0.0,0.0,0.0,0.0,0.0,0.0,0.0,0.0,0.0,0.0,0.0,0.0,0.0,0.0,0.0,0.0,0.0,0.0,0.0,0.0,0.0,0.0,0.0,0.0,0.0,0.0,0.0,0.0,0.0,0.0,0.0,0.0,0.0,0.0,0.0,0.0,0.0,0.0,1.9262,2.0734,2.2194,2.3635,2.4346,2.4433,2.3905,2.3244,2.1961,1.9962,0.0,0.0,0.0,0.0,0.0,0.0,0.0,0.0,0.0,0.0,0.0,0.0,0.0,0.0,0.0,0.0,0.0,0.0,0.0,0.0,0.0,0.0,0.0,0.0,0.0,0.0,0.0,0.0,0.0,0.0,0.0,0.0,0.0,0.0,0.0,0.0,0.0,0.0,0.0,1.2688,1.3517,0.0,0.0,0.0,0.0,0.0,0.0,0.0,0.0,1.461,0.0,0.0,0.0,0.0,0.0,0.0,0.0,0.0,0.0,0.0,0.0,0.0,0.0,0.0,0.0,0.0,0.0,0.0,0.0,0.0,0.0,0.0,0.0,0.0,0.0,0.0,0.0,0.0,0.0,0.0,0.0,0.0,0.0,0.0,0.0,0.0,0.0,0.0,0.0,0.0,0.0,0.0,0.0,0.0,0.0,0.0,0.0,0.0,0.0,0.0,0.0,0.0,0.0,0.0,0.0,1.9492,2.1312,2.2925,2.4187,2.4988,2.5077,2.4428,2.407,2.2838,0.0,0.0,0.0,0.0,0.0,0.0,0.0,0.0,0.0,0.0,0.0,0.0,0.0,0.0,0.0,0.0,0.0,0.0,0.0,0.0,0.0,0.0,0.0,0.0,0.0,0.0,0.0,0.0,0.0,0.0,0.0,0.0,0.0,0.0,0.0,0.0,0.0,0.0,0.0,0.0,1.3733,1.4423,1.4756,0.0,0.0,0.0,0.0,0.0,0.0,1.571,1.5466,0.0,0.0,0.0,0.0,0.0,0.0,0.0,0.0,0.0,0.0,0.0,0.0,0.0,0.0,0.0,0.0,0.0,0.0,0.0,0.0,0.0,0.0,0.0,0.0,0.0,0.0,0.0,0.0,0.0,0.0,0.0,0.0,0.0,0.0,0.0,0.0,0.0,0.0,0.0,0.0,0.0,0.0,0.0,0.0,0.0,0.0,0.0,0.0,0.0,0.0,0.0,0.0,0.0,0.0,0.0,1.9962,2.1958,2.362,2.4861,2.5651,2.5716,2.512,2.4897,2.3664,0.0,0.0,0.0,0.0,0.0,0.0,0.0,0.0,0.0,0.0,0.0,0.0,0.0,0.0,0.0,0.0,0.0,0.0,0.0,0.0,0.0,0.0,0.0,0.0,0.0,0.0,0.0,0.0,0.0,0.0,0.0,0.0,0.0,0.0,0.0,0.0,0.0,0.0,0.0,0.0,0.0,1.5197,1.5848,1.6115,0.0,0.0,0.0,0.0,1.6737,1.6775,0.0,0.0,0.0,0.0,0.0,0.0,0.0,0.0,0.0,0.0,0.0,0.0,0.0,0.0,0.0,0.0,0.0,0.0,0.0,0.0,0.0,0.0,0.0,0.0,0.0,0.0,0.0,0.0,0.0,0.0,0.0,0.0,0.0,0.0,0.0,0.0,0.0,0.0,0.0,0.0,0.0,0.0,0.0,0.0,0.0,0.0,0.0,0.0,0.0,0.0,0.0,0.0,0.0,0.0,0.0,0.0,2.1463,2.2887,2.4279,2.5633,2.6329,2.6344,2.5716,2.5114,2.3882,0.0,0.0,0.0,0.0,0.0,0.0,0.0,0.0,0.0,0.0,0.0,0.0,0.0,0.0,0.0,0.0,0.0,0.0,0.0,0.0,0.0,0.0,0.0,0.0,0.0,0.0,0.0,0.0,0.0,0.0,0.0,0.0,0.0,0.0,0.0,0.0,0.0,0.0,0.0,0.0,0.0,1.5875,1.665,1.7267,1.7691,0.0,0.0,1.8782,1.8905,1.85,0.0,0.0,0.0,0.0,0.0,0.0,0.0,0.0,0.0,0.0,0.0,0.0,0.0,0.0,0.0,0.0,0.0,0.0,0.0,0.0,0.0,0.0,0.0,0.0,0.0,0.0,0.0,0.0,0.0,0.0,0.0,0.0,0.0,0.0,0.0,0.0,0.0,0.0,0.0,0.0,0.0,0.0,0.0,0.0,0.0,0.0,0.0,0.0,0.0,0.0,0.0,0.0,0.0,0.0,0.0,1.9514,2.1751,2.3484,2.48,2.5789,2.6445,2.65,2.5807,2.5143,2.3925,0.0,0.0,0.0,0.0,0.0,0.0,0.0,0.0,0.0,0.0,0.0,0.0,0.0,0.0,0.0,0.0,0.0,0.0,0.0,0.0,0.0,0.0,0.0,0.0,0.0,0.0,0.0,0.0,0.0,0.0,0.0,0.0,0.0,0.0,0.0,0.0,0.0,0.0,0.0,0.0,0.0,0.0,1.7875,1.868,0.0,0.0,0.0,1.9957,2.0034,0.0,0.0,0.0,0.0,0.0,0.0,0.0,0.0,0.0,0.0,0.0,0.0,0.0,0.0,0.0,0.0,0.0,0.0,0.0,0.0,0.0,0.0,0.0,0.0,0.0,0.0,0.0,0.0,0.0,0.0,0.0,0.0,0.0,0.0,0.0,0.0,0.0,0.0,0.0,0.0,0.0,0.0,0.0,0.0,0.0,0.0,0.0,0.0,0.0,0.0,0.0,0.0,0.0,0.0,0.0,0.0,0.0,2.2054,2.3893,2.5313,2.6242,2.6631,2.662,2.6286,2.5502,0.0,0.0,0.0,0.0,0.0,0.0,0.0,0.0,0.0,0.0,0.0,0.0,0.0,0.0,0.0,0.0,0.0,0.0,0.0,0.0,0.0,0.0,0.0,0.0,0.0,0.0,0.0,0.9766,0.0,0.0,0.0,0.0,0.0,0.0,0.0,0.0,0.0,0.0,0.0,0.0,0.0,0.0,1.831,1.9269,2.0051,2.0595,0.0,0.0,2.1133,2.1176,2.1112,2.0758,0.0,0.0,0.0,0.0,0.0,0.0,0.0,0.0,0.0,0.0,0.0,0.0,0.0,0.0,0.0,0.0,0.0,0.0,0.0,0.0,0.0,0.0,0.0,0.0,0.0,0.0,0.0,0.0,0.0,0.0,0.0,0.0,0.0,0.0,0.0,0.0,0.0,0.0,0.0,0.0,0.0,0.0,0.0,0.0,0.0,0.0,0.0,0.0,0.0,0.0,0.0,0.0,0.0,0.0,2.0269,2.2772,2.4196,2.5778,2.7478,2.7055,2.7041,2.7536,2.6373,2.511,0.0,0.0,0.0,0.0,0.0,0.0,0.0,0.0,0.0,0.0,0.0,0.0,0.0,0.0,0.0,0.0,0.0,0.0,0.0,0.0,0.0,0.0,0.0,0.0,0.0,0.0,0.0,0.0,0.0,0.0,0.0,0.0,0.0,0.0,0.0,0.0,0.0,0.0,0.0,0.0,0.0,1.8837,2.0848,2.1298,2.1658,0.0,2.2517,2.2602,2.2728,2.2396,2.2074,2.2062,0.0,0.0,0.0,0.0,0.0,0.0,0.0,0.0,0.0,0.0,0.0,0.0,0.0,0.0,0.0,0.0,0.0,0.0,0.0,0.0,0.0,0.0,0.0,0.0,0.0,0.0,0.0,0.0,0.0,0.0,0.0,0.0,0.0,0.0,0.0,0.0,0.0,0.0,0.0,0.0,0.0,0.0,0.0,0.0,0.0,0.0,0.0,0.0,0.0,0.0,0.0,0.0,0.0,2.1121,2.4041,2.54,2.6779,2.8231,2.8071,2.8071,2.8303,2.7055,2.6006,0.0,0.0,0.0,0.0,0.0,0.0,0.0,0.0,0.0,0.0,0.0,0.0,0.0,0.0,0.0,0.0,0.0,0.0,0.0,0.0,0.0,0.0,0.0,0.0,0.0,0.0,0.0,0.0,1.308,1.3213,1.304,0.0,0.0,0.0,0.0,0.0,0.0,0.0,0.0,0.0,0.0,2.1024,2.1872,2.2837,0.0,0.0,2.4094,2.4236,2.4367,2.3885,2.3349,2.2966,2.2052,0.0,0.0,0.0,0.0,0.0,0.0,0.0,0.0,0.0,0.0,0.0,0.0,0.0,0.0,0.0,0.0,0.0,0.0,0.0,0.0,0.0,0.0,0.0,0.0,0.0,0.0,0.0,0.0,0.0,0.0,0.0,0.0,0.0,0.0,0.0,0.0,0.0,0.0,0.0,0.0,0.0,0.0,0.0,0.0,0.0,0.0,0.0,0.0,0.0,0.0,0.0,0.0,2.1823,2.4757,2.6126,2.7532,2.8942,2.8811,2.8796,2.8913,2.7939,2.698,0.0,0.0,0.0,0.0,0.0,0.0,0.0,0.0,0.0,0.0,0.0,0.0,0.0,0.0,0.0,0.0,0.0,0.0,0.0,0.0,0.0,0.0,0.0,0.0,0.0,0.0,0.0,0.0,1.4412,1.4191,1.3862,0.0,0.0,0.0,0.0,0.0,0.0,0.0,0.0,0.0,0.0,2.2517,2.3013,2.4043,2.4775,2.4946,2.5053,2.5188,2.5307,2.4961,2.4525,2.4074,0.0,0.0,0.0,0.0,0.0,0.0,0.0,0.0,0.0,0.0,0.0,0.0,0.0,0.0,0.0,0.0,0.0,0.0,0.0,0.0,0.0,0.0,0.0,0.0,0.0,0.0,0.0,1.2354,0.0,0.0,1.1763,0.0,0.0,0.0,0.0,0.0,0.0,0.0,0.0,0.0,0.0,0.0,0.0,0.0,0.0,0.0,0.0,0.0,0.0,0.0,0.0,0.0,0.0,2.228,2.4771,2.6228,2.7752,2.9508,2.9015,2.9015,2.9552,2.8971,2.807,2.6794,0.0,0.0,0.0,0.0,0.0,0.0,0.0,0.0,0.0,0.0,0.0,0.0,0.0,0.0,0.0,0.0,0.0,0.0,0.0,0.0,0.0,0.0,0.0,0.0,0.0,0.0,1.5841,1.5825,1.5485,0.0,0.0,0.0,0.0,0.0,0.0,0.0,0.0,0.0,2.1028,2.1974,2.2956,2.4427,2.4751,2.4931,2.5111,2.5202,2.5283,2.5432,2.5521,2.5576,0.0,0.0,0.0,0.0,0.0,0.0,0.0,0.0,0.0,0.0,0.0,0.0,0.0,0.0,0.0,0.0,0.0,0.0,0.0,0.0,0.0,0.0,0.0,0.0,0.0,0.0,0.0,1.4563,1.4054,0.0,0.0,0.0,0.0,0.0,0.0,0.0,0.0,0.0,0.0,0.0,2.3531,2.4409,0.0,0.0,0.0,0.0,0.0,0.0,0.0,0.0,0.0,0.0,0.0,0.0,2.4181,2.668,2.8434,2.9827,3.0813,3.0639,3.0669,3.0842,2.9842,2.871,2.742,0.0,0.0,0.0,0.0,0.0,0.0,0.0,0.0,0.0,0.0,0.0,0.0,0.0,0.0,0.0,0.0,0.0,0.0,0.0,0.0,0.0,0.0,0.0,0.0,0.0,1.5819,0.0,0.0,0.0,0.0,0.0,0.0,0.0,0.0,0.0,0.0,0.0,2.0892,2.2512,2.3745,2.4757,2.534,2.5825,2.6203,0.0,0.0,0.0,0.0,0.0,0.0,0.0,0.0,0.0,0.0,0.0,0.0,0.0,0.0,2.3995,2.2834,2.2696,2.2775,2.2815,0.0,0.0,0.0,0.0,0.0,0.0,0.0,0.0,0.0,0.0,0.0,0.0,0.0,0.0,1.6823,1.6304,1.5853,0.0,0.0,0.0,0.0,0.0,0.0,0.0,0.0,2.4552,2.585,2.6084,2.7246,2.7665,0.0,2.7229,2.5734,0.0,0.0,0.0,0.0,0.0,0.0,0.0,0.0,2.5807,2.829,2.9827,3.0988,3.183,3.1874,3.1828,3.1814,3.0799,2.9784,2.8725,2.7503,2.5908,0.0,0.0,0.0,0.0,0.0,0.0,0.0,0.0,0.0,0.0,0.0,0.0,0.0,0.0,0.0,0.0,0.0,0.0,0.0,0.0,0.0,0.0,0.0,1.7617,0.0,0.0,0.0,0.0,0.0,0.0,0.0,0.0,0.0,1.985,2.1131,2.2663,2.4287,2.534,2.6142,2.6721,0.0,0.0,0.0,0.0,0.0,0.0,0.0,2.7634,2.766,2.7275,2.6916,2.6692,2.6826,2.6916,2.6692,0.0,0.0,2.5259,2.5174,2.5393,2.5497,2.5586,2.5817,2.6312,2.7341,2.8316,0.0,0.0,0.0,0.0,1.9911,0.0,0.0,0.0,1.9899,1.9597,0.0,1.8687,0.0,0.0,0.0,0.0,2.0268,2.2362,0.0,0.0,2.6564,2.7879,2.8512,2.932,3.0031,3.0612,2.9958,2.9348,2.8549,2.4969,0.0,0.0,0.0,0.0,0.0,0.0,2.7157,2.9581,3.0379,3.1293,3.2498,3.251,3.2495,3.2483,3.1888,3.125,3.0656,2.9464,2.791,2.6006,2.407,0.0,0.0,0.0,0.0,0.0,0.0,0.0,0.0,0.0,0.0,0.0,0.0,0.0,0.0,0.0,0.0,0.0,0.0,0.0,0.0,1.9986,0.0,0.0,0.0,0.0,0.0,0.0,0.0,0.0,0.0,2.1783,2.1719,2.2682,2.4195,2.6352,0.0,0.0,0.0,0.0,2.8722,2.8848,2.8987,2.911,2.9262,2.9441,2.9535,2.9577,0.0,0.0,2.8727,2.9131,2.9322,2.8742,2.9101,2.9064,2.7244,2.7399,2.789,2.8134,2.8155,2.8578,2.9541,2.987,3.0466,2.428,0.0,0.0,0.0,0.0,2.2155,2.2155,2.2155,2.2142,2.1939,2.1561,2.1533,0.0,0.0,0.0,0.0,0.0,0.0,2.5803,2.6975,2.8611,2.9746,3.0513,3.1133,3.1616,3.1961,3.1772,3.1321,3.0684,2.9595,2.7565,2.4786,0.0,0.0,0.0,0.0,2.932,3.09,3.2109,3.285,3.3213,3.3195,3.2962,3.2495,3.2307,3.215,3.1961,3.1148,3.0031,2.8565,2.6707,0.0,0.0,0.0,0.0,0.0,0.0,0.0,0.0,0.0,0.0,0.0,0.0,0.0,0.0,0.0,0.0,0.0,0.0,0.0,2.1439,2.204,2.204,0.0,0.0,0.0,0.0,0.0,0.0,0.0,0.0,0.0,2.5618,2.5673,2.6213,0.0,0.0,2.8232,2.8637,2.8694,2.8737,2.8877,2.8947,0.0,2.925,2.9332,2.9429,2.9579,2.9621,2.9532,2.934,2.9487,2.9547,2.9367,2.9819,3.0028,2.9604,2.9309,2.9305,2.9472,2.9561,2.9823,3.0388,3.1061,3.1688,2.6628,2.5059,2.4644,2.4443,2.4456,2.4443,2.4456,2.4456,2.4456,2.4249,2.3903,2.3825,2.368,2.3476,2.4096,0.0,0.0,0.0,2.8052,2.89,3.0165,3.1133,3.1843,3.236,3.2793,3.3122,3.3235,3.2919,3.2295,3.228,3.1003,2.8507,0.0,2.8202,2.9204,2.9958,3.0987,3.2266,3.3064,3.362,3.3867,3.3881,3.3659,3.3282,3.3267,3.3133,3.2904,3.2513,3.17,3.0393,2.8811,2.7157,0.0,0.0,0.0,0.0,0.0,0.0,0.0,0.0,0.0,0.0,0.0,1.5951,1.7113,0.0,0.0,0.0,2.1191,2.3064,2.4317,2.4447,0.0,0.0,0.0,0.0,0.0,0.0,0.0,2.5694,2.6148,2.6827,2.8135,2.8005,2.8091,2.8842,2.9029,2.9145,2.9421,0.0,2.9493,2.9551,2.9608,2.9694,2.9865,2.995,3.0063,3.0231,3.033,3.0357,3.0342,3.0357,3.0357,3.0417,3.0866,3.13,3.13,3.1324,3.1222,3.0876,3.0918,3.1144,3.154,3.2123,3.2615,2.8235,2.8147,2.7178,2.6713,2.6625,2.6625,2.6625,2.6625,2.6612,2.6425,2.61,2.5729,2.5471,2.5363,2.6532,0.0,2.7379,2.9338,3.0229,3.0359,3.1321,3.2169,3.2812,3.3207,3.3676,3.4218,3.4423,3.4235,3.3732,3.3703,3.3398,3.2803,3.1613,3.125,3.1611,3.1671,3.228,3.3547,3.3576,3.3867,3.4399,3.438,3.438,3.4366,3.438,3.4138,3.3605,3.3576,3.2962,3.1714,3.048,2.9262,2.7956,0.0,0.0,0.0,0.0,0.0,0.0,0.0,0.0,0.0,0.0,0.0,0.0,0.0,0.0,2.2258,2.4007,0.0,2.6849,2.6939,0.0,0.0,0.0,2.605,2.6036,2.6036,2.6518,2.7768,0.0,0.0,2.9668,2.9827,2.9827,2.9827,2.9726,2.9929,3.0598,3.0626,3.0699,3.0743,3.0862,3.0952,3.0982,3.1131,3.1338,3.1441,3.1573,3.166,3.166,3.166,3.166,3.166,3.2153,3.2527,3.2572,3.3126,3.3456,3.2332,3.229,3.2499,3.2944,3.3192,3.3423,2.939,2.9377,2.9152,2.8536,2.7733,2.7708,2.772,2.7708,2.7708,2.786,2.8017,2.7947,2.8187,2.8637,2.9134,2.9476,2.9755,3.026,3.0834,3.1474,3.2312,3.3101,3.3846,3.4554,3.506,3.5332,3.5532,3.5552,3.5408,3.5563,3.5546,3.5401,3.5082,3.4298,3.305,3.2991,3.3431,3.4182,3.4182,3.4269,3.4366,3.438,3.438,3.438,3.438,3.4341,3.4196,3.4182,3.3819,3.3067,3.2266,3.125,2.9958,2.855,0.0,0.0,0.0,0.0,0.0,0.0,0.0,0.0,0.0,2.0915,2.2846,0.0,2.4172,0.0,2.6199,2.7374,2.8144,2.8258,0.0,0.0,2.8026,2.8026,2.8011,2.8011,2.8505,2.9755,2.99,3.0379,3.1654,3.1799,3.1785,3.1785,3.0959,3.0598,3.1192,3.1263,3.1482,3.1917,3.2036,3.2125,3.2209,3.2532,3.2657,3.2732,3.2885,3.3036,3.3021,3.3036,3.3036,3.3036,3.314,3.3245,3.326,3.3653,3.3864,3.3605,3.3647,3.3865,3.434,3.4438,3.4619,2.9779,2.9779,2.9779,2.944,2.8863,2.8863,2.8863,2.8863,2.885,2.8935,2.9048,2.8972,2.9226,2.9697,3.0161,3.0527,3.0825,3.1477,3.2028,3.2528,3.3301,3.3918,3.4376,3.4983,3.5337,3.5447,3.5739,3.5906,3.6,3.6122,3.6215,3.6301,3.6286,3.5793,3.4825,3.4719,3.4907,3.5256,3.5256,3.5241,3.5256,3.5256,3.5256,3.5256,3.5256,3.5125,3.4835,3.4835,3.4578,3.392,3.3282,3.2614,3.192,3.064,2.9218,0.0,0.0,0.0,0.0,0.0,0.0,0.0,0.0,0.0,0.0,0.0,2.6477,2.7418,2.8405,2.9247,2.9885,3.0205,3.0393,3.0379,3.0379,3.0393,3.0379,3.0393,3.0655,3.1366,3.1438,3.1714,3.2425,3.2481,3.2481,3.2513,3.1903,3.1569,3.1874,3.193,3.2106,3.2454,3.2481,3.2513,3.2594,3.2832,3.302,3.3114,3.3269,3.3392,3.3484,3.3499,3.3499,3.3514,3.3739,3.3964,3.4026,3.4499,3.4881,3.4973,3.511,3.5122,3.4947,3.4909,3.508,2.9779,2.9779,2.9779,2.9779,2.9779,2.9779,2.9779,2.9779,2.9779,2.9745,2.9612,2.9502,2.9568,2.9772,3.0542,3.1002,3.1312,3.2704,3.3356,3.3434,3.4238,3.4589,3.4603,3.5063,3.5265,3.5316,3.5702,3.5982,3.6172,3.6223,3.6331,3.6512,3.6512,3.6548,3.6548,3.6548,3.6475,3.6301,3.6286,3.6286,3.6286,3.6286,3.6286,3.6286,3.6286,3.6054,3.5552,3.5523,3.5198,3.4559,3.4008,3.3678,3.3489,3.2382,3.1206,0.0,2.9348,0.0,0.0,0.0,0.0,0.0,0.0,0.0,0.0,2.8217,2.8768,2.9871,3.0495,3.1047,3.1567,3.2164,3.2481,3.2513,3.2481,3.2481,3.2481,3.2481,3.251,3.2629,3.2658,3.2643,3.2788,3.2727,3.2727,3.28,3.2785,3.2742,3.2759,3.2701,3.2687,3.273,3.2727,3.2887,3.289,3.2946,3.3123,3.3252,3.3469,3.3522,3.3798,3.3814,3.3799,3.3844,3.4262,3.464,3.4812,3.5469,3.5976,3.6072,3.6244,3.6137,3.5492,3.5315,3.5376,2.9779,2.9779,2.9779,2.9779,2.9779,2.9779,2.9779,2.9779,2.9779,2.9947,3.024,3.0376,3.0636,3.0995,3.1587,3.2078,3.2482,3.3192,3.363,3.3821,3.464,3.5057,3.5123,3.5825,3.6242,3.6398,3.6655,3.6872,3.7063,3.7381,3.7569,3.7621,3.7779,3.7839,3.7839,0.0,0.0,0.0,3.6286,3.6286,3.6286,3.6286,3.6286,3.6286,3.6286,0.0,3.6141,3.6127,3.5836,3.5261,3.5101,0.0,0.0,0.0,0.0,0.0,0.0,0.0,0.0,0.0,0.0,0.0,3.0436,3.0205,3.0074,3.1003,3.1683,3.1946,3.2046,3.2162,3.2278,3.244,3.2481,3.2481,3.2495,3.2481,3.2481,3.2495,3.2701,3.3271,3.3329,3.3485,3.392,3.4051,3.4003,3.3978,3.4051,3.4051,3.3989,3.3572,3.3499,3.3935,3.3916,3.4022,3.4051,3.4141,3.4233,3.4501,3.4697,3.4845,3.4991,3.5055,3.51,3.507,3.522,3.5344,3.546,3.5787,3.6022,3.6164,3.6352,3.6508,3.6596,3.6594,3.6789,3.0357,3.0583,3.0583,3.0583,0.0,3.0583,3.0583,3.0545,3.0018,3.0011,3.0419,3.088,3.1252,3.1583,3.2263,3.2682,3.2953,3.3618,3.399,3.4226,3.4978,3.5329,3.5448,3.6015,3.6351,3.6563,3.6733,3.7007,3.7303,3.7495,3.7701,3.7891,3.8005,3.8104,3.8202,3.8202,3.7883,3.7244,3.7244,3.7244,3.7244,3.7244,3.7244,3.7244,3.7244,0.0,0.0,0.0,0.0,0.0,0.0,0.0,0.0,0.0,0.0,3.2585,3.2483,3.2208,3.1598,3.154,3.1671,3.1959,3.2309,3.2208,3.1584,3.2135,3.2481,3.2495,3.2803,3.2977,3.3006,3.3253,3.3456,3.3456,3.3456,3.3456,3.3423,3.3409,3.3572,3.3862,3.3968,3.4066,3.437,3.438,3.438,3.438,3.438,3.438,3.4366,3.4153,3.408,3.4356,3.438,3.438,3.4414,3.4481,3.465,3.4835,3.4968,3.5148,3.5439,3.5489,3.5489,3.5489,3.5489,3.5587,3.5814,3.5926,3.6068,3.6289,3.6429,3.6616,3.6908,3.6999,3.7181,3.1009,3.1386,3.1386,3.1386,3.1386,3.1386,3.1386,3.1323,3.0444,0.0,0.0,3.1306,3.172,3.1941,3.2752,3.312,3.3199,3.3967,3.4406,3.4634,3.513,3.548,3.5629,3.5898,3.6152,3.6365,3.6549,3.6825,3.7187,3.7264,3.7457,3.7777,3.7853,3.8005,3.8202,3.8202,3.8202,3.8202,3.8202,3.8202,3.8202,3.8202,3.8202,3.8202,3.8202,3.797,3.7476,3.7462,3.7157,3.6519,3.6475,3.6185,3.5625,3.5566,3.5116,3.4099,3.3997,3.3746,3.3224,3.3093,3.2977,3.2861,3.334,3.3412,3.2858,3.2861,3.2846,3.2846,3.3325,3.3678,3.3678,3.4095,3.438,3.438,3.438,3.4366,3.4366,3.438,3.4356,3.438,3.4351,3.438,3.438,3.438,3.438,3.438,3.438,3.438,3.438,3.4385,3.4356,3.4399,3.438,3.438,3.438,3.4414,3.4549,3.4835,3.4902,3.5049,3.5374,3.5609,3.5669,3.5729,3.5759,3.6042,3.6304,3.6429,3.6466,3.6783,3.6846,3.6893,3.7126,3.7171,3.7338,3.1336,3.1386,3.1386,3.1386,3.1386,3.1386,3.1386,3.1373,3.1223,3.1307,3.1549,3.1879,3.2117,3.2342,3.3155,3.3618,3.3806,3.4414,3.4843,3.5047,3.5277,3.5399,3.544,3.5683,3.5898,3.6112,3.6365,3.6563,3.6786,3.7162,3.7341,3.7419,3.7739,3.8005,3.8202,3.8202,3.8202,3.8202,3.8202,3.8202,3.8202,3.8202,3.8202,3.8202,3.8202,3.8173,3.8072,3.8072,3.7796,3.7201,3.7172,3.6867,3.6228,3.617,3.6083,3.5938,3.5894,3.5865,3.5764,3.5305,3.4719,3.4211,3.4225,3.424,3.4153,3.4153,3.4153,3.4138,3.4163,3.4283,3.4283,3.4356,3.438,3.438,3.438,3.438,3.438,3.438,3.438,3.438,3.438,3.438,3.438,3.438,3.438,3.438,3.4486,3.4424,3.4496,3.438,3.438,3.438,3.438,3.438,3.4486,3.4395,3.4665,3.4835,3.499,3.5197,3.5603,3.6043,3.6327,3.6342,3.6701,3.7136,3.7561,3.7734,3.773,3.7964,3.8061,3.8083,3.7904,3.7888,3.7917,3.1943,3.229,3.2315,3.2303,3.2344,3.2303,3.2344,3.2303,3.2315,3.2088,3.1759,3.2299,3.2643,3.2898,3.3688,3.4073,3.4155,3.4459,3.4701,3.4962,3.5113,3.529,3.5399,3.5588,3.5844,3.6126,3.6312,3.651,3.6721,3.7007,3.7187,3.7303,3.7701,3.7929,3.8028,3.8142,3.8202,3.8202,3.8202,3.8202,3.8202,3.8202,3.8202,3.8202,3.8202,3.8202,3.8202,3.8202,3.8072,3.781,3.7796,3.7506,3.6881,3.6852,3.6693,3.633,3.6286,3.6286,3.6286,3.604,3.5749,3.5459,3.5125,3.4936,3.4936,3.4617,3.438,3.438,3.438,3.438,3.438,3.438,3.438,3.438,3.438,3.438,3.438,3.438,3.438,3.438,3.438,3.438,3.438,3.438,3.438,3.4395,3.4661,3.5024,3.5343,3.5415,3.5169,3.4588,3.469,3.4907,3.4936,3.5241,3.554,3.5893,3.5962,3.6132,3.6451,3.6836,3.6941,3.6985,3.7255,3.7526,3.7955,3.8007,3.8126,3.8424,3.8606,3.8566,3.8558,3.8811,3.8787,3.2381,3.3025,3.3025,3.3025,3.3124,3.3124,3.3124,3.3124,3.3111,3.2676,3.2162,3.2727,3.3113,3.3385,3.4048,3.4356,3.4397,3.4397,3.4535,3.4714,3.5003,3.5154,3.5372,3.5602,3.5817,3.6032,3.6286,3.647,3.6628,3.6889,3.7109,3.7303,3.7663,3.7853,3.7891,3.8104,3.8202,3.8202,3.8202,3.8202,3.8202,3.8202,3.8202,3.8202,3.8202,3.8202,3.8202,3.8202,3.8202,3.8202,3.8202,3.7984,3.7549,3.752,3.7273,3.6794,3.6722,3.6664,3.6548,3.6533,3.646,3.6315,3.5851,3.561,3.5581,3.514,3.469,3.4472,3.438,3.438,3.438,3.438,3.438,3.438,3.438,3.4501,3.4603,3.4632,3.4719,3.4777,3.4849,3.4864,3.4815,3.4849,3.4907,3.4994,3.527,3.5764,3.6199,3.6286,3.5836,3.5299,3.5305,3.5581,3.5639,3.5938,3.6356,3.684,3.6866,3.6916,3.7207,3.7464,3.7629,3.7659,3.7808,3.8112,3.8391,3.8508,3.8674,3.9023,3.9256,3.9315,3.9324,3.9597,3.9649,3.25,3.2711,3.2766,3.2853,3.3124,3.3124,3.3124,3.3124,3.3124,3.3086,3.2965,3.3267,3.3467,3.3691,3.4008,3.4243,3.4397,3.4397,3.4397,3.4494,3.4908,3.5113,3.5154,3.5521,3.571,3.5804,3.6192,3.6405,3.6484,3.6811,3.7095,3.7303,3.7495,3.7739,3.7906,3.8104,3.8202,3.8202,3.8202,3.8202,3.8202,3.8202,3.8202,3.8202,3.8202,3.8202,3.8202,3.8202,3.8202,3.8202,3.8202,3.8173,3.8115,3.8115,3.8086,3.7999,3.7999,3.781,3.7288,3.7201,3.6968,3.6373,3.6286,3.6228,3.6228,3.6156,3.5619,3.4743,3.4424,3.4516,3.438,3.4438,3.4545,3.4588,3.4545,3.4632,3.5154,3.5319,3.5488,3.6083,3.5981,3.6127,3.5981,3.5967,3.6054,3.604,3.6127,3.6301,3.6475,3.6504,3.6475,3.6214,3.6228,3.6228,3.6257,3.6243,3.6668,3.6922,3.6954,3.7218,3.7595,3.8018,3.8317,3.8362,3.8721,3.9148,3.9521,3.9813,3.9847,3.996,4.0217,4.05,4.0253,4.0166,4.0,3.2376,3.2667,3.2667,3.2853,3.3081,3.3124,3.3124,3.3124,3.3124,3.3124,3.3124,3.321,3.3398,3.3725,3.3992,3.4202,3.4397,3.4397,3.4397,3.4439,3.4853,3.5072,3.5113,3.5521,3.571,3.575,3.6178,3.6405,3.6484,3.6797,3.7017,3.7134,3.7471,3.7649,3.7739,3.8014,3.8202,3.8202,3.8202,3.8202,3.8202,3.8202,3.8202,3.8202,3.8202,3.8202,3.8202,3.8202,3.8202,3.8202,3.8202,3.8202,3.8202,3.8202,3.8202,3.8202,3.8202,3.8101,3.7868,3.7839,3.7709,3.7433,3.7099,3.6896,3.6881,3.6548,3.6069,3.5662,3.5532,3.5532,3.5532,3.5532,3.5546,3.5546,3.5532,3.5633,3.5865,3.5938,3.6054,3.6272,3.6286,3.6315,3.6286,3.6286,3.6475,3.678,3.6896,3.6997,3.7317,3.7433,3.7418,3.7418,3.7418,3.7259,3.7027,3.723,3.7543,3.7892,3.803,3.8159,3.8445,3.8766,3.9005,3.8975,3.9286,3.9646,3.9864,4.0101,4.0277,4.0505,4.078,4.0977,4.1045,4.1151,4.1214,3.2157,3.2494,3.2624,3.2853,3.3124,3.3124,3.3124,3.3124,3.3124,3.3124,3.3124,3.3124,3.3283,3.3598,3.3865,3.4118,3.4327,3.4356,3.4397,3.4439,3.4908,3.5072,3.5154,3.5521,3.571,3.5804,3.6192,3.6431,3.6575,3.6836,3.6978,3.7056,3.7341,3.7534,3.7663,3.7953,3.8127,3.8202,3.8202,3.8202,3.8202,3.8202,3.8202,3.8202,3.8202,3.8202,3.8202,3.8202,3.8202,3.8202,3.8202,3.8202,3.8202,3.8202,3.8202,3.8202,3.8202,3.8202,3.8202,3.8202,3.8202,3.8173,3.7767,3.7564,3.7476,3.7099,3.6852,3.6838,3.6838,3.6736,3.6315,3.6286,3.6286,3.6286,3.6286,3.6344,3.6533,3.6577,3.6649,3.6794,3.6939,3.6823,3.6838,3.6896,3.7085,3.7462,3.7564,3.7665,3.8086,3.8159,3.8159,3.8202,3.8188,3.8014,3.7665,3.7884,3.8397,3.8686,3.8745,3.8913,3.9316,3.9388,3.9409,3.923,3.9529,3.9753,3.996,4.0172,4.0416,4.0643,4.0882,4.1187,4.1411,4.1803,4.1997,3.1849,3.2069,3.2494,3.284,3.3124,3.3124,3.3124,3.3124,3.3124,3.3124,3.3124,3.3124,3.3197,3.3428,3.3641,3.3852,3.4118,3.4314,3.4397,3.4439,3.4867,3.5072,3.5113,3.5521,3.575,3.5873,3.6371,3.6714,3.6999,3.7049,3.6978,3.706,3.7339,3.7475,3.7672,3.7902,3.8043,3.8237,3.8231,3.8202,3.8202,3.8202,3.8202,3.8202,3.8202,3.8202,3.8202,3.8202,3.8202,3.8202,3.8202,3.8202,3.8202,3.8202,3.8202,3.8202,3.8202,3.8202,3.8202,3.8202,3.8202,3.8202,3.8144,3.813,3.8072,3.7999,3.7941,3.8072,3.7955,3.7549,3.6649,3.6533,3.6475,3.6446,3.6373,3.6678,3.7201,3.7259,3.7535,3.7883,3.7941,3.7897,3.8028,3.813,3.7999,3.8072,3.813,3.8144,3.8159,3.8202,3.8202,3.8202,3.8202,3.8188,3.8159,3.8271,3.8523,3.876,3.8943,3.9141,3.9265,3.9388,3.9388,3.946,3.9625,3.9788,3.9945,4.0242,4.0555,4.0796,4.1,4.1254,4.1604,4.1883,4.2077,3.1805,3.2038,3.2506,3.2754,3.2853,3.3025,3.3124,3.3124,3.3124,3.3124,3.3124,3.3124,3.3167,3.3227,3.3556,3.3852,3.4118,3.4314,3.4397,3.4439,3.4908,3.5313,3.5702,3.6074,3.651,3.6891,3.7346,3.7782,3.8187,3.8227,3.8227,3.8227,3.8441,3.8626,3.8753,3.8591,3.8582,3.8759,3.8449,3.8202,3.8217,3.8202,3.8202,3.8202,3.8202,3.8202,3.8202,3.8202,3.8202,3.8202,3.8202,3.8202,3.8202,3.8202,3.8202,3.8202,3.8202,3.8202,3.8202,3.8202,3.8202,3.8202,3.8202,3.8202,3.8202,3.8202,3.8202,3.8202,3.8202,3.7926,3.7694,3.752,3.7506,3.752,3.752,3.7549,3.7796,3.7883,3.7984,3.8144,3.8202,3.8202,3.8202,3.8202,3.8202,3.8202,3.8202,3.8202,3.8202,3.8202,3.8202,3.8202,3.8202,3.824,3.8404,3.8441,3.859,3.876,3.8995,3.9156,3.9352,3.9388,3.9388,3.9568,3.9732,3.9945,4.0137,4.0385,4.0712,4.0932,4.1135,4.1355,4.1719,4.1964,4.2109,3.1805,3.2025,3.2419,3.2649,3.2723,3.2982,3.3124,3.3124,3.3124,3.3124,3.3149,3.3257,3.3332,3.3469,3.3984,3.4319,3.4508,3.4676,3.4789,3.4989,3.5423,3.5845,3.6249,3.6695,3.7107,3.7516,3.8005,3.8449,3.8861,3.8916,3.8916,3.8902,3.9039,3.9213,3.9396,3.9197,3.9192,3.9286,3.8855,3.8522,3.8507,3.8318,3.8202,3.8202,3.8202,3.8202,3.8202,3.8202,3.8202,3.8202,3.8202,3.8202,3.8202,3.8202,3.8202,3.8202,3.8202,3.8202,3.8202,3.8202,3.8202,3.8202,3.8202,3.8202,3.8202,3.8202,3.8202,3.8202,3.8202,3.8202,3.8202,3.8188,3.8202,3.8202,3.8202,3.8202,3.8202,3.8202,3.8188,3.8188,3.8202,3.8202,3.8202,3.8202,3.8202,3.8202,3.8202,3.8202,3.8202,3.8202,3.8202,3.8202,3.8202,3.8277,3.8441,3.8553,3.8701,3.8922,3.9068,3.9265,3.9337,3.9388,3.9496,3.9676,3.9889,4.0101,4.0331,4.0593,4.0833,4.1068,4.1221,4.1372,4.1703,4.1964,4.2142,3.1793,3.2025,3.2257,3.2519,3.2723,3.2982,3.3136,3.3144,3.3187,3.325,3.3345,3.3684,3.3909,3.4086,3.4812,3.5308,3.5377,3.5384,3.5574,3.5957,3.6456,3.6724,3.6874,3.7273,3.7582,3.776,3.8074,3.8533,3.9044,3.9113,3.9099,3.9015,3.9085,3.9387,3.9553,3.9593,3.9722,3.9894,3.9509,3.9204,3.9131,3.8667,3.8362,3.8289,3.8289,3.826,3.8217,3.8202,3.8202,3.8202,3.8202,3.8202,3.8202,3.8202,3.8202,3.8202,3.8202,3.8202,3.8202,3.8202,3.8202,3.8202,3.8202,3.8202,3.8202,3.8202,3.8202,3.8202,3.8202,3.8202,3.8202,3.8202,3.8202,3.8202,3.8202,3.8202,3.8202,3.8202,3.8202,3.8202,3.8202,3.8202,3.8202,3.8202,3.8202,3.8202,3.8202,3.8202,3.8202,3.8202,3.8202,3.8202,3.824,3.8366,3.8516,3.8701,3.8885,3.9068,3.9228,3.9388,3.9373,3.9424,3.9568,3.9768,4.0016,4.0226,4.047,4.073,4.0901,4.112,4.1272,4.1505,4.1785,4.2061,4.2222,3.1761,3.1849,3.2213,3.2431,3.255,3.2952,3.3282,3.3633,3.3646,3.3859,3.4198,3.4342,3.4462,3.4577,3.5099,3.5647,3.6026,3.6306,3.6358,3.6262,3.6615,3.707,3.7451,3.7866,3.8528,3.9116,3.9343,3.9644,4.0013,4.0097,4.014,4.0126,4.0097,4.0378,4.071,4.0367,4.0328,4.0673,4.0147,3.9828,3.9813,3.961,3.9305,3.8942,3.8884,3.8696,3.8231,3.8202,3.8202,3.8202,3.8202,3.8202,3.8202,3.8202,3.8202,3.8202,3.8202,3.8202,3.8202,3.8202,3.8202,3.8202,3.8202,3.8202,3.8202,3.8202,3.8202,3.8202,3.8202,3.8202,3.8202,3.8202,3.8202,3.8202,3.8202,3.8202,3.8202,3.8202,3.8202,3.8202,3.8202,3.8202,3.8202,3.8202,3.8202,3.8202,3.8202,3.8202,3.8202,3.8202,3.8202,3.8202,3.8329,3.8551,3.8863,3.9143,3.9417,3.946,3.948,3.9475,3.9445,3.9517,3.9661,3.991,4.0121,4.0366,4.0643,4.0882,4.1052,4.1254,4.1472,4.1703,4.1948,4.2142,4.2318,3.1705,3.1749,3.2213,3.2523,3.2727,3.3221,3.3696,3.4161,3.4211,3.4412,3.47,3.4893,3.4981,3.5168,3.5742,3.6204,3.6616,3.7111,3.7129,3.6904,3.7263,3.7696,3.8091,3.8516,3.9161,3.9839,4.0009,4.0213,4.0702,4.0702,4.0702,4.0702,4.0773,4.0972,4.1367,4.1093,4.1071,4.1326,4.0815,4.0466,4.0423,4.022,3.9915,3.9581,3.9523,3.9204,3.8638,3.858,3.8463,3.826,3.8202,3.8202,3.8202,3.8202,3.8202,3.8202,3.8202,3.8202,3.8202,3.8202,3.8202,3.8202,3.8202,3.8202,3.8202,3.8202,3.8202,3.8202,3.8202,3.8202,3.8202,3.8202,3.8202,3.8202,3.8202,3.8202,3.8202,3.8202,3.8202,3.8202,3.8202,3.8202,3.8202,3.8202,3.8202,3.8202,3.8202,3.8202,3.8202,3.8202,3.8269,3.8423,3.871,3.9008,3.9284,3.9595,3.9966,3.9913,3.9792,3.9661,3.9553,3.9589,3.9717,4.0086,4.0366,4.0539,4.078,4.1003,4.1205,4.1439,4.17,4.1834,4.2061,4.2254,4.2413,3.1753,3.1854,3.2299,3.2818,3.3313,3.377,3.4261,3.4713,3.4731,3.4781,3.4989,3.5357,3.5545,3.5798,3.6518,3.6967,3.7188,3.7579,3.7782,3.788,3.8185,3.8527,3.8662,3.9064,3.9546,3.9952,4.0053,4.027,4.0702,4.0702,4.0702,4.0702,4.0887,4.1142,4.1367,4.1577,4.1728,4.1862,4.1439,4.1149,4.112,4.0626,4.0234,4.0176,4.0147,3.9871,3.9334,3.9146,3.8826,3.8304,3.8202,3.8202,3.8202,3.8202,3.8202,3.8202,3.8202,3.8202,3.8202,3.8202,3.8202,3.8202,3.8202,3.8202,3.8202,3.8202,3.8202,3.8202,3.8202,3.8202,3.8202,3.8202,3.8202,3.8202,3.8202,3.8202,3.8202,3.8202,3.8202,3.8202,3.8202,3.8202,3.8202,3.8202,3.8202,3.8231,3.8275,3.8391,3.851,3.8606,3.8556,3.8865,3.9425,3.9717,4.0084,4.03,4.0644,4.0658,4.0522,4.0356,4.0179,4.0221,4.0379,4.0674,4.0816,4.0912,4.1118,4.1479,4.1653,4.1789,4.1941,4.1979,4.2125,4.2349,4.2539,3.2385,3.2576,3.3261,3.3757,3.4107,3.4377,3.4768,3.5245,3.5295,3.5529,3.5868,3.6081,3.6107,3.6251,3.6786,3.7108,3.7214,3.7657,3.79,3.7992,3.8376,3.8814,3.9127,3.9452,3.9716,3.9996,4.0184,4.0414,4.0716,4.0702,4.0702,4.0702,4.093,4.1142,4.1396,4.1633,4.1841,4.2051,4.1947,4.1802,4.1773,4.1642,4.1308,4.0858,4.0829,4.051,3.99,3.9436,3.8899,3.8275,3.8202,3.8202,3.8202,3.8202,3.8202,3.8202,3.8202,3.8202,3.8202,3.8202,3.8202,3.8202,3.8202,3.8202,3.8202,3.8202,3.8202,3.8202,3.8202,3.8202,3.8202,3.824,3.8202,3.8202,3.824,3.824,3.8202,3.8202,3.8202,3.8202,3.8217,3.826,3.826,3.8356,3.8356,3.8414,3.8676,3.9004,3.9162,3.9501,3.9627,4.0091,4.0539,4.0683,4.0857,4.1098,4.128,4.1408,4.1392,4.1384,4.1336,4.1422,4.1702,4.2037,4.1944,4.198,4.2171,4.2457,4.2394,4.238,4.2264,4.2317,4.2366,4.2492,4.265,3.2952,3.3168,3.3784,3.4271,3.4744,3.4928,3.5332,3.5818,3.5906,3.6044,3.6367,3.6417,3.6417,3.6465,3.6875,3.7108,3.7168,3.7657,3.7946,3.8103,3.8498,3.8935,3.9261,3.9598,3.9818,4.0009,4.0241,4.0501,4.0673,4.0702,4.0702,4.0787,4.1029,4.1241,4.1396,4.1731,4.1939,4.2051,4.2092,4.2092,4.2092,4.2092,4.1932,4.157,4.1497,4.1207,4.0554,3.9915,3.9276,3.8725,3.8376,3.8202,3.8202,3.8202,3.8202,3.8202,3.8202,3.8202,3.8202,3.8202,3.8202,3.8202,3.8202,3.8202,3.8202,3.8202,3.8202,3.8329,3.8329,3.8352,3.8427,3.8449,3.8449,3.8449,3.8464,3.8389,3.8254,3.8202,3.8202,3.826,3.8434,3.8623,3.8638,3.8917,3.9101,3.9255,3.9647,3.987,4.0074,4.0455,4.0783,4.1065,4.1359,4.1534,4.1822,4.2111,4.2316,4.2417,4.2538,4.2493,4.2317,4.2426,4.2517,4.2721,4.2891,4.3054,4.3153,4.3254,4.3263,4.3154,4.2893,4.2783,4.2864,4.278,4.2905,3.3542,3.3762,3.4053,3.4626,3.5313,3.5549,3.5881,3.6329,3.6367,3.638,3.6417,3.6417,3.6405,3.6439,3.6922,3.7108,3.7155,3.7657,3.8011,3.8304,3.8697,3.9011,3.9305,3.9628,3.9848,4.0053,4.0298,4.0501,4.0659,4.0702,4.0702,4.0787,4.1185,4.1354,4.1494,4.1829,4.2051,4.2092,4.2092,4.2092,4.2092,4.2092,4.2034,4.2005,4.1961,4.1744,4.1178,4.0568,3.9958,3.9436,3.8754,3.8565,3.8478,3.842,3.8347,3.8318,3.8289,3.8202,3.8202,3.8202,3.824,3.824,3.824,3.824,3.8315,3.8315,3.8389,3.8516,3.8501,3.8686,3.8944,3.8988,3.9113,3.9187,3.9084,3.8832,3.8564,3.8423,3.8408,3.8495,3.9062,3.931,3.9552,3.9974,4.0456,4.0041,4.0426,4.0739,4.0964,4.1322,4.1518,4.1674,4.1974,4.2321,4.2671,4.3091,4.3313,4.3514,4.3724,4.367,4.3201,4.3165,4.3091,4.3257,4.3749,4.393,4.3905,4.398,4.4056,4.399,4.3759,4.3651,4.3605,4.333,4.3292,3.4109,3.4581,3.5045,3.561,3.6135,3.6182,3.6304,3.6405,3.6417,3.6417,3.6417,3.6417,3.6487,3.6675,3.6956,3.7214,3.74,3.7749,3.8129,3.8498,3.8787,3.9056,3.9336,3.9703,3.9966,4.0097,4.0443,4.0659,4.0702,4.0702,4.0702,4.0801,4.1142,4.141,4.1494,4.1829,4.2092,4.2092,4.2092,4.2092,4.2092,4.2092,4.2092,4.2092,4.2092,4.2034,4.1802,4.125,4.0844,4.0568,4.0089,3.9683,3.9509,3.9189,3.8986,3.8884,3.8507,3.826,3.8231,3.8356,3.8306,3.8573,3.8602,3.8501,3.8671,3.8723,3.873,3.8723,3.8723,3.9099,3.9571,4.0073,4.0229,4.0229,4.0273,4.0279,4.018,3.9774,3.9648,4.0,4.025,4.0435,4.045,4.0597,4.0866,4.0822,4.1165,4.1543,4.1844,4.2154,4.2302,4.2389,4.2617,4.2895,4.3205,4.3581,4.3827,4.4104,4.4358,4.4572,4.4115,4.4041,4.4043,4.4376,4.483,4.4857,4.4676,4.4737,4.4846,4.4763,4.4677,4.4539,4.4333,4.4009,4.3694,3.4798,3.5215,3.5605,3.5991,3.637,3.6417,3.6417,3.6417,3.6417,3.6417,3.6417,3.6417,3.6487,3.6709,3.6956,3.7261,3.7598,3.8024,3.8344,3.8647,3.8935,3.9145,3.9336,3.9733,4.0009,4.0083,4.0473,4.0702,4.0702,4.0702,4.0702,4.0744,4.117,4.141,4.1494,4.187,4.2051,4.2092,4.2092,4.2092,4.2092,4.2092,4.2092,4.2092,4.2092,4.2092,4.202,4.1787,4.1599,4.1482,4.1207,4.0699,4.0176,3.9828,3.9639,3.9538,3.9349,3.9193,3.9246,3.927,3.9428,3.9507,3.956,3.9612,3.9711,3.9748,3.9801,3.9838,3.9935,4.012,4.0492,4.0783,4.1065,4.108,4.1095,4.1184,4.1347,4.0808,4.0383,4.0796,4.0993,4.1155,4.1244,4.1449,4.174,4.1947,4.2164,4.254,4.2585,4.2842,4.3035,4.3184,4.3313,4.3521,4.3717,4.3942,4.4182,4.4435,4.4648,4.4852,4.4763,4.489,4.5079,4.5268,4.5326,4.5541,4.546,4.5536,4.5588,4.5653,4.5602,4.5417,4.5178,4.4902,4.4539,3.538,3.5668,3.592,3.6133,3.6358,3.6417,3.6417,3.6417,3.6417,3.6417,3.6417,3.6417,3.6534,3.6769,3.6968,3.7261,3.769,3.8207,3.8557,3.8647,3.9038,3.9305,3.9482,3.9791,4.0053,4.0097,4.0487,4.0702,4.0702,4.0702,4.073,4.083,4.1185,4.1438,4.1564,4.1829,4.2092,4.2092,4.2092,4.2092,4.2092,4.2092,4.2092,4.2092,4.2092,4.2092,4.2092,4.2034,4.2049,4.2092,4.2092,4.1482,4.0757,4.0278,4.0249,4.0234,4.0114,4.0086,4.0188,4.0368,4.0499,4.0811,4.0805,4.0829,4.0823,4.0772,4.0795,4.0991,4.1097,4.1269,4.1534,4.1765,4.175,4.1773,4.1728,4.203,4.2276,4.1766,4.154,4.1385,4.1809,4.2046,4.2233,4.2392,4.2758,4.3061,4.325,4.3344,4.3344,4.3423,4.3542,4.3621,4.3714,4.3817,4.4011,4.4281,4.4496,4.4648,4.4874,4.5039,4.522,4.5278,4.5352,4.5463,4.5573,4.5771,4.5988,4.6048,4.6163,4.6454,4.6449,4.6183,4.5994,4.5783,4.5405,3.5476,3.592,3.5955,3.6146,3.6358,3.6417,3.6417,3.6417,3.6417,3.6417,3.6417,3.6417,3.664,3.6968,3.7062,3.7366,3.7841,3.8344,3.8615,3.8706,3.9096,3.9394,3.9642,3.9878,4.0097,4.0342,4.0587,4.0702,4.0702,4.0702,4.0773,4.0972,4.1255,4.1465,4.1675,4.1939,4.2092,4.2092,4.2092,4.2092,4.2092,4.2092,4.2092,4.2092,4.2092,4.2092,4.2092,4.2092,4.2092,4.2092,4.2092,4.1947,4.1639,4.1218,4.1,4.0924,4.0752,4.071,4.0774,4.0773,4.0855,4.0979,4.119,4.1222,4.1307,4.1383,4.1547,4.1645,4.1953,4.2246,4.2246,4.2614,4.2895,4.2995,4.3052,4.3229,4.3374,4.3244,4.3016,4.2722,4.2867,4.2986,4.3041,4.3095,4.324,4.3409,4.3503,4.3596,4.3596,4.3714,4.3856,4.391,4.3949,4.405,4.4205,4.4534,4.4836,4.4874,4.5077,4.5278,4.5405,4.5442,4.5515,4.5682,4.5807,4.6004,4.6203,4.6385,4.6528,4.6673,4.6781,4.6921,4.6747,4.6536,4.6372,3.562,3.6003,3.6146,3.6275,3.6417,3.6417,3.6417,3.6417,3.6417,3.6417,3.6417,3.6405,3.6628,3.7015,3.7108,3.74,3.7887,3.8389,3.857,3.8706,3.9083,3.9452,3.97,3.9922,4.0154,4.0385,4.0587,4.0702,4.0702,4.0702,4.0816,4.1015,4.1255,4.1507,4.1702,4.1939,4.2051,4.2092,4.2092,4.2092,4.2092,4.2092,4.2092,4.2092,4.2092,4.2092,4.2092,4.2092,4.2092,4.2092,4.2092,4.2175,4.2099,4.2021,4.1788,4.1715,4.1628,4.1651,4.1745,4.1903,4.208,4.2222,4.2231,4.2285,4.2387,4.2524,4.2573,4.2771,4.2915,4.3217,4.327,4.3494,4.3615,4.3645,4.3793,4.3847,4.3871,4.3949,4.3871,4.3699,4.3639,4.3554,4.36,4.3615,4.3645,4.3699,4.3793,4.3832,4.3847,4.3949,4.4104,4.422,4.4297,4.4435,4.4587,4.4814,4.5077,4.5151,4.53,4.5463,4.5662,4.5735,4.5864,4.5992,4.6116,4.6203,4.6349,4.6528,4.6703,4.6842,4.6999,4.712,4.7306,4.7259,4.7062,3.586,3.6111,3.6323,3.6417,3.6417,3.6417,3.6417,3.6417,3.6417,3.6417,3.6417,3.6452,3.6687,3.7062,3.7261,3.7551,3.7979,3.8421,3.8602,3.8769,3.9127,3.9452,3.976,3.9936,4.014,4.0501,4.063,4.0702,4.0702,4.0702,4.0845,4.1071,4.1354,4.1564,4.18,4.1995,4.2092,4.2092,4.2092,4.2092,4.2092,4.2092,4.2092,4.2092,4.2092,4.2092,4.2092,4.2092,4.2092,4.2092,4.2175,4.2242,4.2392,4.2474,4.25,4.2526,4.2688,4.2835,4.2911,4.2946,4.2907,4.3026,4.3269,4.3339,4.3388,4.341,4.3687,4.3964,4.3957,4.3888,4.3843,4.3972,4.3988,4.3988,4.4026,4.4065,4.4089,4.4127,4.4205,4.4127,4.4127,4.405,4.3972,4.391,4.3832,4.3895,4.3949,4.4011,4.4065,4.4181,4.432,4.4511,4.4663,4.4852,4.4964,4.5092,4.5278,4.5352,4.5536,4.5771,4.5916,4.606,4.6187,4.6227,4.6262,4.6349,4.6528,4.6687,4.6876,4.7064,4.7201,4.7354,4.7489,4.7622,4.7523,3.6098,3.637,3.6405,3.6417,3.6417,3.6417,3.6417,3.6417,3.6417,3.6417,3.6405,3.6581,3.6815,3.7168,3.7611,3.792,3.8181,3.8466,3.8679,3.889,3.9158,3.9526,3.9922,3.9966,4.027,4.053,4.0659,4.0702,4.0702,4.0702,4.093,4.1269,4.1396,4.1606,4.1995,4.2051,4.2092,4.2092,4.2092,4.2092,4.2092,4.2092,4.2092,4.2092,4.2092,4.2092,4.2092,4.2092,4.2092,4.2119,4.2284,4.2366,4.2433,4.2769,4.2875,4.2915,4.2955,4.2996,4.3021,4.3195,4.329,4.3369,4.3503,4.3636,4.3714,4.3832,4.3988,4.4003,4.4042,4.4065,4.4065,4.4026,4.4026,4.4104,4.4243,4.4297,4.432,4.4473,4.4511,4.4549,4.4511,4.432,4.4181,4.4065,4.3988,4.4065,4.4127,4.4243,4.432,4.4473,4.4564,4.4754,4.4942,4.5129,4.5262,4.5389,4.5547,4.562,4.5787,4.604,4.6152,4.6278,4.6404,4.6458,4.6509,4.6545,4.6703,4.6892,4.708,4.7251,4.7404,4.7538,4.7671,4.7787,4.7852,3.6275,3.6417,3.6417,3.6417,3.6417,3.6417,3.6417,3.6417,3.6417,3.6417,3.6452,3.6628,3.6909,3.7353,3.7749,3.8011,3.8226,3.8466,3.8724,3.8922,3.9203,3.9557,3.9922,4.0053,4.027,4.0616,4.0702,4.0702,4.0702,4.0744,4.0915,4.1354,4.1452,4.1647,4.2051,4.2092,4.2092,4.2092,4.2092,4.2092,4.2092,4.2092,4.2092,4.2092,4.2092,4.2092,4.2092,4.2092,4.216,4.2242,4.2366,4.25,4.2688,4.2915,4.3021,4.3155,4.317,4.317,4.3195,4.3384,4.3463,4.3581,4.3754,4.391,4.4026,4.4127,4.4243,4.4358,4.4358,4.4358,4.4358,4.432,4.4381,4.4496,4.4549,4.4663,4.4754,4.4867,4.4942,4.4942,4.4905,4.4716,4.4526,4.445,4.4412,4.4511,4.4549,4.4663,4.4776,4.4905,4.498,4.5033,4.522,4.5368,4.5499,4.5625,4.5918,4.6027,4.614,4.6303,4.6349,4.6458,4.6644,4.6786,4.6858,4.6892,4.6927,4.7064,4.7235,4.7404,4.7605,4.7704,4.782,4.7886,4.7984,3.6417,3.6417,3.6417,3.6417,3.6417,3.6417,3.6417,3.6417,3.6417,3.6417,3.6499,3.6675,3.7108,3.7551,3.7854,3.807,3.8304,3.8512,3.8769,3.9024,3.9292,3.9615,3.9922,4.0097,4.0314,4.0702,4.0702,4.0702,4.0744,4.0816,4.0986,4.1396,4.1465,4.1689,4.1953,4.2092,4.2092,4.2092,4.2092,4.2092,4.2092,4.2092,4.2092,4.2092,4.2092,4.2092,4.2107,4.2175,4.2284,4.2351,4.2555,4.2729,4.29,4.3036,4.3195,4.3329,4.3423,4.3463,4.3503,4.3621,4.3714,4.3832,4.3949,4.4143,4.432,4.4396,4.4473,4.4648,4.4739,4.4739,4.4739,4.4739,4.4776,4.4889,4.4964,4.5039,4.5129,4.5129,4.5129,4.5092,4.5092,4.5129,4.4942,4.4867,4.4867,4.4927,4.5002,4.507,4.5245,4.5397,4.5528,4.5644,4.5945,4.6203,4.6466,4.6518,4.6605,4.6602,4.6729,4.6737,4.6943,4.6988,4.7077,4.717,4.7228,4.7235,4.7268,4.7302,4.737,4.7538,4.7704,4.782,4.7935,4.8001,4.8147,3.6417,3.6417,3.6417,3.6417,3.6417,3.6417,3.6417,3.6417,3.6417,3.6417,3.6546,3.6875,3.7307,3.7762,3.79,3.8116,3.8557,3.8615,3.8859,3.9216,3.954,3.9774,4.0023,4.0241,4.0457,4.0673,4.0702,4.0702,4.0787,4.093,4.1114,4.1381,4.1549,4.1814,4.2009,4.2092,4.2092,4.2092,4.2092,4.2092,4.2092,4.2092,4.2092,4.2092,4.2092,4.2092,4.2133,4.2242,4.2433,4.2474,4.2729,4.2915,4.3036,4.321,4.3423,4.3542,4.3636,4.3714,4.3817,4.3832,4.3817,4.3988,4.4181,4.4396,4.4549,4.4776,4.4852,4.4889,4.498,4.5055,4.5092,4.5145,4.5092,4.5167,4.5204,4.5241,4.5294,4.5294,4.5294,4.522,4.5257,4.5331,4.5493,4.5413,4.5192,4.5251,4.5591,4.5659,4.5822,4.5975,4.619,4.6412,4.6814,4.7247,4.7845,4.7893,4.7721,4.7729,4.7838,4.7766,4.7725,4.7723,4.7786,4.7633,4.7708,4.7633,4.7554,4.762,4.7687,4.7721,4.782,4.7919,4.8099,4.8179,4.8373,3.6417,3.6417,3.6417,3.6417,3.6417,3.6417,3.6417,3.6417,3.6417,3.6593,3.6828,3.7062,3.7413,3.7808,3.7946,3.8161,3.857,3.8615,3.8904,3.9261,3.9584,3.9818,4.0023,4.0298,4.0515,4.0673,4.0702,4.0702,4.0744,4.1029,4.1255,4.1423,4.1633,4.1856,4.1995,4.2092,4.2092,4.2092,4.2092,4.2092,4.2092,4.2092,4.2092,4.2092,4.2092,4.216,4.2284,4.2366,4.2541,4.2729,4.2915,4.3036,4.3195,4.3423,4.3596,4.3714,4.3847,4.3988,4.4127,4.4143,4.4166,4.4343,4.4534,4.4685,4.4814,4.498,4.5055,4.5108,4.5182,4.5257,4.522,4.522,4.522,4.5331,4.5405,4.5442,4.5478,4.5515,4.5552,4.5573,4.5589,4.5625,4.5814,4.5966,4.5714,4.5567,4.5939,4.6296,4.6544,4.6754,4.704,4.7304,4.7723,4.8025,4.8595,4.8674,4.871,4.8884,4.9006,4.8784,4.8647,4.8713,4.8692,4.8458,4.827,4.8293,4.8214,4.8018,4.7952,4.7886,4.7935,4.7984,4.8147,4.8373,4.8564,3.6417,3.6417,3.6417,3.6417,3.6417,3.6417,3.6417,3.6417,3.6417,3.6687,3.7108,3.7201,3.7459,3.7795,3.7979,3.8207,3.8557,3.8679,3.8948,3.9305,3.9628,3.9834,4.0067,4.0328,4.0587,4.0702,4.0702,4.0702,4.0744,4.117,4.1354,4.148,4.1675,4.1939,4.2036,4.2092,4.2092,4.2092,4.2092,4.2092,4.2092,4.2092,4.2092,4.2092,4.2092,4.2216,4.2351,4.2474,4.2662,4.289,4.3076,4.3195,4.3384,4.3596,4.3754,4.3871,4.4026,4.4166,4.432,4.4458,4.4534,4.4648,4.4852,4.4964,4.5039,4.5182,4.5294,4.5278,4.5331,4.5368,4.5368,4.5442,4.5478,4.5589,4.5589,4.5625,4.5771,4.5844,4.5864,4.592,4.6063,4.6348,4.6639,4.6887,4.7003,4.6856,4.7072,4.74,4.7564,4.7792,4.8073,4.8376,4.8696,4.8946,4.9213,4.9555,4.9881,4.9967,5.0029,4.9763,4.9677,4.9691,4.9556,4.9255,4.9099,4.9071,4.8876,4.858,4.8283,4.8018,4.8083,4.8147,4.8421,4.8612,4.869,3.6417,3.6417,3.6417,3.6417,3.6417,3.6417,3.6417,3.6405,3.6417,3.6687,3.7108,3.7353,3.7598,3.79,3.8123,3.8463,3.8775,3.8961,3.9227,3.9635,4.0103,4.0118,4.0265,4.0582,4.0855,4.0744,4.0702,4.0702,4.0744,4.117,4.1354,4.1578,4.1829,4.2036,4.2092,4.2092,4.2092,4.2092,4.2092,4.2092,4.2092,4.2092,4.2092,4.2092,4.2133,4.2257,4.2433,4.2607,4.2809,4.305,4.3155,4.3369,4.3611,4.369,4.3871,4.4166,4.4243,4.4396,4.4587,4.4761,4.4874,4.4911,4.5092,4.5182,4.5204,4.5368,4.5478,4.5499,4.5625,4.5735,4.5771,4.5771,4.5771,4.5792,4.5844,4.588,4.5988,4.6298,4.6418,4.6566,4.7009,4.7401,4.7641,4.7928,4.8254,4.8313,4.8371,4.8504,4.8627,4.8888,4.9165,4.9352,4.9673,4.9877,5.0161,5.0682,5.1005,5.1091,5.0971,5.0639,5.0558,5.0605,5.0389,5.0037,4.9928,4.9916,4.9506,4.911,4.8713,4.833,4.8245,4.834,4.8612,4.8801,4.8863,3.6417,3.6417,3.6417,3.6417,3.6417,3.6417,3.6417,3.6417,3.6546,3.6769,3.7108,3.74,3.7657,3.7965,3.8556,3.8965,3.9228,3.9899,4.0243,4.0504,4.0889,4.1166,4.1221,4.1211,4.132,4.1193,4.0997,4.0815,4.0916,4.1255,4.1465,4.1675,4.1912,4.2051,4.2092,4.2092,4.2092,4.2092,4.2092,4.2092,4.2092,4.2092,4.2092,4.2107,4.2216,4.2392,4.2566,4.2754,4.2955,4.317,4.329,4.3463,4.3729,4.3808,4.4026,4.4281,4.4396,4.4587,4.4836,4.5024,4.5188,4.5204,4.5294,4.5405,4.5405,4.5604,4.5662,4.5698,4.5771,4.588,4.5952,4.6004,4.6024,4.61,4.6136,4.6136,4.6303,4.6801,4.7093,4.7285,4.7629,4.8338,4.8791,4.9015,4.9299,4.9438,4.9459,4.9593,4.9731,5.0053,5.0316,5.0408,5.0634,5.079,5.1065,5.1188,5.1333,5.1359,5.138,5.134,5.1341,5.1375,5.1402,5.1147,5.094,5.0731,5.0304,4.9775,4.9027,4.8658,4.8587,4.8565,4.8707,4.8863,4.8956,3.6417,3.6417,3.6417,3.6417,3.6417,3.6417,3.6417,3.6452,3.6687,3.6956,3.7193,3.7627,3.8002,3.8404,3.9037,3.9561,3.9861,4.0495,4.0836,4.1156,4.1576,4.1663,4.172,4.1923,4.1964,4.1783,4.142,4.1154,4.1369,4.1355,4.1564,4.1814,4.1995,4.2092,4.2092,4.2092,4.2092,4.2092,4.2092,4.2092,4.2092,4.2092,4.2133,4.2201,4.2351,4.25,4.2769,4.2955,4.313,4.3265,4.3423,4.3542,4.3793,4.3988,4.4166,4.4396,4.4587,4.4814,4.5114,4.5262,4.5389,4.5442,4.5552,4.5589,4.5625,4.5714,4.5823,4.5844,4.588,4.6024,4.6116,4.6168,4.6239,4.6349,4.6605,4.6621,4.6981,4.7445,4.7935,4.8111,4.8565,4.9256,4.9871,5.0107,5.0381,5.0403,5.0462,5.0617,5.0669,5.0848,5.0988,5.1032,5.1092,5.1151,5.1226,5.128,5.1462,5.1573,5.1647,5.1721,5.1851,5.1836,5.2056,5.2194,5.1839,5.1464,5.1054,5.0475,4.9625,4.9101,4.8925,4.8919,4.888,4.8925,4.9001,3.6417,3.6417,3.6417,3.6417,3.6417,3.6417,3.6417,3.6465,3.6913,3.716,3.7245,3.828,3.8689,3.8961,3.9825,4.03,4.0474,4.0978,4.1307,4.148,4.2021,4.2049,4.2237,4.2457,4.2567,4.2388,4.2067,4.1818,4.1979,4.1881,4.1918,4.1968,4.2051,4.2092,4.2092,4.2092,4.2092,4.2092,4.2092,4.2092,4.2092,4.2133,4.2201,4.231,4.2474,4.2703,4.2875,4.3021,4.317,4.3344,4.3542,4.3754,4.3988,4.4166,4.4381,4.461,4.4799,4.5129,4.5368,4.5478,4.5589,4.5662,4.5771,4.5807,4.5807,4.5859,4.5916,4.6024,4.6096,4.6171,4.6278,4.633,4.6397,4.674,4.7109,4.7389,4.777,4.8244,4.8752,4.9159,4.9664,5.0214,5.065,5.0984,5.0903,5.0914,5.093,5.1,5.1059,5.1,5.1146,5.1183,5.1258,5.1296,5.1387,5.1483,5.161,5.1758,5.1904,5.1977,5.2139,5.2247,5.2266,5.2302,5.2373,5.2099,5.1404,5.0777,5.0073,4.9697,4.9371,4.9128,4.9058,4.9018,4.9063,3.6417,3.6417,3.6417,3.6417,3.6417,3.6417,3.6417,3.6502,3.7282,3.7736,3.7822,3.8852,3.9337,3.9464,4.0455,4.0859,4.1298,4.1827,4.2426,4.265,4.2755,4.3081,4.3264,4.3244,4.3241,4.302,4.2713,4.2497,4.2809,4.261,4.2231,4.2123,4.2194,4.215,4.2107,4.2092,4.2092,4.2092,4.2092,4.2092,4.216,4.2201,4.231,4.2474,4.2688,4.2875,4.2996,4.3155,4.3329,4.3557,4.3636,4.3832,4.4205,4.4281,4.4435,4.4799,4.5114,4.5389,4.5515,4.5625,4.575,4.5823,4.5916,4.6004,4.604,4.6024,4.608,4.6187,4.6259,4.6365,4.6619,4.6718,4.7014,4.7468,4.7838,4.8232,4.8627,4.918,4.962,4.99,5.0406,5.0719,5.1172,5.1205,5.1124,5.1242,5.1312,5.1387,5.1371,5.1333,5.1333,5.1371,5.1445,5.1483,5.1594,5.1704,5.1815,5.1977,5.2086,5.2158,5.2266,5.2338,5.2373,5.2445,5.248,5.2152,5.159,5.1061,5.0758,5.0149,4.9805,4.9463,4.9204,4.9165,4.9155,3.6417,3.6417,3.6417,3.6417,3.6443,3.6644,3.6779,3.6998,3.7696,3.813,3.8556,3.9472,3.9939,4.0114,4.1011,4.1559,4.1648,4.2347,4.2923,4.3136,4.3519,4.364,4.3812,4.3906,4.3905,4.3638,4.3437,4.3267,4.3541,4.343,4.3108,4.2528,4.2455,4.2295,4.2165,4.2092,4.2092,4.2092,4.2092,4.2119,4.2242,4.2351,4.2433,4.2648,4.29,4.2996,4.317,4.3329,4.3557,4.3729,4.3793,4.4026,4.4358,4.4435,4.4739,4.5114,4.5315,4.5515,4.5641,4.575,4.5823,4.5916,4.6024,4.6168,4.6223,4.6243,4.6314,4.6369,4.6471,4.6606,4.6888,4.727,4.7774,4.8298,4.8654,4.901,4.9564,5.0131,5.039,5.0568,5.0848,5.1112,5.1258,5.1296,5.1371,5.1483,5.1557,5.161,5.1594,5.1557,5.1557,5.1594,5.1631,5.1684,5.1815,5.1924,5.205,5.2122,5.2247,5.2318,5.2373,5.2409,5.2445,5.2464,5.2535,5.2257,5.2114,5.195,5.163,5.1005,5.0359,4.9915,4.9619,4.9359,4.9348,3.6417,3.6417,3.6417,3.6417,3.6493,3.6971,3.7379,3.7721,3.8076,3.856,3.9317,4.0142,4.0488,4.0726,4.155,4.1995,4.2155,4.2652,4.308,4.3321,4.3519,4.3757,4.4068,4.4228,4.4242,4.4223,4.4121,4.391,4.4085,4.4022,4.3718,4.3108,4.3079,4.2861,4.2397,4.231,4.2266,4.2092,4.2175,4.2201,4.2351,4.2459,4.2622,4.2915,4.3036,4.313,4.3329,4.3503,4.3714,4.3871,4.4026,4.4258,4.4473,4.4776,4.5129,4.5352,4.5515,4.5641,4.575,4.5823,4.5932,4.6024,4.6116,4.6442,4.6612,4.6452,4.6474,4.6885,4.7068,4.7394,4.7706,4.7987,4.8411,4.8933,4.937,4.9742,5.0212,5.0633,5.0848,5.1015,5.1101,5.1387,5.1483,5.152,5.152,5.1704,5.1794,5.1831,5.1831,5.1815,5.1815,5.1815,5.1831,5.1904,5.205,5.2158,5.2211,5.2318,5.2354,5.239,5.2409,5.2445,5.2464,5.257,5.2659,5.2868,5.2806,5.2623,5.2353,5.1862,5.1183,5.0517,5.0102,4.9705,4.9487,3.6417,3.6417,3.6417,3.6417,3.6493,3.6948,3.7728,3.8523,3.9094,3.9509,3.9988,4.0702,4.1162,4.141,4.1825,4.2177,4.2449,4.2741,4.3149,4.3389,4.36,4.3851,4.4209,4.4364,4.4425,4.4476,4.4464,4.4502,4.4594,4.4573,4.4385,4.3819,4.3732,4.3427,4.2832,4.2774,4.2629,4.2409,4.2415,4.2483,4.2576,4.2758,4.2955,4.3061,4.3115,4.3329,4.3503,4.3675,4.391,4.4143,4.4205,4.4435,4.4723,4.5129,4.5368,4.5515,4.5625,4.5735,4.5823,4.5932,4.6108,4.6267,4.6422,4.6892,4.7014,4.6705,4.6824,4.7384,4.7809,4.8201,4.8524,4.8735,4.9046,4.9564,5.0017,5.0422,5.0864,5.1064,5.128,5.135,5.1424,5.1536,5.1668,5.1741,5.1741,5.1831,5.1993,5.203,5.2102,5.2086,5.2033,5.205,5.203,5.2102,5.2247,5.2318,5.2318,5.2354,5.2373,5.2373,5.2409,5.248,5.2535,5.2659,5.2834,5.3007,5.3195,5.3264,5.2926,5.2519,5.1907,5.1206,5.0546,5.011,4.9838,3.6417,3.6417,3.6417,3.6556,3.6845,3.7312,3.8146,3.916,3.9786,4.028,4.0655,4.1104,4.1448,4.1696,4.198,4.2239,4.2511,4.279,4.3149,4.3471,4.3662,4.396,4.4209,4.4425,4.4425,4.4457,4.4801,4.4955,4.5106,4.5196,4.5039,4.4501,4.4342,4.4081,4.3529,4.3398,4.3353,4.3131,4.3019,4.301,4.299,4.3082,4.3105,4.3155,4.3329,4.3557,4.3714,4.3832,4.4104,4.432,4.4458,4.4814,4.5077,4.5368,4.5515,4.5625,4.5735,4.5844,4.5932,4.6119,4.6391,4.6697,4.6936,4.7468,4.8106,4.7913,4.7897,4.8395,4.8411,4.8719,4.922,4.9548,4.992,5.039,5.0638,5.0897,5.1134,5.1306,5.1499,5.161,5.1684,5.1721,5.1868,5.1941,5.1977,5.2122,5.2211,5.2211,5.2283,5.2283,5.2266,5.2266,5.2211,5.2247,5.2318,5.2373,5.2373,5.2409,5.2409,5.2445,5.248,5.257,5.264,5.2834,5.3007,5.3161,5.3348,5.345,5.3467,5.3143,5.2546,5.1845,5.1185,5.0549,5.0223,3.6417,3.6417,3.6493,3.6769,3.7297,3.7913,3.874,3.9684,4.0285,4.0833,4.1159,4.1235,4.1448,4.1733,4.198,4.2289,4.2547,4.279,4.3149,4.3471,4.3614,4.396,4.4209,4.4425,4.4457,4.463,4.494,4.5367,4.5719,4.5706,4.5488,4.5082,4.4879,4.4705,4.4298,4.4167,4.4137,4.4016,4.3948,4.3977,4.376,4.3422,4.3275,4.3329,4.3557,4.3675,4.3832,4.4026,4.4243,4.4473,4.4685,4.5039,4.5315,4.5515,4.5625,4.5766,4.6065,4.619,4.6314,4.6629,4.7133,4.7553,4.7738,4.8184,4.886,4.9107,4.9091,4.9204,4.9273,4.9402,4.992,5.0293,5.0681,5.0962,5.1129,5.1285,5.1392,5.1536,5.1684,5.1831,5.1904,5.1941,5.205,5.2139,5.2211,5.2338,5.2409,5.2409,5.2373,5.2338,5.2338,5.2338,5.2302,5.2373,5.2409,5.2409,5.2409,5.2409,5.2409,5.2516,5.2605,5.2729,5.2868,5.3058,5.323,5.3348,5.3416,5.3517,5.355,5.3582,5.3014,5.234,5.1747,5.1129,5.0671,3.6417,3.6443,3.6835,3.7098,3.741,3.8514,3.9345,3.9798,4.05,4.0997,4.1261,4.1374,4.156,4.2029,4.2079,4.2338,4.2741,4.2887,4.3211,4.3566,4.3662,4.396,4.427,4.4472,4.4676,4.4847,4.5078,4.5413,4.5835,4.588,4.5851,4.5634,4.5634,4.5388,4.4865,4.4793,4.485,4.4744,4.475,4.4766,4.4492,4.4024,4.3369,4.3369,4.3542,4.3754,4.3949,4.4166,4.4358,4.4625,4.4998,4.5413,4.5698,4.5929,4.6019,4.6286,4.6586,4.6839,4.7096,4.7565,4.8152,4.8466,4.872,4.9034,4.956,4.9888,5.0017,5.0374,5.0374,5.0276,5.0617,5.0795,5.1124,5.1199,5.1317,5.1503,5.1668,5.1758,5.1831,5.1941,5.2066,5.2158,5.2266,5.2302,5.2302,5.2409,5.2409,5.2409,5.2409,5.2409,5.2409,5.2409,5.2409,5.2409,5.2409,5.2409,5.2409,5.2409,5.2445,5.2605,5.2781,5.2972,5.311,5.3264,5.3348,5.345,5.3534,5.3584,5.3651,5.3647,5.331,5.2783,5.2238,5.1692,5.1232]}]]